[[{"header":{"parameterUnit":"m.s-1","parameterCategory":1,"la1":30.6,"la2":28.766,"lo1":-90.7593,"lo2":-88.6598,"dy":0.0162,"dx":0.0183,"nx":116,"ny":114,"refTime":"2024-06-21T12:00:00:Z","depth":0,"parameterNumber":2,"parameterNumberName":"U-component_of_WINDS"},"data":[0.0,0.0,0.0,0.0,0.0,0.0,0.0,0.0,0.0,0.0,0.0,0.0,0.0,0.0,0.0,0.0,0.0,0.0,0.0,0.0,0.0,0.0,0.0,0.0,0.0,0.0,0.0,0.0,0.0,0.0,0.0,0.0,0.0,0.0,0.0,0.0,0.0,0.0,0.0,0.0,0.0,0.0,0.0,0.0,0.0,0.0,0.0,0.0,0.0,0.0,0.0,0.0,0.0,0.0,0.0,0.0,0.0,0.0,0.0,0.0,0.0,0.0,0.0,0.0,0.0,0.0,0.0,0.0,0.0,0.0,0.0,0.0,0.0,0.0,0.0,0.0,0.0,0.0,0.0,0.0,0.0,0.0,0.0,0.0,0.0,0.0,0.0,0.0,0.0,0.0,0.0,0.0,0.0,0.0,0.0,0.0,0.0,0.0,0.0,0.0,0.0,0.0,0.0,0.0,0.0,0.0,0.0,0.0,0.0,0.0,0.0,0.0,0.0,0.0,0.0,0.0,0.0,0.0,0.0,0.0,0.0,0.0,0.0,0.0,0.0,0.0,0.0,0.0,0.0,0.0,0.0,0.0,0.0,0.0,0.0,0.0,0.0,0.0,0.0,0.0,0.0,0.0,0.0,0.0,0.0,0.0,0.0,0.0,0.0,0.0,0.0,0.0,0.0,0.0,0.0,0.0,0.0,0.0,0.0,0.0,0.0,0.0,0.0,0.0,0.0,0.0,0.0,0.0,0.0,0.0,0.0,0.0,0.0,0.0,0.0,0.0,0.0,0.0,0.0,0.0,0.0,0.0,0.0,0.0,0.0,0.0,0.0,0.0,0.0,0.0,0.0,0.0,0.0,0.0,0.0,0.0,0.0,0.0,0.0,0.0,0.0,0.0,0.0,0.0,0.0,0.0,0.0,0.0,0.0,0.0,0.0,0.0,0.0,0.0,0.0,0.0,0.0,0.0,0.0,0.0,0.0,0.0,0.0,0.0,0.0,0.0,0.0,0.0,0.0,0.0,0.0,0.0,0.0,0.0,0.0,0.0,0.0,0.0,0.0,0.0,0.0,0.0,0.0,0.0,0.0,0.0,0.0,0.0,0.0,0.0,0.0,0.0,0.0,0.0,0.0,0.0,0.0,0.0,0.0,0.0,0.0,0.0,0.0,0.0,0.0,0.0,0.0,0.0,0.0,0.0,0.0,0.0,0.0,0.0,0.0,0.0,0.0,0.0,0.0,0.0,0.0,0.0,0.0,0.0,0.0,0.0,0.0,0.0,0.0,0.0,0.0,0.0,0.0,0.0,0.0,0.0,0.0,0.0,0.0,0.0,0.0,0.0,0.0,0.0,0.0,0.0,0.0,0.0,0.0,0.0,0.0,0.0,0.0,0.0,0.0,0.0,0.0,0.0,0.0,0.0,0.0,0.0,0.0,0.0,0.0,0.0,0.0,0.0,0.0,0.0,0.0,0.0,0.0,0.0,0.0,0.0,0.0,0.0,0.0,0.0,0.0,0.0,0.0,0.0,0.0,0.0,0.0,0.0,0.0,0.0,0.0,0.0,0.0,0.0,0.0,0.0,0.0,0.0,0.0,0.0,0.0,0.0,0.0,0.0,0.0,0.0,0.0,0.0,0.0,0.0,0.0,0.0,0.0,0.0,0.0,0.0,0.0,0.0,0.0,0.0,0.0,0.0,0.0,0.0,0.0,0.0,0.0,0.0,0.0,0.0,0.0,0.0,0.0,0.0,0.0,0.0,0.0,0.0,0.0,0.0,0.0,0.0,0.0,0.0,0.0,0.0,0.0,0.0,0.0,0.0,0.0,0.0,0.0,0.0,0.0,0.0,0.0,0.0,0.0,0.0,0.0,0.0,0.0,0.0,0.0,0.0,0.0,0.0,0.0,0.0,0.0,0.0,0.0,0.0,0.0,0.0,0.0,0.0,0.0,0.0,0.0,0.0,0.0,0.0,0.0,0.0,0.0,0.0,0.0,0.0,0.0,0.0,0.0,0.0,0.0,0.0,0.0,0.0,0.0,0.0,0.0,0.0,0.0,0.0,0.0,0.0,0.0,0.0,0.0,0.0,0.0,0.0,0.0,0.0,0.0,0.0,0.0,0.0,0.0,0.0,0.0,0.0,0.0,0.0,0.0,0.0,0.0,0.0,0.0,0.0,0.0,0.0,0.0,0.0,0.0,0.0,0.0,0.0,0.0,0.0,0.0,0.0,0.0,0.0,0.0,0.0,0.0,0.0,0.0,0.0,0.0,0.0,0.0,0.0,0.0,0.0,0.0,0.0,0.0,0.0,0.0,0.0,0.0,0.0,0.0,0.0,0.0,0.0,0.0,0.0,0.0,0.0,0.0,0.0,0.0,0.0,0.0,0.0,0.0,0.0,0.0,0.0,0.0,0.0,0.0,0.0,0.0,0.0,0.0,0.0,0.0,0.0,0.0,0.0,0.0,0.0,0.0,0.0,0.0,0.0,0.0,0.0,0.0,0.0,0.0,0.0,0.0,0.0,0.0,0.0,0.0,0.0,0.0,0.0,0.0,0.0,0.0,0.0,0.0,0.0,0.0,0.0,0.0,0.0,0.0,0.0,0.0,0.0,0.0,0.0,0.0,0.0,0.0,0.0,0.0,0.0,0.0,0.0,0.0,0.0,0.0,0.0,0.0,0.0,0.0,0.0,0.0,0.0,0.0,0.0,0.0,0.0,0.0,0.0,0.0,0.0,0.0,0.0,0.0,0.0,0.0,0.0,0.0,0.0,0.0,0.0,0.0,0.0,0.0,0.0,0.0,0.0,0.0,0.0,0.0,0.0,0.0,0.0,0.0,0.0,0.0,0.0,0.0,0.0,0.0,0.0,0.0,0.0,0.0,0.0,0.0,0.0,0.0,0.0,0.0,0.0,0.0,0.0,0.0,0.0,0.0,0.0,0.0,0.0,0.0,0.0,0.0,0.0,0.0,0.0,0.0,0.0,0.0,0.0,0.0,0.0,0.0,0.0,0.0,0.0,0.0,0.0,0.0,0.0,0.0,0.0,0.0,0.0,0.0,0.0,0.0,0.0,0.0,0.0,0.0,0.0,0.0,0.0,0.0,0.0,0.0,0.0,0.0,0.0,0.0,0.0,0.0,0.0,0.0,0.0,0.0,0.0,0.0,0.0,0.0,0.0,0.0,0.0,0.0,0.0,0.0,0.0,0.0,0.0,0.0,0.0,0.0,0.0,0.0,0.0,0.0,0.0,0.0,0.0,0.0,0.0,0.0,0.0,0.0,0.0,0.0,0.0,0.0,0.0,0.0,0.0,0.0,0.0,0.0,0.0,0.0,0.0,0.0,0.0,0.0,0.0,0.0,0.0,0.0,0.0,0.0,0.0,0.0,0.0,0.0,0.0,0.0,0.0,0.0,0.0,0.0,0.0,0.0,0.0,0.0,0.0,0.0,0.0,0.0,0.0,0.0,0.0,0.0,0.0,0.0,0.0,0.0,0.0,0.0,0.0,0.0,0.0,0.0,0.0,0.0,0.0,0.0,0.0,0.0,0.0,0.0,0.0,0.0,0.0,0.0,0.0,0.0,0.0,0.0,0.0,0.0,0.0,0.0,0.0,0.0,0.0,0.0,0.0,0.0,0.0,0.0,0.0,0.0,0.0,0.0,0.0,0.0,0.0,0.0,0.0,0.0,0.0,0.0,0.0,0.0,0.0,0.0,0.0,0.0,0.0,0.0,0.0,0.0,0.0,0.0,0.0,0.0,0.0,0.0,0.0,0.0,0.0,0.0,0.0,0.0,0.0,0.0,0.0,0.0,0.0,0.0,0.0,0.0,0.0,0.0,0.0,0.0,0.0,0.0,0.0,0.0,0.0,0.0,0.0,0.0,0.0,0.0,0.0,0.0,0.0,0.0,0.0,0.0,0.0,0.0,0.0,0.0,0.0,0.0,0.0,0.0,0.0,0.0,0.0,0.0,0.0,0.0,0.0,0.0,0.0,0.0,0.0,0.0,0.0,0.0,0.0,0.0,0.0,0.0,0.0,0.0,0.0,0.0,0.0,0.0,0.0,0.0,0.0,0.0,0.0,0.0,0.0,0.0,0.0,0.0,0.0,0.0,0.0,0.0,0.0,0.0,0.0,0.0,0.0,0.0,0.0,0.0,0.0,0.0,0.0,0.0,0.0,0.0,0.0,0.0,0.0,0.0,0.0,0.0,0.0,0.0,0.0,0.0,0.0,0.0,0.0,0.0,0.0,0.0,0.0,0.0,0.0,0.0,0.0,0.0,0.0,0.0,0.0,0.0,0.0,0.0,0.0,0.0,0.0,0.0,0.0,0.0,0.0,0.0,0.0,0.0,0.0,0.0,0.0,0.0,0.0,0.0,0.0,0.0,0.0,0.0,0.0,0.0,0.0,0.0,0.0,0.0,0.0,0.0,0.0,0.0,0.0,0.0,0.0,0.0,0.0,0.0,0.0,0.0,0.0,0.0,0.0,0.0,0.0,0.0,0.0,0.0,0.0,0.0,0.0,0.0,0.0,0.0,0.0,0.0,0.0,0.0,0.0,0.0,0.0,0.0,0.0,0.0,0.0,0.0,0.0,0.0,0.0,0.0,0.0,0.0,0.0,0.0,0.0,0.0,0.0,0.0,0.0,0.0,0.0,0.0,0.0,0.0,0.0,0.0,0.0,0.0,0.0,0.0,0.0,0.0,0.0,0.0,0.0,0.0,0.0,0.0,0.0,0.0,0.0,0.0,0.0,0.0,0.0,0.0,0.0,0.0,0.0,0.0,0.0,0.0,0.0,0.0,0.0,0.0,0.0,0.0,0.0,0.0,0.0,0.0,0.0,0.0,0.0,0.0,0.0,0.0,0.0,0.0,0.0,0.0,0.0,0.0,0.0,0.0,0.0,0.0,0.0,0.0,0.0,0.0,0.0,0.0,0.0,0.0,0.0,0.0,0.0,0.0,0.0,0.0,0.0,0.0,0.0,0.0,0.0,0.0,0.0,0.0,0.0,0.0,0.0,0.0,0.0,0.0,0.0,0.0,0.0,0.0,0.0,0.0,0.0,0.0,0.0,0.0,0.0,0.0,0.0,0.0,0.0,0.0,0.0,0.0,0.0,0.0,0.0,0.0,0.0,0.0,0.0,0.0,0.0,0.0,0.0,0.0,0.0,0.0,0.0,0.0,0.0,0.0,0.0,0.0,0.0,0.0,0.0,0.0,0.0,0.0,0.0,0.0,0.0,0.0,0.0,0.0,0.0,0.0,0.0,0.0,0.0,0.0,0.0,0.0,0.0,0.0,0.0,0.0,0.0,0.0,0.0,0.0,0.0,0.0,0.0,0.0,0.0,0.0,0.0,0.0,0.0,0.0,0.0,0.0,0.0,0.0,0.0,0.0,0.0,0.0,0.0,0.0,0.0,0.0,0.0,0.0,0.0,0.0,0.0,0.0,0.0,0.0,0.0,0.0,0.0,0.0,0.0,0.0,0.0,0.0,0.0,0.0,0.0,0.0,0.0,0.0,0.0,0.0,0.0,0.0,0.0,0.0,0.0,0.0,0.0,0.0,0.0,0.0,0.0,0.0,0.0,0.0,0.0,0.0,0.0,0.0,0.0,0.0,0.0,0.0,0.0,0.0,0.0,0.0,0.0,0.0,0.0,0.0,0.0,0.0,0.0,0.0,0.0,0.0,0.0,0.0,0.0,0.0,0.0,0.0,0.0,0.0,0.0,0.0,0.0,0.0,0.0,0.0,0.0,0.0,0.0,0.0,0.0,0.0,0.0,0.0,0.0,0.0,0.0,0.0,0.0,0.0,0.0,0.0,0.0,0.0,0.0,0.0,0.0,0.0,0.0,0.0,0.0,0.0,0.0,0.0,0.0,0.0,0.0,0.0,0.0,0.0,0.0,0.0,0.0,0.0,0.0,0.0,0.0,0.0,0.0,0.0,0.0,0.0,0.0,0.0,0.0,0.0,0.0,0.0,0.0,0.0,0.0,0.0,0.0,0.0,0.0,0.0,0.0,0.0,0.0,0.0,0.0,0.0,0.0,0.0,0.0,0.0,0.0,0.0,0.0,0.0,0.0,0.0,0.0,0.0,0.0,0.0,0.0,0.0,0.0,-2.1907,-2.0525,0.0,0.0,0.0,0.0,0.0,0.0,0.0,0.0,0.0,0.0,0.0,0.0,0.0,0.0,0.0,0.0,0.0,0.0,0.0,0.0,0.0,0.0,0.0,-0.9676,-1.0163,-1.0573,-0.9992,-0.942,-0.9099,-0.8842,-0.8436,-0.7847,-0.8774,-0.9299,-0.9298,-0.9765,-1.0528,-1.1609,-1.2146,-1.3208,-1.4729,-1.4805,-1.4471,-1.3847,0.0,0.0,0.0,0.0,0.0,0.0,0.0,0.0,0.0,0.0,0.0,0.0,0.0,0.0,0.0,0.0,0.0,0.0,0.0,0.0,0.0,0.0,0.0,0.0,0.0,0.0,0.0,0.0,0.0,0.0,0.0,0.0,0.0,0.0,0.0,0.0,0.0,0.0,0.0,0.0,0.0,0.0,0.0,0.0,0.0,0.0,0.0,0.0,0.0,0.0,0.0,0.0,0.0,0.0,0.0,0.0,0.0,0.0,0.0,0.0,0.0,0.0,0.0,0.0,0.0,0.0,0.0,0.0,0.0,0.0,-2.4475,-2.3343,0.0,0.0,0.0,0.0,0.0,0.0,0.0,0.0,0.0,0.0,0.0,0.0,0.0,0.0,0.0,0.0,0.0,0.0,0.0,0.0,0.0,-1.0401,-1.096,-1.1813,-1.2599,-1.3131,-1.258,-1.192,-1.1255,-1.0426,-0.9559,-0.8685,-0.9084,-0.943,-0.9705,-0.9998,-1.0905,-1.2487,-1.289,-1.4072,-1.596,-1.6929,-1.6642,-1.5312,-1.5229,0.0,0.0,0.0,0.0,0.0,0.0,0.0,0.0,0.0,0.0,0.0,0.0,0.0,0.0,0.0,0.0,0.0,0.0,0.0,0.0,0.0,0.0,0.0,0.0,0.0,0.0,0.0,0.0,0.0,0.0,0.0,0.0,0.0,0.0,0.0,0.0,0.0,0.0,0.0,0.0,0.0,0.0,0.0,0.0,0.0,0.0,0.0,0.0,0.0,0.0,0.0,0.0,0.0,0.0,0.0,0.0,0.0,0.0,0.0,0.0,0.0,0.0,0.0,-2.5403,-2.5645,-2.5888,-2.5954,-2.617,-2.6393,-2.6101,-2.5538,-2.4754,-2.4327,0.0,0.0,0.0,0.0,0.0,0.0,0.0,0.0,0.0,0.0,0.0,0.0,0.0,0.0,0.0,0.0,0.0,0.0,0.0,-1.2149,-1.2256,-1.3894,-1.5037,-1.5126,-1.4519,-1.388,-1.3252,-1.1559,-1.0283,-0.9658,-0.9669,-0.9757,-0.9789,-1.0607,-1.1632,-1.2845,-1.4814,-1.5755,-1.5754,-1.6888,-1.7374,-1.7309,-1.7495,-1.7594,-1.765,0.0,0.0,0.0,0.0,0.0,0.0,0.0,0.0,0.0,0.0,0.0,0.0,0.0,0.0,0.0,0.0,0.0,0.0,0.0,0.0,0.0,0.0,0.0,0.0,0.0,0.0,0.0,0.0,0.0,0.0,0.0,0.0,0.0,0.0,0.0,0.0,0.0,0.0,0.0,0.0,0.0,-2.0045,-2.0251,0.0,0.0,0.0,0.0,0.0,0.0,0.0,0.0,0.0,0.0,0.0,0.0,0.0,-2.2717,-2.3601,-2.4337,-2.4984,-2.5563,-2.6552,-2.7022,-2.7098,-2.7437,-2.7621,-2.7676,-2.7909,0.0,-2.6337,-2.6657,0.0,0.0,0.0,0.0,0.0,0.0,0.0,0.0,0.0,0.0,0.0,0.0,0.0,0.0,0.0,0.0,0.0,0.0,0.0,0.0,0.0,-1.4479,-1.5774,-1.6349,-1.5599,-1.4821,-1.4156,-1.204,-1.0516,-0.9832,-0.9432,-0.9406,-0.978,-1.0344,-1.154,-1.3357,-1.5141,-1.6198,-1.6547,-1.7329,-1.7986,-1.8541,-1.8816,-1.9258,-1.9686,-1.8985,0.0,0.0,0.0,0.0,0.0,0.0,0.0,0.0,0.0,0.0,0.0,0.0,0.0,0.0,0.0,0.0,0.0,0.0,0.0,0.0,0.0,0.0,0.0,0.0,0.0,0.0,0.0,0.0,0.0,0.0,0.0,0.0,0.0,0.0,0.0,0.0,0.0,0.0,0.0,-1.8863,-2.0461,-2.068,-2.0763,-2.0302,0.0,0.0,0.0,0.0,0.0,0.0,0.0,0.0,0.0,-2.2505,-2.2777,-2.3293,-2.4076,-2.4714,-2.5255,-2.5726,-2.6504,-2.6739,-2.6606,-2.707,-2.704,-2.6655,-2.725,-2.7202,-2.6729,-2.7103,-2.6465,-2.517,0.0,0.0,0.0,0.0,-2.3811,-2.412,0.0,0.0,0.0,0.0,0.0,0.0,0.0,0.0,0.0,0.0,0.0,0.0,-1.2929,-1.4577,-1.5964,-1.6811,-1.6329,-1.552,-1.4376,-1.2457,-1.0846,-0.9763,-0.9117,-0.9028,-0.9536,-1.0384,-1.1777,-1.3692,-1.5264,-1.6293,-1.6803,-1.7512,-1.8244,-1.8984,-1.9376,-2.0031,-2.0803,-2.0332,-2.0276,-2.0403,0.0,0.0,0.0,0.0,0.0,0.0,0.0,0.0,0.0,0.0,0.0,0.0,0.0,0.0,0.0,0.0,0.0,0.0,0.0,0.0,0.0,0.0,0.0,0.0,0.0,0.0,0.0,0.0,0.0,0.0,0.0,0.0,0.0,0.0,0.0,0.0,0.0,-1.9075,-2.0387,-2.0628,-2.1073,-2.0714,0.0,0.0,0.0,0.0,0.0,0.0,-2.2173,-2.2173,-2.2413,-2.2912,-2.3275,-2.3773,-2.4389,-2.4812,-2.5195,-2.5666,-2.6007,-2.595,-2.5561,-2.6128,-2.5877,-2.5032,-2.6083,-2.6426,-2.6359,-2.7081,-2.6905,-2.6113,-2.5555,-2.5196,-2.4965,-2.4677,-2.4745,-2.5024,0.0,0.0,0.0,0.0,0.0,0.0,0.0,0.0,0.0,0.0,0.0,-1.1449,-1.2522,-1.44,-1.5801,-1.6316,-1.6766,-1.6136,-1.3977,-1.3078,-1.1646,-0.9505,-0.9031,-0.8804,-0.8857,-1.1312,-1.2958,-1.3693,-1.5676,-1.6327,-1.5704,-1.706,-1.7935,-1.8377,-1.8968,-1.953,-2.0103,-2.1022,-2.134,-2.1282,-2.1796,0.0,0.0,0.0,0.0,0.0,0.0,0.0,0.0,0.0,0.0,0.0,0.0,0.0,0.0,0.0,0.0,0.0,0.0,0.0,0.0,0.0,0.0,0.0,0.0,0.0,0.0,0.0,0.0,0.0,0.0,0.0,0.0,0.0,0.0,0.0,0.0,0.0,0.0,-1.9768,-2.0718,0.0,0.0,0.0,0.0,-2.1571,-2.2759,-2.349,-2.349,-2.349,-2.352,-2.355,-2.3593,-2.3849,-2.4389,-2.443,-2.4712,-2.524,-2.5227,-2.4912,-2.4291,-2.4968,-2.4553,-2.3414,-2.5102,-2.5475,-2.5063,-2.7048,-2.7402,-2.6625,-2.6286,-2.5675,-2.4991,-2.4846,-2.4808,-2.4693,0.0,0.0,0.0,-0.6711,-0.6583,-0.6505,-0.6611,-0.715,-0.7677,-0.7963,-0.964,-1.1044,-1.1686,-1.3198,-1.4352,-1.4768,-1.4758,-1.4228,-1.3056,-1.1836,-1.0638,-0.9451,-0.9017,-0.9211,-1.0064,-1.1371,-1.2589,-1.3699,-1.4809,-1.5449,-1.5604,-1.6101,-1.6906,-1.7924,-1.8215,-1.8686,-1.9323,-2.0613,-2.1481,-2.1953,-2.2041,-2.1652,0.0,0.0,0.0,0.0,0.0,0.0,0.0,0.0,0.0,0.0,0.0,0.0,0.0,0.0,0.0,0.0,0.0,0.0,0.0,0.0,0.0,0.0,0.0,0.0,0.0,0.0,0.0,0.0,0.0,0.0,0.0,0.0,0.0,0.0,0.0,0.0,0.0,-1.978,-2.0493,0.0,-1.9364,-2.0379,-2.099,-2.0625,-2.1703,-2.2386,-2.2386,-2.2386,-2.2386,-2.2386,-2.2386,-2.2478,-2.2647,-2.2647,-2.2759,-2.2952,-2.3293,-2.3302,-2.3049,-2.3213,-2.2966,-2.2495,-2.3578,-2.393,-2.3837,-2.549,-2.6168,-2.6083,-2.5694,-2.537,-2.5069,-2.459,-2.4418,-2.4321,-0.6319,-0.6422,0.0,-0.6422,-0.6124,-0.5935,-0.6078,-0.6463,-0.6931,-0.7395,-0.8659,-0.9795,-1.0586,-1.1602,-1.2431,-1.2884,-1.2836,-1.2387,-1.145,-1.0695,-0.9868,-0.8922,-0.8848,-0.9197,-1.0059,-1.0939,-1.1865,-1.2905,-1.3633,-1.425,-1.478,-1.5184,-1.5986,-1.7143,-1.7501,-1.7938,-1.8482,-1.9936,-2.1105,-2.2032,-2.2584,-2.2479,-2.1955,0.0,0.0,0.0,0.0,0.0,0.0,0.0,0.0,0.0,0.0,0.0,0.0,0.0,0.0,0.0,0.0,0.0,0.0,0.0,0.0,0.0,0.0,0.0,0.0,0.0,0.0,0.0,0.0,0.0,0.0,0.0,0.0,0.0,0.0,-1.8918,-1.9947,-1.9828,-2.0389,-2.0405,-1.9377,-2.0201,-2.0644,-2.0313,-2.1159,-2.171,-2.171,-2.1441,-2.1322,-2.1322,-2.1102,-2.1078,-2.1322,-2.1322,-2.1322,-2.1346,-2.1955,-2.1959,-2.1492,-2.186,-2.1739,-2.1306,-2.2214,-2.2505,-2.2389,-2.355,-2.4173,-2.4453,-2.4744,-2.4728,-2.4493,-2.3655,-2.3246,-2.3016,-0.5257,-0.5308,-0.5308,-0.5308,-0.5286,-0.5323,-0.5461,-0.55,-0.5892,-0.6996,-0.7164,-0.7737,-0.9168,-0.9694,-1.0153,-1.0656,-1.1227,-1.0862,-0.9288,-0.9848,-0.9525,-0.7939,-0.8421,-0.8725,-0.8711,-0.9977,-1.0836,-1.1289,-1.2257,-1.2854,-1.3082,-1.428,-1.5241,-1.5995,-1.679,-1.7306,-1.767,-1.9065,-2.0346,-2.1532,-2.3466,-2.3753,-2.3059,0.0,0.0,0.0,0.0,0.0,0.0,0.0,0.0,0.0,0.0,0.0,0.0,0.0,0.0,0.0,0.0,0.0,0.0,0.0,0.0,0.0,0.0,0.0,0.0,0.0,0.0,0.0,0.0,0.0,0.0,0.0,0.0,0.0,-1.7845,-1.9132,-1.988,-1.9772,-2.03,-2.0462,-1.9788,-2.0332,-2.0696,-2.0696,-2.1232,-2.1564,-2.1564,-2.0882,-2.0512,-2.0512,-1.9813,-1.9788,-2.0512,-2.0512,-2.0512,-2.0512,-2.1226,-2.0904,-1.9703,-2.1006,-2.0886,-1.9828,-2.107,-2.1285,-2.0767,-2.1391,-2.1612,-2.1801,-2.3456,-2.3761,-2.3165,-2.2018,-2.1231,-2.0682,-0.5203,-0.5308,-0.5308,-0.5308,-0.5062,-0.4918,-0.504,-0.5237,-0.5496,-0.5906,-0.6512,-0.7069,-0.7475,-0.8042,-0.8471,-0.8611,-0.9333,-0.9435,-0.859,-0.8639,-0.8175,-0.7,-0.7116,-0.7679,-0.8685,-0.9063,-0.9739,-1.0721,-1.138,-1.1836,-1.203,-1.3091,-1.4008,-1.48,-1.5758,-1.6584,-1.7336,-1.8687,-1.9675,-2.0472,-2.2328,-2.3094,-2.3141,0.0,0.0,0.0,0.0,0.0,0.0,0.0,0.0,0.0,0.0,0.0,0.0,0.0,0.0,0.0,0.0,0.0,0.0,0.0,0.0,0.0,0.0,0.0,0.0,0.0,0.0,0.0,0.0,0.0,0.0,0.0,-1.5341,-1.6186,-1.7054,-1.7781,-1.8272,-1.8211,-1.8369,-1.8431,-1.8236,-1.8357,-1.8478,-1.8478,-1.8641,-1.8723,-1.8723,-1.8537,-1.8431,-1.8431,-1.8243,-1.8216,-1.8431,-1.8431,-1.8431,-1.8431,-1.8617,-1.8785,-1.89,-1.8782,-1.8803,-1.8942,-1.9284,-1.9359,-1.9245,-1.9858,-2.0089,-2.0188,-2.1182,-2.15,-2.1181,-1.955,-1.8354,-1.7534,-0.4492,-0.4639,-0.4669,-0.4669,-0.4524,-0.4444,-0.4595,-0.4488,-0.4497,-0.4816,-0.5054,-0.5242,-0.5405,-0.5979,-0.6364,-0.6382,-0.7133,-0.745,-0.7151,-0.7243,-0.696,-0.6163,-0.6426,-0.6848,-0.7351,-0.7655,-0.8216,-0.9048,-0.9512,-0.9994,-1.0449,-1.1804,-1.277,-1.3463,-1.4655,-1.5449,-1.6009,-1.706,-1.794,-1.8758,-2.0052,-2.1264,-2.2269,-2.2215,-2.2124,-2.1927,-2.1488,-2.1006,-2.0457,-1.9592,0.0,0.0,0.0,0.0,0.0,0.0,0.0,0.0,0.0,0.0,0.0,0.0,0.0,0.0,0.0,0.0,0.0,0.0,0.0,0.0,0.0,0.0,0.0,0.0,-1.4335,-1.4791,-1.5158,-1.6586,-1.7605,-1.7605,-1.7757,-1.7891,-1.7891,-1.7891,-1.7891,-1.7891,-1.7717,-1.7605,-1.7605,-1.7302,-1.6974,-1.6645,-1.6334,-1.6164,-1.6123,-1.6123,-1.6123,-1.6123,-1.6462,-1.6644,-1.6712,-1.6616,-1.6803,-1.7168,-1.7189,-1.7171,-1.7194,-1.7546,-1.7687,-1.7848,0.0,0.0,0.0,0.0,-1.5567,-1.4788,-0.3372,-0.35,-0.3576,-0.3576,-0.3697,-0.3812,-0.3938,-0.3409,-0.317,-0.3629,-0.3166,-0.2901,-0.3174,-0.3802,-0.423,-0.428,-0.5006,-0.5466,-0.5495,-0.5892,-0.5896,-0.5401,-0.6009,-0.6064,-0.5401,-0.6091,-0.6564,-0.6777,-0.7279,-0.7898,-0.8586,-1.0411,-1.1447,-1.1925,-1.3387,-1.4038,-1.4141,-1.4833,-1.5673,-1.6648,-1.7172,-1.8779,-2.0862,-2.113,-2.1084,-2.0814,-2.0814,-2.0567,-2.0196,-2.0162,0.0,0.0,0.0,0.0,0.0,0.0,0.0,0.0,0.0,0.0,0.0,0.0,0.0,0.0,0.0,0.0,0.0,0.0,0.0,0.0,0.0,0.0,0.0,0.0,-1.2873,-1.3009,-1.3009,-1.5284,-1.698,-1.7086,-1.7455,-1.7687,-1.7687,-1.7687,-1.7687,-1.7687,-1.734,-1.7101,-1.7086,-1.6503,0.0,0.0,0.0,-1.4028,-1.3975,-1.3975,-1.3975,-1.3987,-1.4655,-1.4549,-1.3868,-1.452,-1.4744,-1.4657,-1.4744,-1.4744,-1.4686,-1.4744,-1.4754,-1.4869,-1.7152,-1.7401,-1.621,-1.4185,-1.3042,-1.2484,-0.2246,-0.2175,-0.2186,-0.2186,-0.2309,-0.2396,-0.2416,-0.2389,-0.2206,-0.173,-0.1964,-0.1976,-0.1448,-0.2384,-0.3206,-0.3638,-0.4597,-0.5276,-0.5474,-0.5579,-0.5341,-0.4732,-0.4814,-0.4807,-0.4621,-0.5339,-0.5623,-0.5456,-0.6571,-0.7071,-0.7072,-0.8837,-0.9692,-0.9863,-1.1525,-1.2521,-1.2958,-1.3585,-1.4227,-1.4814,-1.493,-1.6877,-1.9732,-1.9789,-1.9771,-1.9715,-1.9715,-1.9662,-1.9521,-1.9203,-1.9178,-1.9067,-1.7826,-1.7089,0.0,0.0,0.0,0.0,0.0,0.0,0.0,0.0,0.0,0.0,0.0,0.0,0.0,0.0,0.0,0.0,0.0,0.0,0.0,-1.2268,-1.2695,-1.3009,-1.3009,-1.2896,-1.3104,-1.3802,-1.398,-1.4015,-1.4015,-1.4015,-1.4015,-1.4015,-1.4136,-1.4105,-1.3897,-1.3965,-1.3846,-1.3446,-1.3295,-1.3235,-1.3205,-1.3205,-1.3205,-1.3205,-1.3369,0.0,-1.2165,-1.2302,-1.1981,-1.137,-1.2073,-1.1981,-1.137,-1.2103,-1.1902,-1.1388,-1.3734,-1.3787,-1.2524,-1.2086,-1.1609,-1.1157,-0.1081,-0.144,-0.1886,-0.1886,-0.2022,-0.2097,-0.2097,-0.1543,-0.0974,-0.0611,-0.0164,0.0108,0.0106,-0.0702,-0.1495,-0.2149,-0.3374,-0.4035,-0.3847,-0.4189,-0.4085,-0.3372,-0.3345,-0.334,-0.3302,-0.3666,-0.3796,-0.364,-0.4513,-0.4894,-0.4781,-0.6745,-0.7652,-0.7712,-0.9463,-1.0408,-1.0672,-1.0981,-1.1429,-1.195,-1.195,-1.3153,-1.5103,-1.6375,-1.6857,-1.6897,-1.7236,-1.7362,-1.7389,-1.7497,-1.773,-1.7809,-1.7036,-1.6604,-1.6293,0.0,0.0,0.0,0.0,0.0,0.0,0.0,0.0,0.0,0.0,0.0,0.0,0.0,0.0,-0.9612,-0.9845,0.0,-1.0093,-1.0334,-1.0445,-1.0488,-1.0488,-1.0128,-1.0618,-1.2749,-1.2786,-1.282,-1.3273,-1.3304,-1.3304,-1.3304,-1.3375,-1.3328,-1.3227,-1.3492,-1.3171,-1.2067,-1.1983,-1.1499,-1.0605,-1.0523,-1.0488,-1.0488,-1.0488,-1.0286,-0.9863,-0.9863,-0.961,-0.9217,-0.9673,-0.961,-0.9186,-0.9162,-0.9041,-0.8877,-0.9124,-0.953,-0.9874,-0.9635,-0.9188,-0.8711,-0.0445,-0.0959,-0.161,-0.161,-0.17,-0.1785,-0.1785,-0.0641,0.0278,0.0417,0.1337,0.1824,0.1371,0.0616,-0.0133,-0.0878,-0.2123,-0.2692,-0.2227,-0.2758,-0.2813,-0.223,-0.2202,-0.2063,-0.1782,-0.2063,-0.2063,-0.1782,-0.2431,-0.2768,-0.2795,-0.4681,-0.5551,-0.5611,-0.7168,-0.7862,-0.7862,-0.7862,-0.8151,-0.859,-0.859,-0.888,-0.9552,-1.1601,-1.2853,-1.3644,-1.4339,-1.4585,-1.4673,-1.5384,-1.5668,-1.5755,-1.5625,-1.5387,-1.5173,-1.5451,-1.456,0.0,0.0,0.0,0.0,0.0,0.0,0.0,0.0,-0.9136,-0.8642,-0.8864,-0.8497,-0.8255,-0.8708,-0.8524,-0.8284,-0.8304,-0.801,-0.7681,-0.7508,-0.7316,-0.8302,-1.115,-1.1473,-1.1757,-1.247,-1.2549,-1.258,-1.2609,-1.254,-1.249,-1.2415,-1.2731,-1.2207,-1.0604,-1.0459,-0.9689,-0.8199,-0.8085,-0.804,-0.7989,-0.7989,-0.7892,-0.773,-0.773,-0.7567,-0.72,-0.7037,-0.7061,-0.7158,-0.6221,-0.6125,-0.6381,-0.4908,-0.5498,-0.7123,-0.716,-0.6843,-0.6416,-0.1111,-0.0558,-0.0223,-0.0223,-0.0224,-0.0252,-0.0252,0.0447,0.12,0.1868,0.1534,0.1451,0.2026,0.0833,-0.0278,-0.1023,-0.1728,-0.2155,-0.2199,-0.2286,-0.2286,-0.2202,-0.2202,-0.1587,-0.0278,-0.1532,-0.156,-0.025,-0.1608,-0.2272,-0.2299,-0.3189,-0.3621,-0.3648,-0.449,-0.4877,-0.4877,-0.4877,-0.4923,-0.4969,-0.4969,-0.5023,-0.5115,-0.5393,-0.7756,-1.1019,-1.1742,-1.2001,-1.2139,-1.2878,-1.34,-1.3727,-1.3255,-1.3398,-1.3695,-1.3495,-1.2928,-1.2399,-1.2564,-1.1898,-1.1077,-1.0894,-1.0183,-0.9606,0.0,-0.9113,-0.8478,-0.8613,-0.8573,-0.8604,-0.8785,-0.8649,-0.8269,-0.7408,-0.7061,-0.662,-0.5718,-0.4946,-0.4865,-0.6011,-0.7529,-0.8549,-0.8763,-0.8795,-0.8837,-0.897,-0.9207,-0.9193,-0.8957,-0.9239,-0.9164,-0.8719,-0.8688,-0.8517,-0.8199,-0.8169,-0.8126,-0.7989,-0.7989,-0.76,-0.685,-0.685,-0.5957,-0.4411,-0.3642,-0.3732,-0.4383,-0.35,-0.3091,-0.3047,-0.2844,-0.2818,-0.311,-0.504,-0.5693,-0.5729,-0.1226,-0.0504,0.0,0.0,0.0,0.0,0.0,0.0616,0.1202,0.1506,0.1673,0.1704,0.1564,0.1006,0.0535,0.0316,0.0057,0.0085,0.0515,0.0086,0.0,0.0334,0.0362,0.064,0.1281,0.0668,0.0668,0.1281,0.0766,0.0544,0.0515,-0.0257,-0.0574,-0.0497,-0.1427,-0.1804,-0.1722,-0.1802,-0.1807,-0.1725,-0.1725,-0.1688,-0.166,-0.2161,-0.3433,-0.525,-0.7745,-0.8911,0.0,-1.0138,-1.0772,-1.1193,-1.0565,-1.0797,-1.1237,-1.0973,-1.0952,-1.1032,-1.0967,-1.0151,-0.9285,-0.9265,-0.8952,-0.8514,-0.8079,-0.7316,-0.6568,-0.6117,-0.5701,-0.542,-0.5456,-0.5383,-0.514,-0.4734,-0.4512,-0.4272,-0.3833,-0.3489,-0.3367,-0.3756,-0.4451,-0.5332,-0.6399,-0.6509,-0.6547,-0.6608,-0.6853,-0.6952,-0.6845,-0.7114,-0.6954,-0.6226,-0.6105,-0.5777,-0.5115,-0.5035,-0.4959,-0.4923,-0.4923,-0.4725,-0.4367,-0.4367,-0.3974,-0.3213,-0.2846,-0.2909,-0.3172,-0.2275,-0.2161,-0.2497,-0.1457,-0.131,-0.1818,-0.3101,-0.3591,-0.3609,-0.1257,-0.0504,0.0,0.0,0.0,0.0,0.0,0.0616,0.109,0.109,0.1564,0.1704,0.1146,0.109,0.1246,0.1609,0.1638,0.1907,0.2524,0.2248,0.2248,0.2687,0.2939,0.3138,0.3365,0.3166,0.3166,0.3365,0.33,0.3279,0.325,0.2683,0.2472,0.2582,0.1821,0.1519,0.1609,0.1515,0.1519,0.1611,0.1611,0.1665,0.1668,0.0791,0.0152,-0.0755,-0.46,-0.632,-0.6863,-0.7875,-0.8501,-0.875,-0.8279,-0.8462,-0.883,-0.8769,-0.9169,-0.9548,-0.9351,-0.8481,-0.7632,-0.7723,-0.7339,-0.6788,-0.6181,-0.5412,-0.4653,-0.3963,-0.3228,-0.2731,-0.2955,-0.2747,-0.2527,-0.2462,-0.244,-0.2208,-0.1682,-0.1587,-0.1609,-0.1589,-0.1583,-0.2202,-0.3696,-0.4337,-0.4667,-0.4681,-0.4879,-0.4966,-0.4966,-0.5202,-0.4986,-0.423,-0.4085,-0.3672,-0.2898,-0.2788,-0.275,-0.271,-0.2686,-0.2709,-0.2676,-0.2172,-0.1939,-0.1939,-0.1436,-0.1202,-0.1169,-0.0468,-0.0602,-0.1067,0.023,0.0358,-0.0258,-0.0674,-0.1306,-0.1928,-0.1257,-0.0504,0.0,0.0,0.0,0.0,0.0,0.0616,0.109,0.109,0.1118,0.1118,0.109,0.109,0.1473,0.2397,0.2463,0.2524,0.2696,0.3448,0.3917,0.3947,0.4747,0.5553,0.6262,0.559,0.5553,0.6262,0.556,0.5232,0.5232,0.5195,0.5172,0.5172,0.5165,0.5128,0.5135,0.5128,0.5128,0.5135,0.5135,0.5135,0.5053,0.4189,0.2851,0.0876,-0.3269,-0.465,-0.4754,-0.6398,-0.6842,-0.6696,-0.6669,-0.6669,-0.6778,-0.7235,-0.7706,-0.8055,-0.8044,-0.7376,-0.6719,-0.7033,-0.5719,-0.4389,-0.4608,-0.3898,-0.3132,-0.298,-0.2264,-0.1881,-0.2586,-0.2138,-0.157,-0.1389,-0.1514,-0.098,0.0906,0.1179,0.1184,0.1182,0.1186,0.082,-0.0075,-0.1882,-0.3037,-0.3147,-0.3157,-0.3196,-0.3196,-0.32,-0.3161,-0.3161,-0.3157,-0.3046,-0.2904,-0.2901,-0.2827,-0.2715,-0.2713,-0.2709,-0.2643,-0.0868,-0.0067,0.0,0.1772,0.2542,0.2542,0.2576,0.2576,0.2542,0.2609,0.2606,0.2566,0.2555,0.0986,-0.1233,-0.1868,-0.0838,0.0,0.0,0.0,0.0168,0.0644,0.0532,0.0364,0.0364,0.0884,0.0,0.0,0.0,0.0,0.0,0.4339,0.4986,0.5005,0.5914,0.6419,0.6327,0.7121,0.7669,0.7914,0.8259,0.8537,0.8722,0.8616,0.855,0.855,0.8805,0.8857,0.8684,0.8771,0.8717,0.8539,0.8451,0.8795,0.9324,0.8403,0.8023,0.774,0.5233,0.3152,0.1127,0.0,-0.3511,-0.3856,-0.5049,-0.5623,-0.5792,-0.5336,-0.5612,-0.6151,-0.6575,-0.599,-0.5364,-0.6017,-0.512,-0.4036,-0.4138,-0.3238,-0.2164,-0.1674,-0.0822,0.0,0.0678,0.1115,0.1322,0.1072,0.0741,0.0533,0.0605,-0.0037,-0.0297,0.0328,0.043,0.0427,0.0431,0.0438,0.0334,0.0038,-0.0605,-0.0993,-0.1056,-0.1057,-0.1057,-0.1057,-0.1057,-0.1057,-0.1057,-0.1041,-0.102,-0.0958,-0.0971,-0.0946,-0.0886,-0.0337,-0.0033,0.0,0.1237,0.1805,0.1839,0.2442,0.2709,0.2709,0.2709,0.2709,0.2709,0.2709,0.2709,0.2706,0.2715,0.2156,0.1395,-0.1813,-0.0838,0.0084,0.0336,0.0392,0.0,0.0,0.0,0.0,0.0,0.0,0.0,0.0,0.0,0.0,0.0,0.0,0.6241,0.6645,0.7838,0.8535,0.8558,0.9645,1.0255,1.0255,1.0799,1.1107,1.1211,1.1345,1.1508,1.1658,1.1929,1.1955,1.1797,1.1903,1.1828,1.1674,1.1571,1.1703,1.1876,1.0621,0.966,0.8689,0.5475,0.3081,0.0,-0.1776,-0.3091,-0.3686,-0.4562,-0.5034,-0.521,-0.4769,-0.4838,-0.5134,-0.5404,-0.4478,-0.3461,-0.3779,-0.2832,-0.1672,-0.1336,-0.0567,0.0367,0.1231,0.1944,0.2565,0.3115,0.3338,0.3234,0.2572,0.1929,0.1389,0.1074,0.0457,0.0113,0.0407,0.0476,0.0475,0.0479,0.0449,0.0342,0.0038,0.0,0.0154,0.0549,0.0235,0.0157,0.0549,0.0196,0.0,0.0,0.0,0.0,0.0,0.0,0.0142,0.0478,0.1381,0.1808,0.1841,0.2743,0.318,0.318,0.3513,0.368,0.368,0.368,0.368,0.368,0.368,0.368,0.368,0.368,0.3671,0.3568,-0.109,-0.0504,0.0224,0.0,0.0,0.0,0.0,0.0,0.0,0.0,0.0,0.0,0.0,0.0,0.0,0.0,0.0,0.0,0.7501,0.9157,1.0228,1.0573,1.2181,1.307,1.307,1.31,1.3328,1.3693,1.371,1.3975,1.4377,1.446,1.4427,1.4345,1.4362,1.4329,1.4279,1.4279,1.3751,1.2845,1.1689,1.0053,0.7997,0.5009,0.2649,0.0572,-0.2065,-0.3457,-0.4179,-0.4868,-0.5015,-0.4901,-0.487,-0.436,-0.3781,-0.369,-0.3144,-0.2376,-0.1436,-0.0534,0.0334,0.1236,0.2139,0.3072,0.3926,0.4344,0.4499,0.4367,0.4393,0.3858,0.2063,0.1551,0.1108,0.0235,0.0077,0.0342,0.1137,0.1224,0.1216,0.1246,0.1248,0.0917,0.0078,0.0039,0.051,0.1607,0.0667,0.0549,0.1607,0.0706,0.0157,0.0157,0.0157,0.0157,0.0156,0.0153,0.055,0.1394,0.2304,0.2776,0.2809,0.368,0.4079,0.4118,0.5027,0.5392,0.5392,0.5392,0.5392,0.5392,0.5392,0.5392,0.5392,0.5458,0.5458,0.5239,0.0,0.0,0.0,0.0,0.0,0.0,0.0,0.0,0.0,0.0,0.0,0.0,0.0,0.0,0.0,0.0,0.0,0.0,0.8697,1.0158,1.1242,1.1885,1.3173,1.3885,1.3885,1.4481,1.4832,1.4926,1.5275,1.5513,1.5656,1.6298,1.6053,1.508,1.5362,1.493,1.3983,1.3983,1.3789,1.3238,1.115,0.9052,0.6753,0.3413,0.0479,-0.2063,-0.357,-0.4637,-0.5329,-0.5319,-0.5203,-0.4948,-0.4282,-0.3951,-0.3567,-0.2294,-0.1327,-0.0502,0.04,0.1301,0.2236,0.3098,0.3992,0.4857,0.5723,0.6104,0.6241,0.6207,0.5295,0.4328,0.3834,0.3221,0.2431,0.1367,0.128,0.1115,0.0439,0.0313,0.0347,0.035,0.035,0.0234,0.0039,0.0706,0.1605,0.2657,0.1761,0.1644,0.2657,0.2462,0.2306,0.2306,0.2307,0.2266,0.2149,0.2052,0.2128,0.2369,0.3255,0.368,0.3713,0.4622,0.506,0.5054,0.5292,0.5392,0.5392,0.5392,0.5392,0.5392,0.5392,0.5392,0.5491,0.6137,0.6367,0.6392,0.0,0.0,0.0,0.0,0.0,0.0,0.0,0.0,0.0,0.0,0.0,0.0,0.0,0.0,0.0,0.0,0.0,0.0,0.0,1.1004,1.2118,1.2636,1.3998,1.4569,1.4213,1.4784,1.475,1.403,1.4466,1.4484,1.4181,1.4674,1.4496,1.3737,1.3964,1.3648,1.2925,1.301,1.2443,0.0,0.0,0.7397,0.4825,0.1946,-0.0494,-0.2474,-0.3458,-0.4127,-0.451,-0.4292,-0.4432,-0.454,-0.3623,-0.2776,-0.1939,-0.1001,0.0167,0.1371,0.2236,0.3139,0.4069,0.4949,0.5844,0.6702,0.7571,0.7722,0.7501,0.6973,0.562,0.4422,0.3975,0.3195,0.2591,0.2432,0.2044,0.1564,0.0865,0.0323,0.0,0.0,0.0434,0.0706,0.0706,0.1644,0.2696,0.3709,0.2852,0.2685,0.3653,0.3337,0.3056,0.2917,0.2986,0.2945,0.2795,0.3132,0.3474,0.3837,0.4761,0.5397,0.576,0.6301,0.6531,0.6531,0.6531,0.6531,0.6531,0.6531,0.6531,0.6531,0.6531,0.6531,0.6597,0.7079,0.7274,0.734,0.0,0.0,0.0,0.0,0.0,0.0,0.0,0.0,0.0,0.3871,0.4349,0.464,0.4748,0.4884,0.0,0.0,0.0,0.0,0.0,0.0,1.2583,1.2896,1.4189,1.458,1.3897,1.3921,1.3263,1.1873,1.2098,1.1897,1.1249,1.1323,1.127,1.1182,1.1182,1.108,1.0992,1.1079,1.0054,0.8259,0.7364,0.5252,0.2485,0.0,-0.0859,-0.1914,-0.2673,-0.2841,-0.2681,-0.2436,-0.2997,-0.3632,-0.2636,-0.1165,0.0245,0.0474,0.1741,0.3243,0.4118,0.5008,0.5876,0.6833,0.7623,0.8355,0.9142,0.894,0.8202,0.692,0.547,0.4153,0.3278,0.2511,0.2311,0.3251,0.2728,0.2181,0.2062,0.1158,0.0449,0.0447,0.1276,0.1848,0.1803,0.2735,0.3709,0.4647,0.3982,0.387,0.4693,0.3977,0.3404,0.314,0.3343,0.3405,0.3247,0.4107,0.4906,0.5685,0.6514,0.7302,0.7989,0.8019,0.8019,0.7989,0.7989,0.7989,0.7989,0.7989,0.7989,0.7989,0.7989,0.7989,0.8032,0.8129,0.8161,0.8194,0.0,0.0,0.0,0.0,0.0,0.0,0.0,0.0,0.1386,0.1663,0.3022,0.4247,0.4946,0.5189,0.0,0.0,0.0,0.0,0.0,0.0,0.0,1.2475,1.2404,1.2272,1.215,1.0781,0.9926,0.9674,0.9338,0.9105,0.8974,0.9309,0.9049,0.8304,0.8304,0.7884,0.7162,0.7196,0.6474,0.5248,0.4269,0.255,0.0389,-0.086,0.0,0.0,-0.2992,-0.2518,-0.17,-0.077,-0.1062,-0.1632,-0.0617,0.0461,0.1601,0.3048,0.4141,0.5048,0.599,0.6865,0.7755,0.8635,0.8979,0.9133,0.9394,0.8946,0.7948,0.6324,0.4574,0.3313,0.3122,0.3067,0.3136,0.3364,0.4047,0.4252,0.3392,0.3128,0.2896,0.2759,0.2946,0.3034,0.2856,0.3787,0.4491,0.4686,0.5356,0.5815,0.5989,0.5854,0.5631,0.5433,0.6026,0.6321,0.6184,0.6923,0.7386,0.7517,0.7926,0.8072,0.7999,0.8215,0.8195,0.7989,0.7989,0.7989,0.7989,0.7989,0.7989,0.7989,0.7989,0.7989,0.8096,0.8807,0.9075,0.9172,0.0,0.0,0.0,0.0,0.0,0.0,0.0,-0.0832,-0.0307,0.0512,0.1379,0.2571,0.425,0.457,0.5153,0.0,0.0,0.0,0.0,0.0,0.0,1.0023,1.0239,0.9906,0.9017,0.8324,0.721,0.5732,0.0,0.5312,0.4719,0.4913,0.5029,0.5033,0.5033,0.4807,0.4391,0.4456,0.387,0.2835,0.2467,0.1374,0.0,0.0039,0.0,0.0,0.0156,0.051,0.1069,0.1486,0.17,0.1792,0.1736,0.235,0.3362,0.454,0.5467,0.6321,0.7153,0.8001,0.8784,0.9204,0.9632,0.9886,0.9573,0.8933,0.7744,0.5427,0.4404,0.3748,0.32,0.3663,0.4344,0.4925,0.5069,0.4912,0.445,0.3949,0.3567,0.3486,0.3903,0.4152,0.4064,0.4956,0.555,0.555,0.6022,0.6265,0.6146,0.6426,0.6622,0.6666,0.7251,0.7604,0.7681,0.7904,0.8226,0.8678,0.8799,0.9049,0.9364,0.9483,0.9471,0.9352,0.9352,0.9352,0.9352,0.9352,0.9352,0.9352,0.9352,0.9352,0.9416,0.9811,0.9983,1.0047,0.0,0.0,0.0,0.0,0.0,0.0,-0.2202,-0.2063,-0.152,-0.0231,0.0058,0.0947,0.3031,0.354,0.4279,0.0,0.0,0.0,0.0,0.0,0.0,0.0,0.7751,0.7286,0.5714,0.0,0.0,0.1701,0.1772,0.0,0.0,0.0,0.0,0.0,0.1536,0.1536,0.1538,0.1642,0.1339,0.0,0.0,0.0575,0.0119,0.0,0.0,0.0,0.0,0.344,0.3714,0.3525,0.4194,0.488,0.4055,0.4274,0.4952,0.57,0.6519,0.7351,0.8156,0.8958,0.9588,0.9588,1.0149,1.0425,0.9488,0.8869,0.7691,0.4875,0.45,0.4453,0.3593,0.4223,0.5272,0.6351,0.5943,0.5508,0.56,0.4894,0.4359,0.4359,0.4902,0.5289,0.5267,0.5871,0.63,0.63,0.63,0.6322,0.6378,0.7029,0.7513,0.7691,0.8175,0.8491,0.8695,0.8592,0.8903,0.9568,0.9649,1.0002,1.06,1.0653,1.0653,1.0586,1.0586,1.0586,1.0586,1.0586,1.0586,1.0586,1.0586,1.0586,1.0586,1.0586,1.0586,1.0586,0.0,0.0,0.0,0.0,0.0,0.0,-0.2202,-0.1618,-0.1147,-0.1009,-0.0404,0.0417,0.1411,0.2309,0.2893,0.0,0.0,0.0,0.0,0.0,0.0,0.0,0.0,0.0,0.0,0.0,0.0,-0.1209,-0.1978,0.0,0.0,0.0,0.0,0.0,0.0,-0.2206,-0.2209,-0.2181,0.0,0.0,0.0,0.0,0.0,0.0,0.0,0.0,0.0,0.4071,0.4773,0.4723,0.5371,0.6145,0.6022,0.593,0.6067,0.7029,0.7681,0.83,0.9287,0.9998,1.046,1.046,1.0723,1.0512,0.888,0.8648,0.7978,0.5216,0.4681,0.4686,0.4569,0.4743,0.53,0.649,0.669,0.6847,0.7156,0.6936,0.6763,0.6763,0.6646,0.6504,0.6364,0.6303,0.63,0.63,0.63,0.6672,0.7609,0.8552,0.9045,0.8937,0.946,0.9673,0.9589,1.0109,1.0396,1.0473,1.0724,1.0744,1.06,1.0835,1.0841,1.0586,1.0586,1.0586,1.0586,1.0586,1.0586,1.0586,1.0586,1.0586,1.0586,1.0586,1.0586,1.0586,0.0,0.0,0.0,0.0,0.0,0.0,-0.1527,-0.0915,-0.0444,-0.0446,-0.0169,0.0144,0.0478,0.0862,0.1499,0.2599,0.0,0.0,0.0,0.0,0.0,0.0,0.0,0.0,0.0,0.0,-0.2315,-0.3347,-0.371,0.0,0.0,0.0,0.0,0.0,0.0,-0.2709,-0.2709,-0.2709,0.0,0.0,0.0,0.0,0.0,0.0,0.0,0.0,0.0,0.0,0.5857,0.5777,0.5989,0.63,0.63,0.6674,0.7237,0.8033,0.8862,0.9649,1.0309,1.0673,1.0854,1.0854,1.0902,1.0602,0.9019,0.8732,0.8041,0.5375,0.5291,0.552,0.5025,0.5439,0.6034,0.6592,0.6831,0.6923,0.7088,0.7204,0.7244,0.7105,0.6991,0.6871,0.6634,0.6518,0.6624,0.7142,0.7787,0.8533,0.9545,0.9234,0.9197,0.969,1.0281,1.0522,1.0487,1.0573,1.0586,1.0586,1.0707,1.0707,1.06,1.0894,1.0835,1.06,1.0774,1.076,1.0586,1.0586,1.0586,1.0586,1.0586,1.0586,1.0586,1.0586,1.0586,1.0586,0.0,0.0,0.0,0.0,0.0,-0.0444,-0.0444,0.0166,0.0584,0.0367,0.0339,0.023,0.003,0.0,0.0512,0.179,0.1886,0.0,0.0,0.0,0.0,0.0,0.0,0.0,0.0,0.0,-0.4349,-0.5376,-0.5376,-0.5231,0.0,0.0,-0.4342,-0.3736,0.0,0.0,0.0,0.0,0.0,0.0,0.0,0.0,0.0,0.0,0.0,0.0,0.0,0.0,0.0,0.0,0.0,0.6354,0.6313,0.7211,0.8324,0.8802,0.9619,1.0539,1.1118,1.1417,1.1548,1.1548,1.1617,1.1261,0.9611,0.9112,0.8316,0.586,0.5946,0.6251,0.57,0.6147,0.6641,0.6749,0.6932,0.7075,0.7122,0.7305,0.7414,0.7301,0.7179,0.7018,0.6851,0.6893,0.7194,0.7757,0.8732,0.9744,1.0746,0.9907,0.9804,1.0727,1.0976,1.1116,1.1116,1.0774,1.0586,1.0586,1.0586,1.0586,1.06,1.0894,1.0921,1.0734,1.0935,1.0875,1.072,1.072,1.0667,1.06,1.068,1.0667,1.0586,1.0586,1.0586,1.0586,0.0,0.0,0.0,0.0,0.0,0.109,0.109,0.1701,0.1919,0.1198,0.1086,0.0812,0.0064,0.0,0.0,0.0035,0.0034,0.0,0.0,0.0,0.0,0.0,0.0,0.0,0.0,0.0,-0.6453,-0.7454,-0.7454,-0.6945,-0.5986,-0.5838,-0.5764,-0.5757,0.0,0.0,0.0,0.0,0.0,0.0,0.0,0.0,0.0203,0.0,0.0,0.0,0.0,0.0,0.0,0.0,0.0,0.0,0.0,0.7672,0.9301,0.9291,0.9834,1.0623,1.1601,1.2366,1.2867,1.2867,1.3089,1.274,1.0742,0.9863,0.8899,0.6904,0.6593,0.6695,0.6702,0.6782,0.6883,0.6883,0.7177,0.7421,0.757,0.7597,0.7651,0.7787,0.7361,0.7092,0.7092,0.7635,0.7934,0.7795,0.8732,0.9744,1.0746,1.0783,1.123,1.2254,1.1695,1.1389,1.1389,1.0881,1.0586,1.0586,1.0586,1.0586,1.06,1.0959,1.1061,1.0995,1.0995,1.0995,1.0995,1.0995,1.0854,1.0626,1.0875,1.0841,1.0586,1.0586,1.0586,1.0586,0.0,0.0,0.0,0.0,0.0,0.0,0.1785,0.2063,0.2116,0.1867,0.1409,0.0806,0.0094,0.0,-0.0295,-0.1017,-0.1099,0.0,0.0,0.0,0.0,0.0,0.0,0.0,0.0,-0.719,-0.7695,-0.812,-0.752,-0.7118,-0.6863,-0.6158,-0.5861,-0.5912,-0.58,-0.5732,0.0,0.0,0.0,0.0,-0.4444,-0.3489,-0.2121,0.0,0.0,0.0,0.0,0.0,0.0,0.0,0.0,0.0,0.0,0.0,0.0,0.8275,0.9916,1.1741,1.1846,1.2536,1.3179,1.3179,1.3254,1.2833,1.0997,0.9938,0.8825,0.7027,0.658,0.6634,0.6903,0.6916,0.6993,0.7197,0.7312,0.7421,0.7577,0.7685,0.7685,0.7529,0.7115,0.7091,0.78,0.7837,0.8415,0.9744,1.0147,1.0757,1.1774,1.1848,1.1868,1.2011,1.1623,1.1295,1.1129,1.0787,1.0586,1.0586,1.0586,1.0734,1.0955,1.1035,1.1173,1.1304,1.1522,1.1476,1.1255,1.1255,1.1236,1.1142,1.1035,1.0942,1.0868,1.0667,1.0586,1.0586,0.0,0.0,0.0,0.0,0.0,0.0,0.1701,0.2007,0.1985,0.1362,0.0895,0.0182,-0.0888,-0.1078,-0.1378,-0.2035,-0.2515,0.0,0.0,0.0,0.0,0.0,0.0,0.0,-0.6941,-0.756,-0.7894,-0.7981,-0.7503,-0.709,-0.6789,-0.6185,-0.5969,-0.6112,-0.5956,-0.5888,0.0,0.0,0.0,0.0,-0.5574,-0.4952,-0.3844,0.0,0.0,0.0,0.0,0.0,0.0,0.0,0.0,0.0,0.0,0.0,0.0,0.0,0.9082,1.1205,1.1447,1.2442,1.3439,1.3439,1.3176,1.2406,1.0506,0.9102,0.7673,0.5806,0.5416,0.5477,0.5747,0.6092,0.6405,0.6622,0.7106,0.7489,0.7584,0.7719,0.7842,0.8033,0.7672,0.7819,0.8746,0.8957,0.9486,1.072,1.1168,1.1663,1.2268,1.2305,1.2225,1.2074,1.1744,1.145,1.1156,1.0783,1.0597,1.0586,1.0816,1.0959,1.1056,1.1402,1.158,1.1616,1.1802,1.177,0.0,1.1964,1.2067,1.1989,1.2275,1.2035,1.1512,1.1329,1.0998,1.0586,0.0,0.0,0.0,0.0,0.0,0.0,0.0,0.1562,0.1427,-0.0091,-0.0337,-0.0972,-0.2526,-0.2816,-0.2928,-0.3006,-0.4045,0.0,0.0,0.0,0.0,0.0,0.0,0.0,-0.7069,-0.7267,-0.7389,-0.7389,-0.7445,-0.6987,-0.6084,-0.6003,-0.6084,-0.6279,-0.6091,-0.6,0.0,0.0,0.0,0.0,-0.681,-0.6164,0.0,0.0,0.0,0.0,0.0,0.0,0.0,0.0,0.0,0.0,0.0,0.0,0.0,0.0,0.0,0.0,0.0,1.1797,1.3361,1.3361,1.2554,1.1242,0.9241,0.7342,0.0,0.3579,0.3323,0.3483,0.3561,0.4514,0.5319,0.5379,0.6569,0.749,0.7597,0.7692,0.8077,0.8947,0.8813,0.9024,0.9877,1.0583,1.0965,1.0919,1.1774,1.2305,1.2305,1.2305,1.2305,1.2305,1.2037,1.1757,1.1429,1.0882,1.0607,1.0653,1.1163,1.128,1.1109,1.1929,1.2153,1.194,1.194,1.194,1.2011,1.2953,1.3194,1.3074,1.4223,1.3814,1.2575,1.2497,1.1774,1.0803,0.0,0.0,0.0,0.0,0.0,0.0,0.0,0.0,0.0,0.0,-0.1564,-0.2136,-0.2662,-0.2816,-0.3244,0.0,0.0,0.0,0.0,0.0,0.0,0.0,0.0,0.0,-0.7082,-0.7786,-0.8157,-0.8157,-0.739,-0.6968,-0.6821,-0.6058,-0.5833,-0.6084,-0.6006,-0.6098,0.0,0.0,0.0,0.0,-0.6851,-0.6642,0.0,0.0,0.0,0.0,-0.4059,-0.3405,0.0,0.0,0.0,0.0,0.0,0.0,0.0,0.0,0.4183,0.4619,0.4838,0.0,1.0199,1.0199,0.882,0.7125,0.0,0.4056,0.2554,0.2231,0.2179,0.2527,0.3438,0.3834,0.4373,0.5393,0.5866,0.6438,0.7443,0.7428,0.7624,0.8689,0.8405,0.8845,1.0572,1.0801,1.1154,1.1885,1.2157,1.2305,1.2305,1.2305,1.2305,1.2305,1.2238,1.2064,1.1806,1.0987,1.0737,1.0994,1.1255,1.1613,1.1984,1.2205,1.2276,1.2198,1.2198,1.2198,1.2271,1.3237,1.3588,1.3605,1.4383,1.4477,1.4095,1.3526,1.3139,1.2838,0.0,0.0,0.0,0.0,0.0,0.0,0.0,0.0,0.0,0.0,-0.2822,-0.3299,-0.3893,-0.4534,-0.495,0.0,0.0,0.0,0.0,0.0,0.0,0.0,0.0,-0.6516,-0.6516,-0.7009,-0.726,-0.7212,-0.6742,-0.65,-0.6472,-0.6008,-0.5874,-0.5993,-0.6105,-0.6179,0.0,0.0,-0.6627,-0.6715,-0.6822,0.0,0.0,0.0,0.0,0.0,-0.5302,-0.4882,0.0,-0.4399,-0.3755,-0.2838,0.0,0.0,0.0,0.0,0.1278,0.1659,0.1659,0.3887,0.6197,0.6197,0.5002,0.358,0.2551,0.1158,0.0117,0.0207,0.0251,0.0595,0.1756,0.2388,0.3015,0.3726,0.4839,0.6058,0.7343,0.7292,0.768,0.9189,0.8982,0.9536,1.1607,1.1627,1.17,1.2268,1.2305,1.2305,1.2305,1.2305,1.2305,1.2305,1.2305,1.2158,1.1913,1.1439,1.1212,1.1238,1.1478,1.1791,1.2118,1.2254,1.2317,1.2305,1.2305,1.2305,1.2378,1.3317,1.3954,1.4478,1.5254,1.5376,1.5012,1.4614,1.3981,1.3242,0.0,0.0,0.0,0.0,0.0,0.0,0.0,0.0,0.0,0.0,0.0,0.0,0.0,0.0,0.0,0.0,0.0,0.0,0.0,0.0,0.0,0.0,-0.6082,-0.6006,-0.5833,-0.5983,-0.5989,-0.5833,-0.5942,-0.5928,-0.58,-0.5888,-0.5912,-0.5966,-0.6218,-0.63,-0.632,-0.6573,-0.6702,-0.6715,-0.6849,0.0,0.0,0.0,0.0,0.0,0.0,0.0,0.0,-0.5723,-0.5245,-0.4558,-0.4655,0.0,0.0,0.0,0.0,0.0,-0.074,0.0275,0.1461,0.197,0.1226,0.0119,-0.084,-0.1702,-0.226,-0.1918,-0.1854,-0.1495,-0.0224,0.0856,0.1575,0.1754,0.3908,0.6008,0.7196,0.7204,0.7824,0.9885,0.9747,1.0334,1.2527,1.2489,1.2305,1.2305,1.2305,1.2305,1.2305,1.2305,1.2305,1.2305,1.2305,1.2184,1.198,1.1926,1.177,1.1522,1.177,1.1926,1.198,1.2184,1.2305,1.2305,1.2305,1.2305,1.2378,1.3317,1.4207,1.5048,1.6,1.5992,1.545,1.5364,1.4441,1.3116,0.0,0.0,0.0,0.0,0.0,0.0,0.0,0.0,0.0,0.0,0.0,0.0,0.0,0.0,0.0,0.0,0.0,0.0,0.0,0.0,0.0,-0.6265,-0.7034,-0.7025,-0.5996,-0.6146,-0.6146,-0.5959,-0.5888,-0.5827,-0.5793,-0.5603,-0.5596,-0.5847,-0.617,-0.63,-0.632,-0.6573,-0.6702,-0.6722,-0.6957,0.0,0.0,0.0,0.0,0.0,0.0,0.0,0.0,-0.4587,-0.4811,-0.4665,-0.4681,0.0,0.0,0.0,0.0,0.0,-0.4117,-0.4687,-0.4567,-0.1773,-0.2532,-0.4012,-0.4294,-0.5097,-0.5254,-0.3415,-0.3059,-0.2403,-0.0365,0.0138,0.0598,0.1655,0.3852,0.583,0.6999,0.7011,0.7615,0.9538,0.9617,1.028,1.2199,1.2331,1.2305,1.2305,1.2305,1.2305,1.2305,1.2305,1.2305,1.2305,1.2305,1.2278,1.2238,1.2033,1.2007,1.2158,1.1971,1.2033,1.2238,1.2278,1.2305,1.2305,1.2305,1.2305,1.2378,1.3317,1.3774,1.4027,1.5029,1.5335,1.5201,1.478,1.4495,1.4079,0.0,0.0,0.0,0.0,0.0,0.0,0.0,0.0,0.0,0.0,0.0,0.0,0.0,0.0,0.0,0.0,0.0,0.0,0.0,0.0,-0.7096,-0.7096,-0.7557,-0.7239,-0.603,-0.5639,-0.5339,-0.5177,-0.4608,-0.4547,-0.4936,-0.541,-0.5794,-0.6095,-0.6238,-0.634,-0.6429,-0.6607,-0.6749,-0.6831,0.0,0.0,0.0,0.0,0.0,0.0,0.0,0.0,0.0,0.0,-0.453,-0.4562,-0.5325,0.0,0.0,0.0,0.0,0.0,-0.392,-0.4403,-0.455,-0.3011,-0.432,-0.5978,-0.6081,-0.5865,-0.5204,-0.3656,-0.2814,-0.1881,-0.0317,0.0,0.06,0.2488,0.4254,0.5802,0.6959,0.7368,0.8139,0.9512,0.9998,1.0761,1.217,1.2305,1.2305,1.2305,1.2305,1.2305,1.2305,1.2305,1.2305,1.2305,1.2305,1.2305,1.2305,1.2171,1.2171,1.2305,1.2171,1.2171,1.2305,1.2305,1.2305,1.2305,1.2305,1.2305,1.2342,1.2769,1.3244,1.3738,1.4207,1.458,1.4755,1.4326,1.3892,1.339,0.0,0.0,0.0,0.0,0.0,0.0,0.0,0.0,0.0,0.0,0.0,0.0,0.0,0.0,0.0,0.0,0.0,0.0,0.0,-0.7474,-0.7482,-0.7442,-0.7242,-0.6652,-0.568,-0.5038,-0.4514,-0.4116,-0.3573,-0.3837,-0.4855,-0.593,-0.6639,-0.6965,-0.6742,-0.6727,-0.6838,-0.6757,-0.679,-0.6876,0.0,0.0,0.0,0.0,0.0,0.0,0.0,0.0,0.0,0.0,0.0,0.0,0.0,0.0,0.0,-0.4284,-0.3742,-0.3102,-0.3119,-0.3261,-0.3413,-0.3388,-0.492,-0.6465,-0.6529,-0.5681,-0.4643,-0.3642,-0.2488,-0.123,0.0179,0.0636,0.156,0.368,0.4795,0.5802,0.6959,0.7758,0.8626,0.9593,1.0373,1.1228,1.2194,1.2305,1.2305,1.2305,1.2305,1.2305,1.2305,1.2305,1.2305,1.2305,1.2305,1.2305,1.2305,1.2305,1.2305,1.2305,1.2305,1.2305,1.2305,1.2305,1.2305,1.2305,1.2305,1.2305,1.2305,1.2305,1.2732,1.339,1.339,1.3624,1.3948,1.3629,1.3082,1.2482,0.0,0.0,0.0,0.0,0.0,0.0,0.0,0.0,0.0,0.0,0.0,0.0,0.0,0.0,0.0,0.0,0.0,0.0,0.0,-0.6541,-0.6555,-0.6423,-0.5586,-0.4963,-0.4623,-0.4648,-0.4147,-0.3021,-0.3628,-0.4887,-0.6736,-0.7872,-0.8577,-0.8851,-0.8043,-0.7763,-0.7819,-0.7037,-0.679,-0.681,-0.5873,0.0,0.0,0.0,0.0,0.0,0.0,0.0,0.0,0.0,0.0,0.0,0.0,0.0,-0.3194,-0.3198,-0.3157,-0.3116,-0.3263,-0.3342,-0.3428,-0.3544,-0.4318,-0.5136,-0.5434,-0.518,-0.4662,-0.3754,-0.263,-0.1072,0.1253,0.2596,0.3782,0.505,0.534,0.5802,0.6959,0.7857,0.869,0.9613,1.0448,1.1321,1.2207,1.2305,1.2305,1.2305,1.2305,1.2305,1.2305,1.2305,1.2305,1.2305,1.2305,1.2305,1.2305,1.2305,1.2305,1.2305,1.2305,1.2305,1.2305,1.2305,1.2305,1.2305,1.2305,1.2305,1.2305,1.2305,1.2342,1.2415,1.2415,1.2425,1.2448,1.2421,1.2209,1.1943,0.0,0.0,0.0,0.0,0.0,0.0,0.0,0.0,0.0,0.0,0.0,0.0,0.0,0.0,0.0,0.0,0.0,0.0,0.0,-0.5667,-0.5364,-0.5318,-0.4335,-0.314,-0.1744,-0.2411,-0.2472,-0.1908,-0.3471,-0.4964,-0.6394,-0.8087,-0.903,-0.9207,-0.8883,-0.846,-0.797,-0.7645,-0.7274,-0.6797,-0.5593,-0.5099,0.0,0.0,0.0,0.0,0.0,0.0,0.0,0.0,-0.1528,-0.1597,-0.2731,-0.2595,-0.1989,-0.2144,-0.1687,-0.1174,-0.1223,-0.1275,-0.1284,-0.1359,-0.2098,-0.3092,-0.4059,-0.3592,-0.2889,-0.2532,-0.1522,-0.018,0.1503,0.3381,0.4853,0.5324,0.5975,0.6574,0.6934,0.8261,0.9305,0.9528,1.0897,1.1927,1.2268,1.2305,1.2305,1.2305,1.2305,1.2305,1.2305,1.2305,1.2305,1.2305,1.2305,1.2305,1.2305,1.2305,1.2305,1.2305,1.2305,1.2305,1.2305,1.2305,1.2305,1.2305,1.2305,1.2305,1.2305,1.2305,1.2305,1.2305,1.2305,1.2305,1.2305,1.2305,1.2238,1.2104,0.0,0.0,0.0,0.0,0.0,0.0,0.0,0.0,0.0,0.0,0.0,0.0,0.0,0.0,0.0,0.0,0.0,0.0,-0.5986,-0.5166,-0.4686,-0.4686,-0.342,-0.1985,-0.0528,-0.0883,-0.1009,-0.0822,-0.3699,-0.5819,-0.7265,-0.9017,-0.9958,-1.0233,-0.982,-0.919,-0.8436,-0.806,-0.7288,-0.6202,-0.4932,-0.4292,0.0,0.0,0.0,0.0,0.0,0.0,0.0,0.0,-0.1016,-0.1043,-0.1872,-0.1566,-0.0926,-0.1063,-0.0561,0.0,0.0,0.0,0.0,0.0,-0.0543,-0.1322,-0.2248,-0.2081,-0.1745,-0.1782,-0.0224,0.1395,0.2233,0.4328,0.5919,0.5913,0.6579,0.7065,0.6964,0.828,0.9202,0.91,1.0728,1.1848,1.1848,1.2107,1.2305,1.2305,1.2305,1.2305,1.2305,1.2305,1.2305,1.2305,1.2305,1.2305,1.2305,1.2305,1.2305,1.2305,1.2305,1.2305,1.2305,1.2305,1.2305,1.2305,1.2305,1.2305,1.2305,1.2305,1.2305,1.2305,1.2305,1.2305,1.2305,1.2305,1.2305,1.2278,0.0,0.0,0.0,0.0,0.0,0.0,0.0,0.0,0.0,0.0,0.0,0.0,0.0,0.0,0.0,0.0,0.0,0.0,-0.5966,-0.516,-0.4686,-0.4686,-0.2835,-0.1743,-0.1589,-0.0553,0.0035,0.0167,-0.4397,-0.773,-0.9922,-1.0916,-1.1708,-1.2204,-1.0961,-1.0048,-0.9389,-0.8146,-0.6634,-0.5012,-0.3847,-0.2767,-0.1661,0.0,0.0,0.0,0.0,0.0,0.0,0.0,0.0,0.0,0.0,0.0,0.0,0.0,0.0,0.0,0.0,0.0,0.0,0.0,0.0,0.0,0.0,-0.0825,-0.1614,-0.1738,0.1115,0.3616,0.3616,0.5531,0.7098,0.7098,0.7098,0.7098,0.7092,0.772,0.8205,0.8205,0.9748,1.0783,1.0783,1.1687,1.2268,1.2268,1.2268,1.2268,1.2305,1.2305,1.2305,1.2305,1.2305,1.2305,1.2305,1.2305,1.2305,1.2305,1.2305,1.2305,1.2305,1.2305,1.2305,1.2305,1.2305,1.2305,1.2305,1.2305,1.2305,1.2305,1.2305,1.2305,1.2305,1.2305,1.2305,1.2305,0.0,0.0,0.0,0.0,0.0,0.0,0.0,0.0,0.0,0.0,0.0,0.0,0.0,0.0,0.0,0.0,0.0,0.0,-0.4785,-0.4499,-0.4412,-0.4563,-0.3297,-0.2274,-0.1619,-0.1878,-0.2027,-0.1996,-0.5513,-0.7841,-0.9018,-1.1087,-1.1582,-1.0762,-1.0587,-0.959,-0.7924,-0.7543,-0.6385,-0.4703,-0.3512,-0.2532,-0.1661,0.0,0.0,0.0,0.0,0.0,0.0,0.0,0.0,0.0,0.0,0.0,0.0,0.0,0.0,0.0,0.0,0.0,0.0,0.0,0.0,0.0,0.0,-0.0261,-0.0262,0.0579,0.2276,0.3838,0.4732,0.6068,0.7098,0.7098,0.7098,0.7058,0.6964,0.7693,0.8155,0.8062,0.9039,0.9744,0.9744,1.0008,1.0196,1.0196,1.0196,1.0496,1.1205,1.1242,1.1576,1.2268,1.2305,1.2305,1.2305,1.2305,1.2305,1.2305,1.2305,1.2305,1.2305,1.2305,1.2305,1.2305,1.2305,1.2305,1.2305,1.2305,1.2305,1.2305,1.2305,1.2305,1.2305,1.2305,1.2305,1.2305,0.0,0.0,0.0,0.0,0.0,0.0,0.0,0.0,0.0,0.0,-0.5766,-0.5901,0.0,0.0,0.0,0.0,0.0,0.0,-0.4891,-0.4426,-0.4296,-0.4475,-0.3537,-0.272,-0.2189,-0.3061,-0.3552,-0.3598,-0.6053,-0.7706,-0.8634,-1.0089,-1.0325,-0.9568,-0.9694,-0.8841,-0.7274,-0.7206,-0.5935,-0.3911,-0.3192,-0.2161,-0.0986,0.0,0.0,0.0,0.0,0.0,0.0,0.0,0.0,0.0,0.0,0.0,0.0,0.0,0.0,0.0,0.0,0.0,0.0,0.0,0.0,0.0131,0.0615,0.0704,0.1059,0.2274,0.3482,0.4554,0.527,0.634,0.7098,0.7098,0.7098,0.7065,0.6977,0.733,0.7558,0.749,0.8203,0.8694,0.8694,0.9074,0.9301,0.9301,0.9301,0.9556,1.0158,1.0596,1.1093,1.1687,1.207,1.2305,1.2305,1.2305,1.2305,1.2305,1.2305,1.2305,1.2305,1.2305,1.207,1.17,1.1279,1.1105,1.1105,1.1105,1.1105,1.113,1.1539,1.17,1.1737,1.2144,1.2305,1.2305,0.0,0.0,-0.5419,-0.5419,0.0,0.0,0.0,0.0,0.0,-0.5589,-0.5833,-0.5919,0.0,0.0,0.0,-0.6003,-0.5823,-0.5755,0.0,-0.4883,-0.4431,-0.4624,-0.393,-0.3515,-0.3521,-0.4453,-0.4977,-0.5133,-0.6341,-0.7485,-0.8448,-0.8446,-0.8494,-0.8582,-0.8375,-0.7849,-0.7092,-0.6769,-0.5164,-0.2858,-0.2786,-0.1654,0.0,0.0,0.0,0.0,0.0,0.0,0.0,0.0,0.0,0.0,0.0,0.0,0.0,0.0,0.0,0.0,0.0,0.0,0.0044,0.0134,0.0265,0.0657,0.1871,0.21,0.2408,0.3523,0.4643,0.5447,0.5536,0.6372,0.7078,0.7078,0.7078,0.7071,0.7058,0.6871,0.6695,0.6681,0.7256,0.7672,0.7672,0.8504,0.9036,0.9036,0.9036,0.9074,0.915,1.011,1.0708,1.0783,1.1774,1.2305,1.2305,1.2305,1.2268,1.2157,1.2157,1.2157,1.2157,1.2157,1.1626,1.0596,0.9707,0.9301,0.9301,0.9301,0.9301,0.9415,1.0409,1.0783,1.0932,1.1922,1.2305,1.2305,0.0,0.0,-0.5542,-0.5542,0.0,0.0,0.0,0.0,-0.5718,-0.5603,-0.5739,-0.584,-0.5806,-0.6354,0.0,-0.6058,-0.6363,-0.6421,-0.5973,-0.5544,-0.5396,-0.5675,-0.6388,-0.6789,-0.6798,-0.774,-0.827,-0.8307,-0.7666,-0.7394,-0.7433,-0.8329,-0.8054,-0.6915,-0.7129,-0.6597,-0.5538,-0.4888,-0.3905,-0.2675,-0.1937,-0.0967,0.0,0.0,0.0,0.0,0.0,0.0,0.0,0.0,0.0,0.0,0.0,0.0,0.0,0.0,0.0,0.0,0.0,0.0,0.0213,0.1173,0.2114,0.3152,0.4372,0.4498,0.4507,0.494,0.5225,0.5669,0.6561,0.683,0.693,0.693,0.693,0.6889,0.681,0.6742,0.6654,0.6573,0.6599,0.6641,0.6641,0.6834,0.6949,0.6949,0.6949,0.7288,0.8084,0.9064,0.997,1.0783,1.1774,1.2305,1.2305,1.2305,1.1885,1.1118,1.1118,1.1118,1.1118,1.1118,1.0571,0.9593,0.9415,0.9301,0.9301,0.9301,0.9301,0.9415,1.0409,1.0783,1.0932,1.1922,1.2305,1.2305,0.0,0.0,0.0,0.0,0.0,0.0,0.0,0.0,-0.5969,-0.582,-0.5867,-0.5881,-0.5813,-0.6149,0.0,0.0,-0.6757,-0.7009,-0.7249,-0.7119,-0.6996,-0.6874,-0.7011,-0.7096,-0.7096,-0.8046,-0.858,-0.858,-0.843,-0.8189,-0.7814,-0.8374,-0.7884,-0.6551,-0.6709,-0.6221,-0.5211,-0.4824,-0.3914,-0.2669,-0.2157,-0.1185,0.0,0.0,0.0,0.0,0.0,0.0,0.0,0.0,0.0,0.0,0.0,0.0,0.0,0.0,0.0409,0.0842,0.0851,0.129,0.1866,0.2498,0.3588,0.4585,0.5156,0.5621,0.5969,0.6018,0.6024,0.6196,0.6804,0.6871,0.6817,0.6817,0.6817,0.679,0.6709,0.6634,0.6559,0.6518,0.6388,0.63,0.63,0.63,0.63,0.63,0.63,0.6532,0.7065,0.8046,0.9026,1.0045,1.1056,1.1811,1.2305,1.2305,1.2033,1.1502,1.1502,1.1279,1.0783,1.0308,0.9782,0.9263,0.8275,0.8122,0.8542,0.8046,0.8161,0.8694,0.9707,1.0372,1.0932,1.1922,1.2305,1.2305,0.0,0.0,0.0,0.0,0.0,0.0,0.0,0.0,0.0,-0.6006,-0.5993,-0.5932,-0.582,-0.5915,-0.6363,0.0,0.0,0.0,-0.8744,-0.8558,-0.8215,-0.7808,-0.6988,-0.6563,-0.6563,-0.7557,-0.8046,-0.8046,-0.9064,-0.9337,-0.8886,-0.8548,-0.785,-0.6863,-0.6863,-0.6384,-0.5548,-0.5444,-0.4417,-0.2909,-0.2576,-0.1563,-0.0209,-0.007,0.0,0.0,0.0,0.0,0.0,0.0,0.0,0.0,0.0,0.0,0.0276,0.0283,0.1111,0.201,0.2012,0.2929,0.3864,0.3924,0.4821,0.5642,0.5497,0.6184,0.6851,0.6729,0.6702,0.6702,0.6702,0.6681,0.6661,0.6661,0.6661,0.6654,0.6627,0.6539,0.6504,0.6477,0.6375,0.63,0.63,0.63,0.63,0.63,0.63,0.63,0.63,0.7249,0.8199,0.9036,1.0185,1.1205,1.2033,1.2218,1.2218,1.2033,1.2033,1.1502,1.0522,0.9857,0.9453,0.9226,0.7557,0.7288,0.8008,0.7173,0.7326,0.8161,0.9178,1.0083,1.0932,1.1922,1.2305,1.2305,0.0,0.0,0.0,0.0,0.0,0.0,0.0,0.0,0.0,0.0,-0.5993,-0.5932,-0.582,-0.6379,-0.7147,-0.8127,-0.7996,-0.8379,-0.9638,0.0,0.0,-0.777,-0.7672,-0.7595,-0.7595,-0.858,-0.9112,-0.9112,-1.0121,-1.0458,-1.0122,-0.8965,-0.8091,-0.757,-0.757,-0.7069,-0.6212,-0.5571,-0.4737,-0.368,-0.2108,-0.1343,-0.1049,-0.0278,0.0,0.0,0.0,0.0,0.0,0.0,0.0,0.0,0.0,0.0,0.1378,0.1372,0.2113,0.2942,0.2926,0.3887,0.4928,0.5112,0.6024,0.6871,0.6845,0.6784,0.6722,0.6702,0.6702,0.6702,0.6702,0.6593,0.6545,0.6545,0.6545,0.6497,0.6375,0.645,0.6463,0.634,0.6313,0.63,0.63,0.63,0.63,0.63,0.63,0.63,0.63,0.7249,0.7855,0.8008,0.9809,1.0858,1.1007,1.1848,1.1848,1.1007,1.1007,1.0458,0.9518,1.026,1.0121,0.9301,0.9036,0.896,0.9074,0.896,0.8998,0.9188,1.0222,1.0671,1.0932,1.1922,1.2305,1.2305,0.0,0.0,0.0,0.0,0.0,0.0,0.0,0.0,0.0,0.0,0.0,-0.6588,-0.5892,-0.6021,-0.6525,-0.738,-0.7321,-0.7791,-0.8992,-0.7964,0.0,-0.7609,-0.71,-0.6844,-0.6942,-0.7931,-0.8466,-0.8466,-0.9383,-0.9746,-0.9518,-0.9394,-0.9254,-0.9041,-0.8875,-0.8062,-0.6762,-0.6301,-0.5266,-0.3918,-0.3143,-0.2568,-0.2159,-0.1676,-0.1568,-0.161,-0.1551,-0.1168,-0.0741,-0.0712,-0.0418,0.0,0.0,0.0,0.0,0.0,0.2807,0.4281,0.5026,0.5717,0.6262,0.6322,0.6738,0.7071,0.6997,0.6876,0.6776,0.6607,0.6573,0.6546,0.6511,0.6436,0.6395,0.6395,0.6395,0.6368,0.6306,0.6354,0.6368,0.6306,0.63,0.63,0.63,0.63,0.63,0.63,0.63,0.63,0.63,0.6718,0.7211,0.7778,0.8647,0.9658,1.0783,1.1242,1.1502,1.1613,1.1093,1.087,1.0993,1.087,1.0559,1.0121,0.9556,0.9631,1.0121,0.9518,0.9631,1.0196,1.0634,1.113,1.1687,1.2144,1.2305,1.2278,0.0,0.0,0.0,0.0,0.0,0.0,0.0,0.0,0.0,0.0,0.0,-0.744,-0.6339,0.0,0.0,0.0,-0.6712,-0.7193,-0.8337,0.0,0.0,0.0,-0.6544,-0.6105,-0.6293,-0.7019,-0.7302,-0.7019,-0.8207,-0.8567,-0.8162,-0.9339,-0.9912,-0.9889,-0.999,-0.9041,-0.7376,-0.7136,-0.602,-0.44,-0.4159,-0.3735,-0.3205,-0.294,-0.2893,-0.2937,-0.2827,-0.2192,-0.1381,-0.1308,-0.0737,0.0037,0.0262,0.1105,0.0,0.0,0.0,0.5474,0.658,0.6903,0.7004,0.7078,0.7098,0.7065,0.6964,0.691,0.6865,0.6634,0.6566,0.6477,0.6375,0.6327,0.63,0.63,0.63,0.63,0.63,0.63,0.63,0.63,0.63,0.63,0.63,0.63,0.63,0.63,0.63,0.63,0.63,0.63,0.6641,0.7403,0.7672,0.8533,1.0034,1.0522,1.1168,1.1922,1.1428,1.1576,1.2268,1.1502,1.1168,1.113,1.0383,1.0496,1.113,1.0383,1.0496,1.1168,1.1168,1.1663,1.2305,1.2305,1.2251,1.2158,0.0,0.0,0.0,0.0,0.0,0.0,0.0,0.0,0.0,0.0,0.0,-0.839,-0.7519,-0.7277,-0.7127,-0.6907,-0.6755,-0.7193,-0.8337,0.0,0.0,0.0,-0.6544,0.0,-0.6293,-0.6338,-0.5873,-0.4865,-0.6882,-0.7358,-0.6397,-0.8403,-0.9336,-0.9381,-1.0467,-0.9877,-0.8145,-0.7992,-0.6996,-0.5438,-0.4562,-0.4181,-0.4067,-0.3495,-0.318,-0.3096,-0.3094,-0.2445,-0.1562,-0.1381,-0.0728,0.0146,0.0984,0.2038,0.3212,0.0,0.0,0.0,0.6634,0.6715,0.679,0.7024,0.7098,0.7092,0.7085,0.6984,0.6883,0.6862,0.6675,0.6511,0.6504,0.6388,0.63,0.63,0.63,0.63,0.63,0.63,0.63,0.63,0.63,0.63,0.63,0.63,0.63,0.63,0.63,0.63,0.63,0.63,0.6338,0.6377,0.7288,0.7855,0.797,0.9847,1.082,1.0895,1.1774,1.2268,1.2305,1.2268,1.2231,1.2231,1.2157,1.2157,1.2231,1.2157,1.2157,1.2231,1.2231,1.2268,1.2305,1.2305,1.2131,1.1926,0.0,0.0,0.0,0.0,0.0,0.0,0.0,0.0,0.0,0.0,0.0,0.0,0.0,-0.787,-0.7307,-0.7035,-0.6305,0.0,0.0,0.0,0.0,0.0,-0.6063,-0.6003,-0.6293,-0.63,-0.5764,-0.4701,-0.5354,-0.5194,-0.4246,-0.6169,-0.7005,-0.692,-0.8672,-0.8828,-0.7726,-0.7344,-0.6966,-0.6655,-0.6233,-0.6169,-0.6281,-0.5999,-0.5487,-0.4941,-0.4865,-0.4239,-0.3334,-0.2578,-0.1744,-0.0763,0.08,0.2083,0.3287,0.4987,0.5931,0.6457,0.6566,0.6695,0.6829,0.6937,0.7031,0.7098,0.7098,0.7058,0.6997,0.6903,0.7421,0.7802,0.7541,0.69,0.6436,0.6436,0.6518,0.6512,0.645,0.6518,0.6505,0.645,0.6525,0.6539,0.6539,0.6497,0.6436,0.6436,0.6354,0.63,0.63,0.63,0.63,0.63,0.6641,0.7134,0.7778,0.914,0.982,0.9857,1.087,1.1354,1.1354,1.1996,1.2305,1.2305,1.2305,1.2305,1.2305,1.2305,1.2305,1.2305,1.2305,1.2305,1.2305,1.2305,1.2118,1.1873,0.0,0.0,0.0,-0.8087,0.0,-0.9245,-0.896,-1.0218,-1.0924,-1.0259,0.0,0.0,0.0,0.0,-0.7662,-0.6755,-0.5975,-0.5542,-0.5542,-0.5501,0.0,0.0,-0.5827,-0.5949,-0.6293,-0.63,-0.5764,-0.4706,-0.4974,-0.4407,-0.3129,-0.4688,-0.5326,-0.5233,-0.6542,-0.722,-0.7345,-0.6966,-0.6853,-0.6865,-0.6762,-0.6849,-0.6982,-0.7019,-0.6648,-0.6091,-0.5989,-0.5396,-0.453,-0.376,-0.2685,-0.1397,0.0218,0.1912,0.3678,0.5482,0.6173,0.6342,0.6484,0.662,0.6803,0.6862,0.6957,0.7038,0.7085,0.7098,0.7197,0.7491,0.8188,0.874,0.8806,0.8275,0.7612,0.7011,0.7127,0.7092,0.6572,0.6607,0.6661,0.6559,0.6641,0.6702,0.6702,0.6967,0.6962,0.6518,0.6777,0.6737,0.6338,0.63,0.63,0.63,0.63,0.6602,0.7288,0.8275,0.8808,0.8808,1.0147,1.0783,1.082,1.1848,1.2305,1.2305,1.2305,1.2305,1.2305,1.2305,1.2251,1.2171,1.2265,1.2238,1.2158,1.2158,1.1971,1.1677,-1.0565,-1.0605,-1.0545,-1.0448,-1.1002,-1.1354,-1.0889,-1.1398,-1.1877,-1.1877,0.0,0.0,0.0,0.0,0.0,-0.6,-0.58,-0.58,-0.58,-0.5671,-0.5725,-0.5979,-0.5888,-0.5949,-0.6293,-0.63,-0.5758,-0.471,-0.5758,-0.5177,-0.3133,-0.418,-0.4624,-0.4497,-0.4318,-0.53,-0.707,-0.707,-0.6672,-0.603,-0.6023,-0.603,-0.6102,-0.6434,-0.6462,-0.63,-0.63,-0.5712,-0.4908,-0.4752,-0.3434,-0.1653,-0.0658,0.1743,0.4383,0.5611,0.5956,0.6023,0.0,0.0,0.0,0.6844,0.6876,0.6966,0.7102,0.7136,0.7489,0.8711,0.8871,0.9156,1.023,1.0491,0.9947,0.819,0.8219,0.8024,0.6746,0.6695,0.6757,0.6709,0.6709,0.6715,0.6715,0.7728,0.7886,0.6652,0.7581,0.7706,0.6461,0.6377,0.6377,0.6377,0.6377,0.6377,0.6377,0.7365,0.7855,0.7855,0.9847,1.0783,1.0783,1.1848,1.2268,1.2268,1.2305,1.2305,1.2305,1.2305,1.2131,1.194,1.2198,1.2131,1.1913,1.1913,1.1677,1.1349,-1.0595,-1.0605,-1.0585,-1.0567,-1.107,-1.1472,-1.1331,-1.1199,-1.1095,0.0,0.0,0.0,-0.9367,-0.8505,-0.74,-0.608,-0.5867,-0.58,-0.58,-0.5766,-0.5827,-0.5986,-0.5952,-0.6057,-0.6293,-0.63,-0.5764,-0.4717,-0.4985,-0.4438,-0.3129,-0.3958,-0.4323,-0.4313,-0.492,-0.5499,-0.602,-0.5904,-0.6351,-0.7085,-0.6985,-0.709,-0.7301,-0.7397,-0.6987,-0.63,-0.63,-0.6145,-0.5796,-0.5106,-0.3921,-0.2328,0.0073,0.1939,0.3479,0.4577,0.4996,0.5239,0.6139,0.0,0.0,0.0,0.0,0.0,0.8033,0.8316,0.8711,0.9879,1.077,1.1356,1.1483,1.2362,1.2551,1.0897,1.0264,0.955,0.8271,0.8199,0.792,0.6963,0.691,0.6977,0.6977,0.7978,0.8371,0.778,0.8684,0.9067,0.8513,0.8466,0.8466,0.8466,0.8466,0.8466,0.8466,0.8732,0.8884,0.8884,1.0185,1.0409,0.9782,1.1515,1.1885,1.1279,1.1996,1.2305,1.2305,1.2305,1.2251,1.2184,1.2265,1.2251,1.2158,1.198,1.1677,1.1349,-1.2023,-1.2035,-1.2035,-1.2035,-1.2129,-1.2221,-1.2221,-1.1405,-1.0818,0.0,0.0,0.0,-0.8817,-0.7748,-0.6828,-0.617,-0.6044,-0.5989,-0.5989,-0.5928,-0.5962,-0.6118,-0.6064,-0.6105,-0.6293,-0.63,-0.5983,-0.5356,-0.5356,-0.4809,-0.3789,-0.4217,-0.4328,-0.4222,-0.4856,-0.5078,-0.4919,-0.4895,-0.5654,-0.6871,-0.6877,-0.6723,-0.6503,-0.6503,-0.5848,-0.4963,-0.4963,-0.4995,-0.497,-0.4433,-0.3478,-0.2099,0.0484,0.1716,0.2452,0.3501,0.3874,0.4103,0.4768,0.5364,0.5756,0.5811,0.0,0.0,0.8404,0.8777,0.9311,1.0973,1.1852,1.2414,1.2733,1.3529,1.3794,1.2836,1.2326,1.1262,0.9014,0.8811,0.8416,0.7158,0.7483,0.7841,0.7841,0.8828,0.9404,0.9151,0.9515,0.9664,0.9311,0.9301,0.9301,0.9301,0.9301,0.9301,0.9301,0.9301,0.9301,0.9301,1.0297,1.0271,0.9377,1.1366,1.1737,1.0858,1.1848,1.2305,1.2305,1.2305,1.2225,1.2118,1.2118,1.2118,1.2064,1.165,1.1557,1.1557,0.0,-1.3786,-1.3743,-1.387,-1.3328,-1.2935,-1.3054,-1.1632,-1.053,0.0,-0.9802,-0.8867,-0.7955,-0.7038,-0.647,-0.6361,-0.632,-0.6306,-0.632,-0.6139,-0.6118,-0.6293,-0.6132,-0.6118,-0.6293,-0.63,-0.6306,-0.632,-0.6306,-0.5834,-0.4896,-0.4844,-0.4688,-0.4411,-0.4571,-0.44,-0.4037,-0.418,-0.4798,-0.5663,-0.5829,-0.5345,-0.453,-0.453,-0.3943,-0.3083,-0.3083,-0.3166,-0.3264,-0.3144,-0.2513,-0.1448,0.0535,0.114,0.1369,0.2428,0.2741,0.2799,0.3022,0.3808,0.4589,0.4834,0.5606,0.0,0.8438,0.8826,0.954,1.1943,1.2457,1.2778,1.3899,1.4082,1.4082,1.4041,1.4095,1.2947,0.9592,0.9207,0.8842,0.7621,0.8448,0.9104,0.9104,1.0009,1.0557,1.0376,1.0162,0.9924,0.9663,0.9631,0.9631,0.9631,0.9631,0.9631,0.9631,0.9631,0.9631,0.9642,1.0533,1.0383,0.9377,1.1292,1.1576,1.0671,1.17,1.2194,1.2305,1.2305,1.2144,1.1953,1.1953,1.1953,1.1886,1.1289,1.1457,1.1819,-1.262,-1.1906,-1.1563,-1.2504,-1.1615,-1.1092,-1.1999,-1.0192,-0.8711,-0.8756,-0.7869,-0.7181,-0.6976,-0.6667,-0.6552,-0.6607,-0.6436,-0.6347,-0.6463,-0.6334,-0.6265,-0.63,-0.6272,-0.6272,-0.63,-0.63,-0.6354,-0.647,-0.6354,-0.6237,-0.6139,-0.5886,-0.5712,-0.5643,-0.5564,-0.5027,-0.4185,-0.4362,-0.4087,-0.3509,-0.3563,-0.3496,-0.3398,-0.3398,-0.3281,-0.3083,-0.3083,-0.3132,-0.3028,-0.2206,-0.187,-0.1563,-0.0196,0.0237,0.048,0.1527,0.1844,0.2018,0.2868,0.3258,0.3624,0.4511,0.5074,0.0,0.8886,0.9702,1.0543,1.287,1.3337,1.3498,1.3999,1.4082,1.4015,1.3733,1.4122,1.375,1.1861,1.1605,1.1209,1.0043,1.0139,1.0269,1.0269,1.0486,1.0514,1.026,1.0592,1.1074,1.1676,1.17,1.17,1.17,1.17,1.17,1.17,1.17,1.17,1.1737,1.1922,1.1056,0.9339,1.0533,1.0533,0.9631,1.0683,1.1539,1.2305,1.2305,1.2265,1.2225,1.2225,1.2225,1.2171,1.1859,1.1806,1.1859,-1.1466,-1.0994,-1.0778,-1.1338,-1.0763,-1.0407,-1.095,-0.9431,-0.8238,-0.8288,-0.8008,-0.7777,-0.7693,-0.8131,-0.8442,-0.8451,-0.7765,-0.7342,-0.7342,-0.6759,-0.6375,-0.6306,-0.63,-0.63,-0.63,-0.63,-0.6368,-0.6511,-0.6368,-0.6375,-0.6504,-0.6247,-0.6146,-0.6139,-0.6064,-0.5159,-0.3655,-0.3777,-0.2876,-0.1539,-0.2573,-0.2744,-0.2345,-0.2345,-0.2033,-0.1566,-0.1566,-0.1566,-0.1488,-0.098,-0.0829,-0.0796,-0.0197,0.0,0.0123,0.0634,0.0811,0.0917,0.1409,0.1944,0.2629,0.3774,0.4485,0.0,0.0,1.0121,1.0894,1.3332,1.3706,1.3653,1.3841,1.3748,1.3654,1.36,1.3853,1.3857,1.3294,1.2959,1.2325,1.1162,1.141,1.1696,1.1696,1.1543,1.1113,1.026,1.0858,1.137,1.1652,1.2074,1.207,1.1576,1.1539,1.1316,1.0795,1.1316,1.1316,1.0795,1.1316,1.0496,0.858,0.9593,0.9782,0.9377,1.0372,1.1354,1.2305,1.2305,1.2305,1.2291,1.2144,1.2171,1.2251,1.181,1.1837,1.2024,-1.0226,-1.0125,-1.0067,-1.0285,-0.9967,-0.9734,-0.9946,-0.8842,-0.8112,-0.8436,-0.8923,-0.9235,-0.9154,-0.994,-1.047,-1.0471,-0.9463,-0.8696,-0.838,-0.7427,-0.6737,-0.6388,-0.6354,-0.634,-0.634,-0.6313,-0.6264,-0.6189,-0.6067,-0.5949,-0.5901,-0.5943,-0.5983,-0.5983,-0.6222,-0.5234,-0.3398,-0.32,-0.2033,-0.0432,-0.1916,-0.2033,-0.1293,-0.1293,-0.0746,0.0,0.0,0.0,0.0,0.0,0.0,0.0,0.0,0.0,0.0,0.0,0.0,0.0,0.0,0.065,0.157,0.2738,0.3761,0.535,0.0,0.0,0.0,1.2758,1.3177,1.3157,1.3222,1.32,1.3267,1.34,1.3573,1.3746,1.3975,1.3749,1.3188,1.2168,1.2752,1.3233,1.3233,1.273,1.1807,1.0302,1.086,1.1101,1.0729,1.1551,1.1676,1.082,1.0783,1.0409,0.9593,1.0196,1.0121,0.9301,1.0121,0.9545,0.7817,0.8656,0.9112,0.9329,1.0147,1.1205,1.2305,1.2305,1.2305,1.2278,1.2037,1.2091,1.2238,1.1735,1.1891,1.2238,-0.8886,-0.8362,-0.8057,-0.9078,-0.8395,-0.8072,-0.9089,-0.8107,-0.7614,-0.8678,-0.974,-1.0502,-1.0804,-1.0773,-1.0935,-1.1316,-1.0758,-0.9986,-0.9078,-0.8472,-0.7714,-0.6689,-0.6519,-0.6491,-0.6491,-0.6361,-0.5915,-0.509,-0.4952,-0.4475,-0.3665,-0.4505,-0.4885,-0.4924,-0.5867,-0.5628,-0.4453,-0.3515,-0.2462,-0.1372,-0.0627,-0.0275,-0.0196,-0.0196,-0.0118,0.0,0.0,0.0,0.0,0.0,0.0,0.0,0.0,0.0,0.0,0.0,0.0,0.0,0.0,0.0086,0.044,0.1518,0.2627,0.4021,0.6166,0.0,0.8608,0.9924,0.0,1.1555,1.1862,0.0,0.0,1.2918,1.3561,1.3961,1.368,1.4299,1.4634,1.4195,1.4497,1.4776,1.4776,1.3547,1.2031,1.0312,1.0304,1.0141,0.9713,1.0606,1.103,1.0795,1.0783,1.0746,1.0634,0.9857,0.9405,0.9301,0.9405,0.8874,0.7825,0.7931,0.8466,0.9301,0.9405,1.0533,1.2305,1.2305,1.2305,1.2305,1.2265,1.2278,1.2291,1.2225,1.2238,1.2291,-0.7945,-0.7688,-0.7583,-0.8122,-0.782,-0.7653,-0.8056,-0.8245,-0.8596,-0.919,-1.079,-1.1993,-1.2294,-1.2677,-1.3105,-1.3492,-1.2638,-1.1532,-1.0183,-0.9282,-0.8177,-0.675,-0.6641,-0.6566,-0.6511,-0.5854,-0.5313,-0.4902,-0.4157,-0.3599,-0.3305,-0.3635,-0.42,-0.4955,-0.5337,-0.5347,-0.5012,-0.379,-0.2673,-0.1597,-0.0473,0.0,0.0,0.0,0.0,0.0,0.0,0.0,0.0,0.0,0.0,0.0,0.0,0.0,0.0,0.0,0.0,0.0,0.0,0.0,0.0424,0.2142,0.2882,0.3932,0.6812,0.7819,0.8629,1.0473,0.0,0.0,0.0,0.0,0.0,0.0,1.3105,1.3373,1.3387,1.4001,1.4579,1.475,1.4736,1.4643,1.4469,1.3455,1.2122,1.0537,1.0268,0.9827,0.8914,0.9757,0.9903,0.9203,0.9164,0.8875,0.819,0.8351,0.8122,0.7557,0.8161,0.7893,0.6949,0.6949,0.748,0.8466,0.9036,1.0121,1.1465,1.207,1.2305,1.2305,1.2305,1.2305,1.2305,1.2305,1.2305,1.2278,-0.7482,-0.7495,-0.7529,-0.7638,-0.7658,-0.7604,-0.7455,-0.8831,-0.9739,-0.9456,-1.1448,-1.2831,-1.2734,-1.3276,-1.3815,-1.4101,-1.3262,-1.2099,-1.0632,-0.9623,-0.8468,-0.6996,-0.6831,-0.6729,-0.6654,-0.5507,-0.4755,-0.448,-0.3288,-0.2594,-0.2388,-0.2615,-0.3204,-0.4145,-0.4308,-0.4536,-0.4704,-0.3429,-0.2453,-0.1632,-0.048,-0.0158,-0.0392,-0.0118,0.0,-0.0039,-0.0314,-0.0432,-0.0471,-0.0745,-0.0862,-0.0862,-0.0862,-0.0674,-0.0442,-0.0434,-0.024,0.0,0.0,0.0246,0.087,0.2449,0.3213,0.4245,0.6822,0.7549,0.8269,1.0306,1.0774,0.0,0.0,0.0,1.2599,1.2757,0.0,1.2518,1.2622,1.3179,1.3851,1.4669,1.4669,1.4522,1.4242,1.3628,1.2528,1.0712,1.0421,0.9635,0.8071,0.8855,0.8946,0.8009,0.8009,0.7572,0.6718,0.7173,0.7026,0.63,0.7019,0.7026,0.63,0.63,0.6834,0.7855,0.858,0.9631,1.0858,1.1576,1.2033,1.2305,1.2305,1.2305,1.2305,1.2305,1.2305,1.2278,-0.7773,-0.7794,-0.7801,-0.7801,-0.7801,-0.7753,-0.7611,-0.9667,-1.0767,-0.9482,-1.1446,-1.2642,-1.166,-1.1576,-1.1715,-1.2007,-1.1718,-1.1067,-0.9927,-0.9388,-0.8641,-0.761,-0.7156,-0.6943,-0.7071,-0.5644,-0.4442,-0.3462,-0.2241,-0.1132,-0.0126,-0.1149,-0.1683,-0.1769,-0.2727,-0.3157,-0.3126,-0.2074,-0.1633,-0.1504,-0.0451,-0.0641,-0.145,-0.0392,0.0,-0.0118,-0.1176,-0.1568,-0.1685,-0.2657,-0.3005,-0.3005,-0.3005,-0.2348,-0.153,-0.1568,-0.0798,0.0,0.0,0.0839,0.1714,0.1685,0.3258,0.4843,0.4826,0.5634,0.6737,0.8023,0.9085,1.0168,1.1483,1.2539,1.308,1.2837,1.2192,0.0,0.0,1.1773,1.2671,1.3997,1.4603,1.483,1.4536,1.4466,1.338,1.0799,1.0605,0.9527,0.7061,0.7893,0.8305,0.8018,0.8009,0.7925,0.7748,0.6834,0.6338,0.63,0.6338,0.6338,0.63,0.63,0.6834,0.7817,0.7817,0.8988,1.0783,1.082,1.1428,1.2305,1.2305,1.2305,1.2305,1.2305,1.2305,1.2305,-0.7801,-0.7889,-0.7914,-0.7914,-0.7914,-0.7894,-0.7847,-0.9276,-1.0186,-0.979,-1.1067,-1.1953,-1.1761,-1.1592,-1.1592,-1.1881,-1.1821,-1.1192,-0.9866,-0.9643,-0.8996,-0.7651,-0.7455,-0.7299,-0.7098,-0.5195,-0.3877,-0.3333,-0.1443,-0.0339,0.0,-0.0373,-0.0979,-0.1764,-0.2107,-0.2673,-0.3345,-0.2221,-0.1714,-0.1711,-0.134,-0.1351,-0.1642,-0.1928,-0.2033,-0.2111,-0.2462,-0.2579,-0.2657,-0.2969,-0.3083,-0.3083,-0.3083,-0.2852,-0.2462,-0.1801,-0.134,-0.0916,-0.0203,0.0285,0.0772,0.1421,0.2178,0.3071,0.4389,0.5002,0.6009,0.8636,0.9468,1.0326,1.2303,1.2962,1.2923,1.2085,1.171,1.1255,0.0,1.1206,1.2522,1.3928,1.4429,1.4854,1.5247,1.4147,1.2616,1.0755,0.9879,0.8773,0.7112,0.7367,0.7439,0.7159,0.7145,0.702,0.6795,0.6454,0.63,0.63,0.63,0.63,0.63,0.63,0.6493,0.6834,0.7518,0.8199,0.8912,1.026,1.1007,1.1354,1.2033,1.2305,1.2305,1.2305,1.2305,1.2305,-0.7889,-0.7921,-0.7988,-0.7988,-0.7988,-0.7988,-0.7988,-0.9071,-0.9713,-0.9345,-1.0272,-1.0865,-1.0565,-1.036,-1.0334,-1.0525,-1.0534,-1.0138,-0.9195,-0.9132,-0.8701,-0.7808,-0.7658,-0.7296,-0.6642,-0.4762,-0.348,-0.2748,-0.092,0.0,0.0,0.0,-0.0413,-0.1162,-0.1171,-0.1607,-0.2273,-0.1482,-0.1404,-0.1881,-0.265,-0.2926,-0.2945,-0.3949,-0.3812,-0.3161,-0.3515,-0.3671,-0.3709,-0.4098,-0.4258,-0.4258,-0.4258,-0.3982,-0.3554,-0.2895,-0.2426,-0.1924,-0.0839,-0.0239,0.0318,0.136,0.1914,0.2537,0.3837,0.4471,0.5483,0.8083,0.8997,0.9938,1.1849,1.2241,1.1858,1.0591,1.0468,1.0356,0.0,1.076,1.204,1.3847,1.3874,1.3913,1.4448,1.2979,1.1467,1.0106,0.9323,0.8368,0.7187,0.7098,0.6984,0.679,0.6729,0.658,0.6375,0.6327,0.63,0.63,0.63,0.63,0.63,0.63,0.63,0.6338,0.6988,0.748,0.7893,0.9216,1.0147,1.0858,1.1502,1.1996,1.2305,1.2305,1.2305,1.2305,-0.7988,-0.7995,-0.8002,-0.7902,-0.7945,-0.7988,-0.7988,-0.9072,-0.941,-0.8088,-0.9065,-0.9361,-0.7932,-0.7839,-0.7889,-0.7889,-0.7889,-0.7939,-0.7988,-0.7902,-0.7889,-0.7982,-0.7773,-0.7054,-0.5805,-0.451,-0.3155,-0.1801,-0.0601,0.0,0.0,0.0,0.0,0.0,0.0,0.0,0.0,0.0,-0.0718,-0.2011,-0.4237,-0.5124,-0.5225,-0.614,-0.5155,-0.3402,-0.4414,-0.4768,-0.4924,-0.5944,-0.63,-0.63,-0.63,-0.5589,-0.4768,-0.4724,-0.3982,-0.2969,-0.1957,-0.0834,0.0241,0.1142,0.2188,0.2946,0.2865,0.3794,0.4995,0.6198,0.7564,0.8877,1.0011,1.0274,0.9871,0.8463,0.8336,0.8861,1.0073,1.024,1.1151,1.3571,1.282,1.2151,1.2279,1.1209,1.0053,0.8973,0.8859,0.8332,0.7143,0.7105,0.7038,0.6889,0.6776,0.6627,0.6511,0.6368,0.63,0.63,0.63,0.63,0.63,0.63,0.63,0.63,0.63,0.6834,0.7748,0.7787,0.8912,1.0671,1.0746,1.1391,1.2305,1.2305,1.2305,1.2305,-0.7988,-0.8133,-0.7852,-0.672,-0.7353,-0.7988,-0.7988,-0.8287,-0.8031,-0.6681,-0.7683,-0.7627,-0.5268,-0.5927,-0.6531,-0.6531,-0.6531,-0.6936,-0.7939,-0.7955,-0.7948,-0.7988,-0.7921,-0.7247,-0.581,-0.457,-0.3248,-0.1801,-0.0601,0.0,0.0,0.0,0.0,0.0,0.0,0.0,0.0,0.0,-0.0718,-0.2013,-0.4351,-0.5247,-0.5225,-0.6353,-0.6312,-0.5637,-0.5821,-0.5906,-0.5944,-0.6222,-0.63,-0.63,-0.63,-0.6099,-0.575,-0.4924,-0.4491,-0.4059,-0.3008,-0.247,-0.2201,-0.1955,-0.1685,-0.1258,-0.0549,0.0471,0.1856,0.389,0.5222,0.6383,0.7651,0.7218,0.6523,0.6144,0.5419,0.5599,0.7642,0.7946,0.8828,1.1187,1.0476,1.0423,1.2093,1.0456,0.9235,0.893,0.822,0.7572,0.7143,0.7251,0.7197,0.6896,0.6776,0.6627,0.6511,0.6368,0.63,0.63,0.63,0.63,0.63,0.63,0.63,0.63,0.63,0.6454,0.6756,0.748,0.8122,0.8723,1.0222,1.1391,1.2305,1.2305,1.2305,1.2305,-0.814,-0.7744,-0.6946,-0.5383,-0.5747,-0.6256,-0.626,-0.6258,-0.5972,-0.5222,-0.5772,-0.5672,-0.4168,-0.4668,-0.5372,-0.5927,-0.5977,-0.6581,-0.7889,-0.7988,-0.8287,-0.8874,-0.8336,-0.7588,-0.6801,-0.4937,-0.3315,-0.1895,-0.0612,0.0,0.0,0.0,0.0,0.0,0.0,0.0,-0.0087,-0.111,-0.1968,-0.2814,-0.5176,-0.6072,0.0,-0.6645,-0.6824,-0.6654,-0.6505,-0.6409,-0.63,-0.63,-0.63,-0.63,-0.63,-0.63,-0.6183,-0.5589,-0.5395,-0.5157,-0.4098,-0.3787,-0.3671,-0.32,-0.3083,-0.2934,-0.2368,-0.1384,-0.0238,0.0997,0.2201,0.323,0.3886,0.3518,0.3042,0.2999,0.2441,0.2842,0.521,0.5972,0.6819,0.813,0.8198,0.8416,0.9156,0.8555,0.8105,0.8105,0.7574,0.7231,0.7098,0.7224,0.7197,0.6984,0.681,0.6661,0.6573,0.6402,0.63,0.63,0.63,0.63,0.63,0.63,0.63,0.63,0.63,0.63,0.6338,0.6911,0.7165,0.7371,0.9836,1.1168,1.17,1.2144,1.2305,1.2305,-0.8117,-0.6962,-0.5545,-0.3993,-0.3778,-0.3707,-0.3494,-0.378,-0.393,-0.378,-0.387,-0.3864,-0.3516,-0.3616,-0.4268,-0.5627,-0.5727,-0.6381,-0.7889,-0.8187,-0.8775,-0.9953,-0.9023,-0.8365,-0.7991,-0.5708,-0.3778,-0.2249,-0.0915,-0.0284,-0.0277,-0.0089,0.0,0.0,0.0,0.0,-0.0132,-0.2399,-0.3352,-0.354,-0.5758,-0.665,-0.6637,-0.6517,-0.6552,-0.6649,-0.6525,-0.6431,-0.6361,-0.6361,-0.6361,-0.6354,-0.6334,-0.6327,-0.6327,-0.6306,-0.63,-0.6099,-0.5157,-0.4924,-0.4686,-0.3748,-0.3515,-0.3534,-0.3527,-0.2612,-0.1804,-0.1966,-0.0978,-0.0082,-0.0201,-0.0249,-0.0344,-0.0614,-0.0398,0.0575,0.2766,0.4106,0.4882,0.5058,0.6166,0.0,0.5492,0.6428,0.7098,0.7098,0.7112,0.7119,0.7098,0.7112,0.7119,0.7098,0.6851,0.6702,0.6702,0.645,0.63,0.63,0.63,0.63,0.63,0.63,0.63,0.63,0.63,0.63,0.63,0.63,0.6388,0.6774,0.9374,1.0484,1.0708,1.1576,1.1996,1.2107,-0.7065,-0.5578,-0.4079,-0.2613,-0.2444,-0.2117,-0.0867,-0.2575,-0.3597,-0.247,-0.3296,-0.3165,-0.0958,-0.1712,-0.2864,-0.4218,-0.4368,-0.5372,-0.7839,-0.9023,-0.9756,-1.0002,-1.0779,-1.0222,-0.804,-0.7539,-0.6098,-0.3668,-0.229,-0.1674,-0.1616,-0.0505,0.0,0.0,0.0,0.0,-0.0091,-0.1531,-0.2124,-0.2246,-0.364,-0.4194,-0.419,-0.4178,-0.4699,-0.54,-0.5379,-0.5919,-0.662,-0.662,-0.662,-0.66,-0.6518,-0.6477,-0.645,-0.6334,-0.63,-0.6261,-0.606,-0.6022,-0.5983,-0.5789,-0.575,-0.5757,-0.5736,-0.4873,-0.4121,-0.416,-0.3277,-0.2475,-0.2505,-0.2517,-0.2877,-0.4019,-0.2563,-0.0826,0.0563,0.1719,0.2767,0.3787,0.4949,0.562,0.5403,0.6428,0.7098,0.7098,0.7258,0.7278,0.7105,0.7258,0.7272,0.7098,0.6851,0.6702,0.6702,0.645,0.63,0.63,0.63,0.63,0.63,0.63,0.63,0.63,0.63,0.63,0.63,0.63,0.6788,0.7579,0.8114,0.8836,0.9593,0.9744,1.0346,1.1168,-0.4521,-0.3678,-0.2711,-0.1234,-0.1002,-0.083,-0.0111,-0.1083,-0.1697,-0.1052,-0.1511,-0.1452,-0.0156,-0.0566,-0.1788,-0.3821,-0.3987,-0.5118,-0.7839,-0.8627,-0.9558,-1.0925,-1.0925,-1.0956,-1.1074,-0.9068,-0.7365,-0.6077,-0.402,-0.3053,-0.3044,-0.2328,-0.1653,-0.1003,-0.0319,0.0,-0.0094,-0.13,-0.1812,-0.1919,-0.3112,-0.3584,-0.3577,-0.3585,-0.3901,-0.4305,-0.4305,-0.4672,-0.5261,-0.6331,-0.6702,-0.6688,-0.6614,-0.6586,-0.6559,-0.6457,-0.6409,-0.6395,-0.632,-0.63,-0.63,-0.63,-0.63,-0.63,-0.63,-0.5906,-0.5512,-0.5512,-0.5035,-0.4462,-0.4003,-0.3969,-0.4076,-0.4291,-0.2835,-0.1516,-0.0909,0.0131,0.1062,0.1653,0.3352,0.4461,0.4461,0.6068,0.7098,0.7098,0.721,0.7217,0.7098,0.721,0.7217,0.7098,0.6851,0.6702,0.6702,0.645,0.63,0.63,0.63,0.63,0.63,0.63,0.63,0.63,0.63,0.63,0.63,0.63,0.6602,0.7057,0.7595,0.8084,0.858,0.9112,0.9593,1.0083,-0.2472,-0.1981,-0.1382,-0.023,0.0,0.0,0.0,0.0,0.0,0.0,0.0,0.0,0.0,-0.0263,-0.1459,-0.3843,-0.4336,-0.5505,-0.7885,-0.8307,-0.9361,-1.1414,-1.0779,-1.1258,-1.3054,-1.0009,-0.8294,-0.7997,-0.5586,-0.4415,-0.4395,-0.4025,-0.3167,-0.1952,-0.0605,0.0,-0.0048,-0.1002,-0.1431,-0.1482,-0.2432,-0.2828,-0.2823,-0.2822,-0.2987,-0.321,-0.3198,-0.3371,-0.3842,-0.5502,-0.6027,-0.602,-0.5996,-0.5984,-0.6002,-0.6112,-0.613,-0.6165,-0.6296,-0.632,-0.63,-0.63,-0.63,-0.6293,-0.6259,-0.6252,-0.6238,-0.6211,-0.594,-0.5475,-0.4857,-0.4608,-0.4307,-0.368,-0.2542,-0.1759,-0.1774,-0.0739,0.0,0.0,0.1923,0.3215,0.3215,0.5127,0.6467,0.6738,0.6966,0.7098,0.7098,0.7098,0.7098,0.7098,0.6851,0.6702,0.6702,0.645,0.63,0.63,0.63,0.63,0.63,0.63,0.63,0.63,0.63,0.63,0.63,0.63,0.63,0.6377,0.7173,0.748,0.7595,0.8351,0.8808,0.896,-0.2459,-0.1245,-0.0175,0.0,0.0,0.0,0.0,0.0,0.0,0.0,0.0,0.0,0.0,-0.117,-0.2596,-0.4073,-0.5356,-0.6691,-0.8197,-0.9257,-0.9903,-1.0149,-1.117,-1.1317,-1.0386,-0.9993,-0.9213,-0.7982,-0.652,-0.5812,-0.5761,-0.4578,-0.3277,-0.1946,-0.0618,0.0,0.0,-0.0144,-0.0144,-0.0195,-0.0287,-0.0333,-0.0333,-0.0332,-0.0994,-0.1982,-0.1993,-0.2665,-0.3614,-0.3846,-0.3905,-0.3846,-0.3689,-0.3667,-0.3867,-0.4792,-0.4976,-0.5095,-0.6171,-0.6402,-0.63,-0.63,-0.63,-0.6259,-0.6084,-0.6013,-0.601,-0.5874,-0.5194,-0.4698,-0.4843,-0.4016,-0.3309,-0.3413,-0.2396,-0.1616,-0.1638,-0.0695,0.0,0.0,0.1165,0.1968,0.1968,0.317,0.4372,0.5492,0.6517,0.7098,0.7098,0.7098,0.7098,0.7098,0.6851,0.6702,0.6702,0.645,0.63,0.63,0.63,0.63,0.63,0.63,0.63,0.63,0.63,0.63,0.63,0.63,0.63,0.63,0.6416,0.6454,0.6454,0.6525,0.7173,0.7825,-0.0978,-0.0483,0.0,0.0,0.0,0.0,0.0,0.0,0.0,0.0,0.0,0.0,0.0,-0.1306,-0.2752,-0.4095,-0.5563,-0.6974,-0.8346,-0.8765,-0.9318,-1.0104,-1.0547,-1.0877,-1.1121,-1.0386,-0.9756,-0.9213,-0.7882,-0.7205,-0.715,-0.5743,-0.3943,-0.1841,-0.0582,0.0,0.0,0.0,0.0,0.0,0.0,0.0,0.0,0.0,-0.0286,-0.0714,-0.0708,-0.1026,-0.1432,-0.1437,-0.2417,-0.3565,-0.3493,-0.3483,-0.3557,-0.3871,-0.4413,-0.5027,-0.534,-0.5906,-0.6409,-0.632,-0.63,-0.6286,-0.6179,-0.6098,-0.5824,-0.5279,-0.4338,-0.3487,-0.2863,-0.2447,-0.2002,-0.1449,-0.0943,-0.0626,-0.0637,-0.0259,0.0,0.0,0.1076,0.1791,0.1791,0.2903,0.3794,0.4283,0.5465,0.6506,0.7233,0.7278,0.7278,0.7278,0.6905,0.6702,0.6702,0.645,0.63,0.63,0.63,0.63,0.63,0.63,0.63,0.63,0.63,0.63,0.63,0.63,0.63,0.63,0.63,0.63,0.63,0.63,0.6563,0.6949,0.0,0.0,0.0,0.0,0.0,0.0,0.0,0.0,0.0,0.0,0.0,0.0,0.0,-0.1717,-0.3241,-0.4224,-0.6046,-0.7534,-0.8494,-0.8411,-0.8734,-0.9634,-0.9578,-0.9937,-1.082,-0.9987,-0.9466,-0.941,-0.8528,-0.7829,-0.7385,-0.5551,-0.3697,-0.1828,-0.0544,0.0,0.0,0.0,0.0,0.0,0.0,0.0,0.0,0.0,0.0,0.0,0.0,0.0,0.0,0.0,-0.1116,-0.2525,-0.2525,-0.2558,-0.2586,-0.2809,-0.3653,-0.4594,-0.479,-0.5641,-0.6491,-0.6388,-0.6327,-0.6286,-0.6245,-0.5883,-0.5291,-0.436,-0.3317,-0.2326,-0.1523,-0.1257,-0.0882,-0.0119,0.0,0.0,0.0,-0.0302,-0.0526,-0.0537,-0.0089,0.0358,0.0716,0.1518,0.2321,0.3037,0.4324,0.5557,0.6756,0.7118,0.7285,0.7244,0.6892,0.6681,0.6634,0.6422,0.63,0.63,0.63,0.63,0.63,0.63,0.63,0.63,0.63,0.63,0.63,0.63,0.63,0.63,0.63,0.63,0.63,0.63,0.63,0.6416,0.0,0.0,0.0,0.0,0.0,0.0,0.0,0.0,0.0,0.0,0.0,0.0,0.0,-0.2684,-0.447,-0.447,-0.7035,-0.8656,-0.871,-0.8567,-0.8479,-0.8531,-0.8395,-0.832,-0.832,-0.832,-0.8245,-0.8038,-0.8194,-0.7522,-0.5977,-0.3316,-0.2012,-0.1962,-0.0605,0.0,0.0,0.0,0.0,0.0,0.0,0.0,0.0,0.0,0.0,0.0,0.0,0.0,0.0,0.0,0.0,-0.0046,-0.0046,-0.0046,-0.0269,-0.1478,-0.251,-0.3592,-0.4751,-0.5776,-0.6511,-0.6511,-0.6402,-0.6259,-0.6064,-0.5243,-0.4205,-0.3157,-0.207,-0.1367,-0.1552,-0.0746,0.0,0.0,0.0,0.0,0.0,-0.1042,-0.1792,-0.1786,-0.2814,-0.3081,-0.1878,-0.1746,-0.0761,0.1655,0.3052,0.429,0.5364,0.6473,0.7038,0.6896,0.6783,0.6627,0.6518,0.6375,0.63,0.63,0.63,0.63,0.63,0.63,0.63,0.63,0.63,0.63,0.63,0.63,0.63,0.63,0.63,0.63,0.63,0.63,0.63,0.63,0.0,0.0,0.0,0.0,0.0,0.0,0.0,0.0,0.0,0.0,0.0,0.0,0.0,-0.2684,-0.4526,-0.4526,-0.7166,-0.8811,-0.8811,-0.8723,-0.8635,-0.8635,-0.8492,-0.8418,-0.8418,-0.8418,-0.7917,-0.6826,-0.6884,-0.5676,-0.3268,-0.2414,-0.1511,-0.0605,-0.0202,0.0,0.0,0.0,0.0,0.0,0.0,0.0,0.0,0.0,0.0,0.0,0.0,0.0,0.0,0.0,0.0,0.0,0.0,0.0,-0.0225,-0.1433,-0.2625,-0.3743,-0.4817,-0.5911,-0.6736,-0.6566,-0.6477,-0.6409,-0.6259,-0.4817,-0.3205,-0.2052,-0.1082,-0.0415,-0.0507,-0.0235,0.0,0.0,0.0,-0.0293,-0.1101,-0.1566,-0.2086,-0.2945,-0.3349,-0.3126,-0.1923,-0.1791,-0.1119,0.0449,0.2473,0.4205,0.5471,0.6522,0.7071,0.7031,0.6729,0.6559,0.6511,0.6368,0.63,0.63,0.63,0.63,0.63,0.63,0.63,0.63,0.63,0.63,0.63,0.63,0.63,0.63,0.63,0.63,0.63,0.63,0.63,0.63,0.0,0.0,0.0,0.0,0.0,0.0,0.0,0.0,0.0,0.0,0.0,0.0,0.0,-0.2166,-0.3853,-0.4477,-0.7204,-0.8885,-0.8885,-0.8852,-0.8519,-0.7968,-0.7839,-0.7493,-0.6903,-0.6903,-0.6399,-0.5457,-0.4926,-0.3772,-0.1984,-0.1476,-0.0812,0.0,0.0,0.0,0.0,0.0,0.0,0.0,0.0,0.0,0.0,0.0,0.0,0.0,0.0,0.0,0.0,0.0,0.0,0.0,0.0,0.0,-0.0229,-0.1453,-0.2653,-0.3827,-0.4918,-0.6048,-0.6842,-0.6695,-0.6559,-0.6258,-0.5327,-0.408,-0.2681,-0.1134,-0.0378,0.0,0.0,0.0,0.0,0.0,0.0,-0.0426,-0.1614,-0.2187,-0.2903,-0.415,-0.4639,-0.4461,-0.3263,-0.2727,-0.1968,-0.0763,0.1966,0.395,0.4822,0.6251,0.6991,0.6937,0.6647,0.6484,0.6429,0.634,0.63,0.63,0.63,0.63,0.63,0.63,0.63,0.63,0.63,0.63,0.63,0.63,0.63,0.63,0.63,0.63,0.63,0.63,0.63,0.63,0.0,0.0,0.0,0.0,0.0,0.0,0.0,0.0,0.0,0.0,0.0,0.0,0.0,-0.1294,-0.2784,-0.4217,-0.6943,-0.8615,-0.8615,-0.8608,-0.7986,-0.6589,-0.6434,-0.5669,-0.4256,-0.4201,-0.4111,-0.3878,-0.25,-0.1847,-0.1815,-0.0571,0.0,0.0,0.0,0.0,0.0,0.0,0.0,0.0,0.0,0.0,0.0,0.0,0.0,0.0,0.0,0.0,0.0,0.0,0.0,0.0,0.0,0.0,-0.0238,-0.1443,-0.264,-0.3846,-0.5057,-0.613,-0.6896,-0.6889,-0.6709,-0.5934,-0.3717,-0.3185,-0.2539,-0.0531,-0.0038,0.0,0.0,0.0,0.0,0.0,-0.0085,-0.0566,-0.1778,-0.2958,-0.4202,-0.5359,-0.6473,-0.665,-0.5492,-0.4328,-0.3081,-0.1878,0.1561,0.3616,0.3616,0.5692,0.6858,0.6709,0.6552,0.6443,0.63,0.63,0.63,0.63,0.63,0.63,0.63,0.63,0.63,0.63,0.63,0.63,0.63,0.63,0.63,0.63,0.63,0.63,0.63,0.63,0.63,0.63,0.0,0.0,0.0,0.0,0.0,0.0,0.0,0.0,0.0,0.0,0.0,0.0,0.0,-0.1294,-0.2341,-0.273,-0.4468,-0.5516,-0.5516,-0.5566,-0.5361,-0.5027,-0.5008,-0.4775,-0.4443,-0.4443,-0.3856,-0.2602,-0.1195,-0.0485,-0.0476,-0.0157,0.0,0.0,0.0,0.0,0.0,0.0,0.0,0.0,0.0,0.0,0.0,0.0,0.0,0.0,0.0,0.0,0.0,0.0,0.0,0.0,0.0,0.0,-0.0243,-0.1426,-0.2651,-0.3884,-0.5077,-0.6215,-0.7018,-0.691,-0.6783,-0.6267,-0.4808,-0.3861,-0.2932,-0.1522,-0.0553,0.0,0.0,0.0,0.0,0.0,-0.0866,-0.1899,-0.3039,-0.4291,-0.5501,-0.6574,-0.6915,-0.665,-0.5492,-0.4328,-0.3081,-0.1878,0.1561,0.3616,0.3616,0.5692,0.6858,0.6709,0.6552,0.6443,0.63,0.63,0.63,0.63,0.63,0.63,0.63,0.63,0.63,0.63,0.63,0.63,0.63,0.63,0.63,0.63,0.63,0.63,0.63,0.63,0.63,0.6313,0.0,0.0,0.0,0.0,0.0,0.0,0.0,0.0,0.0,0.0,0.0,0.0,0.0,-0.0721,-0.1202,-0.1202,-0.3228,-0.4498,-0.4522,-0.4482,-0.4167,-0.3466,-0.3463,-0.3129,-0.2461,-0.2461,-0.2006,-0.1216,-0.0387,0.0,0.0,0.0,0.0,0.0,0.0,0.0,0.0,0.0,0.0,0.0,0.0,0.0,0.0,0.0,0.0,0.0,0.0,0.0,0.0,0.0,0.0,0.0,0.0,0.0,-0.0149,-0.0785,-0.1819,-0.3036,-0.4251,-0.5014,-0.5479,-0.5318,-0.5619,-0.5661,-0.4463,-0.419,-0.385,-0.2756,-0.2042,-0.1485,-0.0907,-0.084,-0.0642,-0.0087,-0.1059,-0.2325,-0.3431,-0.4687,-0.5925,-0.6972,-0.7098,-0.665,-0.5492,-0.4328,-0.3081,-0.1878,0.1561,0.3616,0.3616,0.5742,0.6916,0.681,0.6654,0.6545,0.6402,0.6334,0.63,0.63,0.63,0.63,0.63,0.63,0.63,0.63,0.63,0.63,0.63,0.63,0.63,0.63,0.63,0.63,0.63,0.63,0.63,0.632,0.0,0.0,0.0,0.0,0.0,0.0,0.0,0.0,0.0,0.0,0.0,0.0,0.0,0.0,0.0,0.0,-0.2342,-0.3813,-0.3807,-0.3796,-0.325,-0.1909,-0.1851,-0.1291,0.0,0.0,0.0,0.0,0.0,0.0,0.0,0.0,0.0,0.0,0.0,0.0,0.0,0.0,0.0,0.0,0.0,0.0,0.0,0.0,0.0,0.0,0.0,0.0,0.0,0.0,0.0,0.0,0.0,0.0,0.0,0.0,-0.074,-0.1775,-0.3007,-0.3468,-0.3607,-0.3703,-0.4446,-0.4923,-0.4059,-0.4499,-0.4912,-0.4022,-0.3695,-0.3283,-0.2274,-0.2108,-0.1762,-0.0719,-0.1629,-0.2731,-0.3493,-0.4682,-0.5757,-0.6473,-0.6561,-0.6201,-0.522,-0.4016,-0.2903,-0.1878,0.1561,0.3616,0.3616,0.5841,0.7045,0.6923,0.6817,0.6661,0.6545,0.6429,0.6368,0.6368,0.634,0.6334,0.6334,0.6313,0.63,0.63,0.63,0.63,0.63,0.63,0.63,0.63,0.63,0.63,0.63,0.63,0.63,0.632,0.0,0.0,0.0,0.0,0.0,0.0,0.0,0.0,0.0,0.0,0.0,0.0,0.0,0.0,0.0,0.0,-0.043,-0.0669,-0.0718,-0.0709,-0.0582,-0.0344,-0.0343,-0.0228,0.0,0.0,0.0,0.0,0.0,0.0,0.0,0.0,0.0,0.0,0.0,0.0,0.0,0.0,0.0,0.0,0.0,0.0,0.0,0.0,0.0,0.0,0.0,0.0,0.0,0.0,0.0,0.0,0.0,0.0,0.0,0.0,-0.0151,-0.0548,-0.1764,-0.2846,-0.386,-0.4845,-0.5225,-0.5522,-0.619,-0.5812,-0.5262,-0.4954,-0.4206,-0.3535,-0.3363,-0.3425,-0.3425,-0.3255,-0.4434,-0.4957,-0.3931,-0.4888,-0.5332,-0.4255,-0.415,-0.4061,-0.3883,-0.2769,-0.2013,-0.1836,0.1561,0.3616,0.3616,0.5841,0.7085,0.7065,0.6923,0.6817,0.6668,0.6641,0.6634,0.6627,0.6545,0.6477,0.6477,0.6354,0.63,0.63,0.63,0.63,0.63,0.63,0.63,0.63,0.63,0.63,0.63,0.63,0.63,0.634,0.0,0.0,0.0,0.0,0.0,0.0,0.0,0.0,0.0,0.0,0.0,0.0,0.0,0.0,0.0,0.0,0.0,0.0,0.0,0.0,0.0,0.0,0.0,0.0,0.0,0.0,0.0,0.0,0.0,0.0,0.0,0.0,0.0,0.0,0.0,0.0,0.0,0.0,0.0,0.0,0.0,0.0,0.0,0.0,0.0,0.0,0.0,0.0,0.0,0.0,0.0,0.0,0.0,0.0,0.0,0.0,0.0,-0.0101,-0.069,-0.1257,-0.1807,-0.2349,-0.3532,-0.4639,-0.5037,-0.5819,-0.6404,-0.622,-0.5811,-0.5298,-0.4781,-0.4732,-0.4593,-0.3982,-0.4403,-0.4589,-0.3896,-0.4251,-0.4384,-0.3671,-0.3616,-0.3349,-0.268,-0.2147,-0.1253,0.0045,0.2276,0.3883,0.4554,0.6157,0.7098,0.7098,0.6957,0.6856,0.6824,0.6742,0.6702,0.6702,0.6627,0.6593,0.6593,0.6525,0.6498,0.6498,0.6498,0.6498,0.6498,0.6498,0.6498,0.6498,0.6498,0.6498,0.6498,0.6498,0.6498,0.6525,0.0,0.0,0.0,0.0,0.0,0.0,0.0,0.0,0.0,0.0,0.0,0.0,0.0,0.0,0.0,0.0,0.0,0.0,0.0,0.0,0.0,0.0,0.0,0.0,0.0,0.0,0.0,0.0,0.0,0.0,0.0,0.0,0.0,0.0,0.0,0.0,0.0,0.0,0.0,0.0,0.0,0.0,0.0,0.0,0.0,0.0,0.0,0.0,0.0,0.0,0.0,0.0,0.0,0.0,0.0,0.0,0.0,0.0,0.0,0.0,-0.0049,-0.0337,-0.1908,-0.3405,-0.3536,-0.5378,-0.6917,-0.6726,-0.6994,-0.6956,-0.6162,-0.608,-0.5758,-0.4619,-0.4361,-0.4076,-0.3471,-0.3281,-0.3126,-0.278,-0.2769,-0.2415,-0.1478,-0.1388,-0.0627,0.1254,0.2769,0.4016,0.491,0.6334,0.7098,0.7098,0.6991,0.6937,0.6937,0.6865,0.6803,0.6803,0.677,0.6756,0.6756,0.6715,0.6702,0.6702,0.6702,0.6702,0.6702,0.6702,0.6702,0.6702,0.6702,0.6702,0.6702,0.6702,0.6702,0.6722,0.0,0.0,0.0,0.0,0.0,0.0,0.0,0.0,0.0,0.0,0.0,0.0,0.0,0.0,0.0,0.0,0.0,0.0,0.0,0.0,0.0,0.0,0.0,0.0,0.0,0.0,0.0,0.0,0.0,0.0,0.0,0.0,0.0,0.0,0.0,0.0,0.0,0.0,0.0,0.0,0.0,0.0,0.0,0.0,0.0,0.0,0.0,0.0,0.0,0.0,0.0,0.0,0.0,0.0,0.0,0.0,0.0,0.0,0.0,0.0,-0.0245,-0.1369,-0.1832,-0.2234,-0.3364,-0.4682,-0.5691,-0.5537,-0.6623,-0.7522,-0.7302,-0.7449,-0.7202,-0.5902,-0.5743,-0.4995,-0.2487,-0.2139,-0.1639,-0.0406,-0.0269,-0.0225,-0.0135,-0.0135,-0.0045,0.0135,0.2281,0.366,0.3749,0.5885,0.7098,0.7098,0.7085,0.7078,0.7078,0.7071,0.7065,0.7065,0.693,0.6869,0.6862,0.6763,0.6702,0.6702,0.6702,0.6702,0.6702,0.6702,0.6702,0.6702,0.6702,0.6702,0.6702,0.6702,0.6702,0.6722,0.0,0.0,0.0,0.0,0.0,0.0,0.0,0.0,0.0,0.0,0.0,0.0,0.0,0.0,0.0,0.0,0.0,0.0,0.0,0.0,0.0,0.0,0.0,0.0,0.0,0.0,0.0,0.0,0.0,0.0,0.0,0.0,0.0,0.0,0.0,0.0,0.0,0.0,0.0,0.0,0.0,0.0,0.0,0.0,0.0,0.0,0.0,0.0,0.0,0.0,0.0,0.0,0.0,0.0,0.0,0.0,0.0,0.0,0.0,0.0,-0.01,-0.0549,-0.1289,-0.2014,-0.2379,-0.353,-0.4466,-0.4332,-0.472,-0.5133,-0.5156,-0.5268,-0.5174,-0.474,-0.403,-0.3169,-0.2161,-0.1262,-0.0556,-0.0045,0.0,0.0,0.0,0.0,0.0314,0.1076,0.268,0.3927,0.4688,0.6245,0.7098,0.7098,0.7098,0.7098,0.7098,0.7098,0.7098,0.7098,0.7045,0.7018,0.7011,0.6957,0.693,0.693,0.693,0.693,0.693,0.693,0.693,0.693,0.693,0.693,0.693,0.693,0.693,0.6937,0.0,0.0,0.0,0.0,0.0,0.0,0.0,0.0,0.0,0.0,0.0,0.0,0.0,0.0,0.0,0.0,0.0,0.0,0.0,0.0,0.0,0.0,0.0,0.0,0.0,0.0,0.0,0.0,0.0,0.0,0.0,0.0,0.0,0.0,0.0,0.0,0.0,0.0,0.0,0.0,0.0,0.0,0.0,0.0,0.0,0.0,0.0,0.0,0.0,0.0,0.0,0.0,0.0,0.0,0.0,0.0,0.0,0.0,0.0,0.0,0.0,0.0,-0.0706,-0.1356,-0.124,-0.2273,-0.3188,-0.3079,-0.3418,-0.3729,-0.3808,-0.3831,-0.3746,-0.3404,-0.2616,-0.1855,-0.1419,-0.0562,0.0,0.0,0.0,0.0,0.0,0.0,0.0359,0.1165,0.237,0.3705,0.5314,0.6473,0.7098,0.7098,0.7098,0.7098,0.7098,0.7098,0.7098,0.7098,0.7098,0.7098,0.7098,0.7098,0.7098,0.7098,0.7098,0.7098,0.7098,0.7098,0.7098,0.7098,0.7098,0.7098,0.7098,0.7098,0.7098,0.7098,0.0,0.0,0.0,0.0,0.0,0.0,0.0,0.0,0.0,0.0,0.0,0.0,0.0,0.0,0.0,0.0,0.0,0.0,0.0,0.0,0.0,0.0,0.0,0.0,0.0,0.0,0.0,0.0,0.0,0.0,0.0,0.0,0.0,0.0,0.0,0.0,0.0,0.0,0.0,0.0,0.0,0.0,0.0,0.0,0.0,0.0,0.0,0.0,0.0,0.0,0.0,0.0,0.0,0.0,0.0,0.0,0.0,0.0,0.0,0.0,0.0,0.0,0.0,0.0,0.0,-0.1008,-0.1954,-0.182,-0.2929,-0.3944,-0.3779,-0.3867,-0.3516,-0.2213,-0.1962,-0.15,-0.0197,0.0,0.0,0.0,0.0,0.0,0.0,0.0,0.0,0.0,0.1121,0.2861,0.527,0.6473,0.7098,0.7098,0.7098,0.7098,0.7098,0.7098,0.7098,0.7098,0.7098,0.7098,0.7098,0.7098,0.7098,0.7098,0.7098,0.7098,0.7098,0.7098,0.7098,0.7098,0.7098,0.7098,0.7098,0.7098,0.7098,0.7098,0.0,0.0,0.0,0.0,0.0,0.0,0.0,0.0,0.0,0.0,0.0,0.0,0.0,0.0,0.0,0.0,0.0,0.0,0.0,0.0,0.0,0.0,0.0,0.0,0.0,0.0,0.0,0.0,0.0,0.0,0.0,0.0,0.0,0.0,0.0,0.0,0.0,0.0,0.0,0.0,0.0,0.0,0.0,0.0,0.0,0.0,0.0,0.0,0.0,0.0,0.0,0.0,0.0,0.0,0.0,0.0,0.0,0.0,0.0,0.0,0.0,0.0,0.0,0.0,0.0,-0.0303,-0.0604,-0.0551,-0.0904,-0.1157,-0.1151,-0.1154,-0.1054,-0.0644,-0.0594,-0.0442,-0.0048,0.0,0.0,0.0,0.0,0.0,0.0,0.0,0.0,0.0,0.1108,0.2497,0.4065,0.448,0.5063,0.6026,0.598,0.6343,0.7299,0.7152,0.7098,0.7098,0.7098,0.7098,0.7098,0.7098,0.7098,0.7098,0.7098,0.7098,0.7098,0.7098,0.7098,0.7098,0.7098,0.7098,0.7098,0.7098,0.7098,0.7098,0.0,0.0,0.0,0.0,0.0,0.0,0.0,0.0,0.0,0.0,0.0,0.0,0.0,0.0,0.0,0.0,0.0,0.0,0.0,0.0,0.0,0.0,0.0,0.0,0.0,0.0,0.0,0.0,0.0,0.0,0.0,0.0,0.0,0.0,0.0,0.0,0.0,0.0,0.0,0.0,0.0,0.0,0.0,0.0,0.0,0.0,0.0,0.0,0.0,0.0,0.0,0.0,0.0,0.0,0.0,0.0,0.0,0.0,0.0,0.0,0.0,0.0,0.0,0.0,0.0,0.0,0.0,0.0,0.0,0.0,0.0,0.0,0.0,0.0,0.0,0.0,0.0,0.0,0.0,0.0,0.0,0.0,0.0,0.0,0.0,0.0,0.113,0.2138,0.284,0.3335,0.4193,0.5547,0.5542,0.608,0.7373,0.7339,0.7292,0.7231,0.7231,0.7265,0.7274,0.7258,0.7231,0.7231,0.7231,0.7152,0.7105,0.7227,0.7285,0.7231,0.7231,0.7231,0.7224,0.7119,0.7098,0.7098,0.0,0.0,0.0,0.0,0.0,0.0,0.0,0.0,0.0,0.0,0.0,0.0,0.0,0.0,0.0,0.0,0.0,0.0,0.0,0.0,0.0,0.0,0.0,0.0,0.0,0.0,0.0,0.0,0.0,0.0,0.0,0.0,0.0,0.0,0.0,0.0,0.0,0.0,0.0,0.0,0.0,0.0,0.0,0.0,0.0,0.0,0.0,0.0112,0.0224,0.0224,0.0112,0.0,0.0,0.0,0.0,0.0,0.0,0.0,0.0,0.0,0.0,0.0,0.0,0.0,0.0,0.0,0.0,0.0,0.0,0.0,0.0,0.0,0.0,0.0,0.0,0.0,0.0,0.0,0.0,0.0,0.0,0.0,0.0,0.0,0.0,0.0,0.1003,0.1621,0.1618,0.2666,0.3901,0.5228,0.5275,0.5889,0.7224,0.725,0.7283,0.7419,0.7433,0.7461,0.7597,0.7455,0.7439,0.7439,0.7439,0.7312,0.7159,0.7482,0.7516,0.7439,0.7439,0.7348,0.7236,0.7052,0.6903,0.6802,0.0,0.0,0.0,0.0,0.0,0.0,0.0,0.0,0.0,0.0,0.0,0.0,0.0,0.0,0.0,0.0,0.0,0.0,0.0,0.0,0.0,0.0,0.0,0.0,0.0,0.0,0.0,0.0,0.0,0.0,0.0,0.0,0.0,0.0,0.0,0.0,0.0,0.0,0.0,0.0,0.0,0.0,0.0,0.0,0.0,0.0,0.0,0.0728,0.1733,0.1733,0.0952,0.0,0.0,0.0,0.0,0.0,0.0,0.0,0.0,0.0,0.0,0.0,0.0,0.0,0.0,0.0,0.0,0.0,0.0,0.0,0.0,0.0,0.0,0.0,0.0,0.0,0.0,0.0,0.0,0.0,0.0,0.0,0.0,0.0,0.0,0.0,0.0244,0.0388,0.0381,0.0628,0.1411,0.2719,0.2672,0.3781,0.6122,0.5009,0.5447,0.7419,0.7495,0.757,0.7597,0.7563,0.755,0.755,0.755,0.7529,0.7509,0.757,0.7584,0.755,0.755,0.6929,0.5977,0.595,0.5281,0.4513,0.0,0.0,0.0,0.0,0.0,0.0,0.0,0.0,0.0,0.0,0.0,0.0,0.0,0.0,0.0,0.0,0.0,0.0,0.0,0.0,0.0,0.0,0.0,0.0,0.0,0.0,0.0,0.0,0.0,0.0,0.0,0.0,0.0,0.0,0.0,0.0,0.0,0.0,0.0,0.0,0.0,0.0,0.0,0.0,0.0,0.0116,0.092,0.2176,0.3483,0.3398,0.2882,0.209,0.1291,0.1064,0.0894,0.0222,0.0,0.0,0.0,0.0,0.0,0.0,0.0,0.0,0.0,0.0,0.0,0.0,0.0,0.0,0.0,0.0,0.0,0.0,0.0,0.0,0.0,0.0,0.0,0.0,0.0555,0.0958,0.0958,0.0353,0.0,0.0,0.0,0.0,0.0,0.0593,0.1587,0.2922,0.2875,0.409,0.6737,0.5417,0.536,0.6632,0.6703,0.711,0.7807,0.7733,0.7699,0.7699,0.7699,0.7658,0.7611,0.7753,0.7767,0.7699,0.7699,0.7263,0.6625,0.6567,0.5701,0.4661,0.0,0.0,0.0,0.0,0.0,0.0,0.0,0.0,0.0,0.0,0.0,0.0,0.0,0.0,0.0,0.0,0.0,0.0,0.0,0.0,0.0,0.0,0.0,0.0,0.0,0.0,0.0,0.0,0.0,0.0,0.0,0.0,0.0,0.0,0.0,0.0,0.0,0.0,0.0,0.0,0.0,0.0,0.0,0.0,0.0177,0.0591,0.2,0.3521,0.4915,0.5077,0.494,0.4472,0.311,0.2474,0.2021,0.0787,0.0223,0.0,0.0,0.0,0.0,0.0,0.0,0.0,0.0,0.0,0.0,0.0,0.0,0.0,0.0,0.0,0.0,0.0,0.0,0.0101,0.0303,0.0353,0.0404,0.0656,0.1662,0.2364,0.2364,0.136,0.0706,0.0706,0.0454,0.0353,0.0353,0.141,0.2515,0.3616,0.3864,0.5129,0.7459,0.603,0.548,0.584,0.5591,0.623,0.7683,0.7762,0.7848,0.7848,0.7848,0.778,0.7692,0.7887,0.7914,0.7848,0.7848,0.7702,0.744,0.7114,0.6389,0.5616,0.0,0.0,0.0,0.0,0.0,0.0,0.0,0.0,0.0,0.0,0.0,0.0,0.0,0.0,0.0,0.0,0.0,0.0,0.0,0.0,0.0,0.0,0.0,0.0,0.0,0.0,0.0,0.0,0.0,0.0,0.0,0.0,0.0,0.0,0.0,0.0,0.0,0.0,0.0,0.0,0.0,0.0,0.0,0.0,0.0901,0.2215,0.2421,0.3521,0.5097,0.6371,0.5901,0.4849,0.4606,0.358,0.2399,0.2228,0.1131,0.0,0.0,0.0,0.0,0.0,0.0,0.0,0.0,0.0,0.0,0.0,0.0,0.0,0.0,0.0,0.0,0.0,0.0,0.0404,0.1561,0.1712,0.2163,0.3316,0.3616,0.3717,0.3717,0.3566,0.3466,0.3466,0.2364,0.1712,0.1712,0.1912,0.2063,0.2264,0.3416,0.4714,0.6205,0.3764,0.3714,0.5956,0.4802,0.496,0.6331,0.7465,0.7961,0.7961,0.7961,0.7948,0.7934,0.7975,0.7975,0.7961,0.7961,0.726,0.609,0.4903,0.501,0.5625,0.0,0.0,0.0,0.0,0.0,0.0,0.0,0.0,0.0,0.0,0.0,0.0,0.0,0.0,0.0,0.0,0.0,0.0,0.0,0.0,0.0,0.0,0.0,0.0,0.0,0.0,0.0,0.0,0.0,0.0,0.0,0.0,0.0522,0.1499,0.1487,0.2053,0.2995,0.2995,0.2464,0.1559,0.2493,0.2295,0.1478,0.2382,0.3167,0.3952,0.4884,0.6253,0.7747,0.8278,0.8078,0.7354,0.6404,0.5017,0.3593,0.2758,0.1313,0.0,0.0,0.0,0.0,0.0,0.0,0.0,0.0,0.0,0.0,0.0,0.0,0.0,0.0,0.0,0.0,0.0,0.0605,0.1309,0.1912,0.2666,0.3616,0.4972,0.4468,0.4318,0.5022,0.4418,0.4014,0.4014,0.2764,0.2012,0.2012,0.2012,0.2364,0.3115,0.3717,0.5018,0.7086,0.5222,0.4822,0.5982,0.6176,0.6176,0.6032,0.7385,0.7988,0.7988,0.7988,0.7988,0.7988,0.7988,0.7988,0.7988,0.7988,0.764,0.6874,0.4777,0.481,0.56]},{"header":{"parameterUnit":"m.s-1","parameterCategory":1,"la1":30.6,"la2":28.766,"lo1":-90.7593,"lo2":-88.6598,"dy":0.0162,"dx":0.0183,"nx":116,"ny":114,"refTime":"2024-06-21T12:00:00:Z","depth":0,"parameterNumber":3,"parameterNumberName":"V-component_of_WINDS"},"data":[0.0,0.0,0.0,0.0,0.0,0.0,0.0,0.0,0.0,0.0,0.0,0.0,0.0,0.0,0.0,0.0,0.0,0.0,0.0,0.0,0.0,0.0,0.0,0.0,0.0,0.0,0.0,0.0,0.0,0.0,0.0,0.0,0.0,0.0,0.0,0.0,0.0,0.0,0.0,0.0,0.0,0.0,0.0,0.0,0.0,0.0,0.0,0.0,0.0,0.0,0.0,0.0,0.0,0.0,0.0,0.0,0.0,0.0,0.0,0.0,0.0,0.0,0.0,0.0,0.0,0.0,0.0,0.0,0.0,0.0,0.0,0.0,0.0,0.0,0.0,0.0,0.0,0.0,0.0,0.0,0.0,0.0,0.0,0.0,0.0,0.0,0.0,0.0,0.0,0.0,0.0,0.0,0.0,0.0,0.0,0.0,0.0,0.0,0.0,0.0,0.0,0.0,0.0,0.0,0.0,0.0,0.0,0.0,0.0,0.0,0.0,0.0,0.0,0.0,0.0,0.0,0.0,0.0,0.0,0.0,0.0,0.0,0.0,0.0,0.0,0.0,0.0,0.0,0.0,0.0,0.0,0.0,0.0,0.0,0.0,0.0,0.0,0.0,0.0,0.0,0.0,0.0,0.0,0.0,0.0,0.0,0.0,0.0,0.0,0.0,0.0,0.0,0.0,0.0,0.0,0.0,0.0,0.0,0.0,0.0,0.0,0.0,0.0,0.0,0.0,0.0,0.0,0.0,0.0,0.0,0.0,0.0,0.0,0.0,0.0,0.0,0.0,0.0,0.0,0.0,0.0,0.0,0.0,0.0,0.0,0.0,0.0,0.0,0.0,0.0,0.0,0.0,0.0,0.0,0.0,0.0,0.0,0.0,0.0,0.0,0.0,0.0,0.0,0.0,0.0,0.0,0.0,0.0,0.0,0.0,0.0,0.0,0.0,0.0,0.0,0.0,0.0,0.0,0.0,0.0,0.0,0.0,0.0,0.0,0.0,0.0,0.0,0.0,0.0,0.0,0.0,0.0,0.0,0.0,0.0,0.0,0.0,0.0,0.0,0.0,0.0,0.0,0.0,0.0,0.0,0.0,0.0,0.0,0.0,0.0,0.0,0.0,0.0,0.0,0.0,0.0,0.0,0.0,0.0,0.0,0.0,0.0,0.0,0.0,0.0,0.0,0.0,0.0,0.0,0.0,0.0,0.0,0.0,0.0,0.0,0.0,0.0,0.0,0.0,0.0,0.0,0.0,0.0,0.0,0.0,0.0,0.0,0.0,0.0,0.0,0.0,0.0,0.0,0.0,0.0,0.0,0.0,0.0,0.0,0.0,0.0,0.0,0.0,0.0,0.0,0.0,0.0,0.0,0.0,0.0,0.0,0.0,0.0,0.0,0.0,0.0,0.0,0.0,0.0,0.0,0.0,0.0,0.0,0.0,0.0,0.0,0.0,0.0,0.0,0.0,0.0,0.0,0.0,0.0,0.0,0.0,0.0,0.0,0.0,0.0,0.0,0.0,0.0,0.0,0.0,0.0,0.0,0.0,0.0,0.0,0.0,0.0,0.0,0.0,0.0,0.0,0.0,0.0,0.0,0.0,0.0,0.0,0.0,0.0,0.0,0.0,0.0,0.0,0.0,0.0,0.0,0.0,0.0,0.0,0.0,0.0,0.0,0.0,0.0,0.0,0.0,0.0,0.0,0.0,0.0,0.0,0.0,0.0,0.0,0.0,0.0,0.0,0.0,0.0,0.0,0.0,0.0,0.0,0.0,0.0,0.0,0.0,0.0,0.0,0.0,0.0,0.0,0.0,0.0,0.0,0.0,0.0,0.0,0.0,0.0,0.0,0.0,0.0,0.0,0.0,0.0,0.0,0.0,0.0,0.0,0.0,0.0,0.0,0.0,0.0,0.0,0.0,0.0,0.0,0.0,0.0,0.0,0.0,0.0,0.0,0.0,0.0,0.0,0.0,0.0,0.0,0.0,0.0,0.0,0.0,0.0,0.0,0.0,0.0,0.0,0.0,0.0,0.0,0.0,0.0,0.0,0.0,0.0,0.0,0.0,0.0,0.0,0.0,0.0,0.0,0.0,0.0,0.0,0.0,0.0,0.0,0.0,0.0,0.0,0.0,0.0,0.0,0.0,0.0,0.0,0.0,0.0,0.0,0.0,0.0,0.0,0.0,0.0,0.0,0.0,0.0,0.0,0.0,0.0,0.0,0.0,0.0,0.0,0.0,0.0,0.0,0.0,0.0,0.0,0.0,0.0,0.0,0.0,0.0,0.0,0.0,0.0,0.0,0.0,0.0,0.0,0.0,0.0,0.0,0.0,0.0,0.0,0.0,0.0,0.0,0.0,0.0,0.0,0.0,0.0,0.0,0.0,0.0,0.0,0.0,0.0,0.0,0.0,0.0,0.0,0.0,0.0,0.0,0.0,0.0,0.0,0.0,0.0,0.0,0.0,0.0,0.0,0.0,0.0,0.0,0.0,0.0,0.0,0.0,0.0,0.0,0.0,0.0,0.0,0.0,0.0,0.0,0.0,0.0,0.0,0.0,0.0,0.0,0.0,0.0,0.0,0.0,0.0,0.0,0.0,0.0,0.0,0.0,0.0,0.0,0.0,0.0,0.0,0.0,0.0,0.0,0.0,0.0,0.0,0.0,0.0,0.0,0.0,0.0,0.0,0.0,0.0,0.0,0.0,0.0,0.0,0.0,0.0,0.0,0.0,0.0,0.0,0.0,0.0,0.0,0.0,0.0,0.0,0.0,0.0,0.0,0.0,0.0,0.0,0.0,0.0,0.0,0.0,0.0,0.0,0.0,0.0,0.0,0.0,0.0,0.0,0.0,0.0,0.0,0.0,0.0,0.0,0.0,0.0,0.0,0.0,0.0,0.0,0.0,0.0,0.0,0.0,0.0,0.0,0.0,0.0,0.0,0.0,0.0,0.0,0.0,0.0,0.0,0.0,0.0,0.0,0.0,0.0,0.0,0.0,0.0,0.0,0.0,0.0,0.0,0.0,0.0,0.0,0.0,0.0,0.0,0.0,0.0,0.0,0.0,0.0,0.0,0.0,0.0,0.0,0.0,0.0,0.0,0.0,0.0,0.0,0.0,0.0,0.0,0.0,0.0,0.0,0.0,0.0,0.0,0.0,0.0,0.0,0.0,0.0,0.0,0.0,0.0,0.0,0.0,0.0,0.0,0.0,0.0,0.0,0.0,0.0,0.0,0.0,0.0,0.0,0.0,0.0,0.0,0.0,0.0,0.0,0.0,0.0,0.0,0.0,0.0,0.0,0.0,0.0,0.0,0.0,0.0,0.0,0.0,0.0,0.0,0.0,0.0,0.0,0.0,0.0,0.0,0.0,0.0,0.0,0.0,0.0,0.0,0.0,0.0,0.0,0.0,0.0,0.0,0.0,0.0,0.0,0.0,0.0,0.0,0.0,0.0,0.0,0.0,0.0,0.0,0.0,0.0,0.0,0.0,0.0,0.0,0.0,0.0,0.0,0.0,0.0,0.0,0.0,0.0,0.0,0.0,0.0,0.0,0.0,0.0,0.0,0.0,0.0,0.0,0.0,0.0,0.0,0.0,0.0,0.0,0.0,0.0,0.0,0.0,0.0,0.0,0.0,0.0,0.0,0.0,0.0,0.0,0.0,0.0,0.0,0.0,0.0,0.0,0.0,0.0,0.0,0.0,0.0,0.0,0.0,0.0,0.0,0.0,0.0,0.0,0.0,0.0,0.0,0.0,0.0,0.0,0.0,0.0,0.0,0.0,0.0,0.0,0.0,0.0,0.0,0.0,0.0,0.0,0.0,0.0,0.0,0.0,0.0,0.0,0.0,0.0,0.0,0.0,0.0,0.0,0.0,0.0,0.0,0.0,0.0,0.0,0.0,0.0,0.0,0.0,0.0,0.0,0.0,0.0,0.0,0.0,0.0,0.0,0.0,0.0,0.0,0.0,0.0,0.0,0.0,0.0,0.0,0.0,0.0,0.0,0.0,0.0,0.0,0.0,0.0,0.0,0.0,0.0,0.0,0.0,0.0,0.0,0.0,0.0,0.0,0.0,0.0,0.0,0.0,0.0,0.0,0.0,0.0,0.0,0.0,0.0,0.0,0.0,0.0,0.0,0.0,0.0,0.0,0.0,0.0,0.0,0.0,0.0,0.0,0.0,0.0,0.0,0.0,0.0,0.0,0.0,0.0,0.0,0.0,0.0,0.0,0.0,0.0,0.0,0.0,0.0,0.0,0.0,0.0,0.0,0.0,0.0,0.0,0.0,0.0,0.0,0.0,0.0,0.0,0.0,0.0,0.0,0.0,0.0,0.0,0.0,0.0,0.0,0.0,0.0,0.0,0.0,0.0,0.0,0.0,0.0,0.0,0.0,0.0,0.0,0.0,0.0,0.0,0.0,0.0,0.0,0.0,0.0,0.0,0.0,0.0,0.0,0.0,0.0,0.0,0.0,0.0,0.0,0.0,0.0,0.0,0.0,0.0,0.0,0.0,0.0,0.0,0.0,0.0,0.0,0.0,0.0,0.0,0.0,0.0,0.0,0.0,0.0,0.0,0.0,0.0,0.0,0.0,0.0,0.0,0.0,0.0,0.0,0.0,0.0,0.0,0.0,0.0,0.0,0.0,0.0,0.0,0.0,0.0,0.0,0.0,0.0,0.0,0.0,0.0,0.0,0.0,0.0,0.0,0.0,0.0,0.0,0.0,0.0,0.0,0.0,0.0,0.0,0.0,0.0,0.0,0.0,0.0,0.0,0.0,0.0,0.0,0.0,0.0,0.0,0.0,0.0,0.0,0.0,0.0,0.0,0.0,0.0,0.0,0.0,0.0,0.0,0.0,0.0,0.0,0.0,0.0,0.0,0.0,0.0,0.0,0.0,0.0,0.0,0.0,0.0,0.0,0.0,0.0,0.0,0.0,0.0,0.0,0.0,0.0,0.0,0.0,0.0,0.0,0.0,0.0,0.0,0.0,0.0,0.0,0.0,0.0,0.0,0.0,0.0,0.0,0.0,0.0,0.0,0.0,0.0,0.0,0.0,0.0,0.0,0.0,0.0,0.0,0.0,0.0,0.0,0.0,0.0,0.0,0.0,0.0,0.0,0.0,0.0,0.0,0.0,0.0,0.0,0.0,0.0,0.0,0.0,0.0,0.0,0.0,0.0,0.0,0.0,0.0,0.0,0.0,0.0,0.0,0.0,0.0,0.0,0.0,0.0,0.0,0.0,0.0,0.0,0.0,0.0,0.0,0.0,0.0,0.0,0.0,0.0,0.0,0.0,0.0,0.0,0.0,0.0,0.0,0.0,0.0,0.0,0.0,0.0,0.0,0.0,0.0,0.0,0.0,0.0,0.0,0.0,0.0,0.0,0.0,0.0,0.0,0.0,0.0,0.0,0.0,0.0,0.0,0.0,0.0,0.0,0.0,0.0,0.0,0.0,0.0,0.0,0.0,0.0,0.0,0.0,0.0,0.0,0.0,0.0,0.0,0.0,0.0,0.0,0.0,0.0,0.0,0.0,0.0,0.0,0.0,0.0,0.0,0.0,0.0,0.0,0.0,0.0,0.0,0.0,0.0,0.0,0.0,0.0,0.0,0.0,0.0,0.0,0.0,0.0,0.0,0.0,0.0,0.0,0.0,0.0,0.0,0.0,0.0,0.0,0.0,0.0,0.0,0.0,0.0,0.0,0.0,0.0,0.0,0.0,0.0,0.0,0.0,0.0,0.0,0.0,0.0,0.0,0.0,0.0,0.0,0.0,0.0,0.0,0.0,0.0,0.0,0.0,0.0,0.0,0.0,0.0,0.0,0.0,0.0,0.0,0.0,0.0,0.0,0.0,0.0,0.0,0.0,0.0,0.0,0.0,0.0,0.0,0.0,0.0,0.0,0.0,0.0,0.0,0.0,0.0,0.0,0.0,0.0,0.0,0.0,0.0,0.0,0.0,0.0,0.0,0.0,0.0,0.0,0.0,0.0,0.0,0.0,0.0,0.0,0.0,0.0,0.0,0.0,0.0,0.0,0.0,0.0,0.0,0.0,0.0,0.0,0.0,0.0,0.0,0.0,0.0,0.0,0.0,0.0,0.0,0.0,0.0,0.0,0.0,1.4603,1.4947,0.0,0.0,0.0,0.0,0.0,0.0,0.0,0.0,0.0,0.0,0.0,0.0,0.0,0.0,0.0,0.0,0.0,0.0,0.0,0.0,0.0,0.0,0.0,2.1861,2.2627,2.2869,2.3257,2.3536,2.3704,2.3968,2.3824,2.3201,2.2783,2.2108,2.1131,1.9966,1.9041,1.8355,1.691,1.5329,1.3645,1.3389,1.3406,1.3607,0.0,0.0,0.0,0.0,0.0,0.0,0.0,0.0,0.0,0.0,0.0,0.0,0.0,0.0,0.0,0.0,0.0,0.0,0.0,0.0,0.0,0.0,0.0,0.0,0.0,0.0,0.0,0.0,0.0,0.0,0.0,0.0,0.0,0.0,0.0,0.0,0.0,0.0,0.0,0.0,0.0,0.0,0.0,0.0,0.0,0.0,0.0,0.0,0.0,0.0,0.0,0.0,0.0,0.0,0.0,0.0,0.0,0.0,0.0,0.0,0.0,0.0,0.0,0.0,0.0,0.0,0.0,0.0,0.0,0.0,1.2538,1.2839,0.0,0.0,0.0,0.0,0.0,0.0,0.0,0.0,0.0,0.0,0.0,0.0,0.0,0.0,0.0,0.0,0.0,0.0,0.0,0.0,0.0,2.0523,2.0185,2.1366,2.2044,2.164,2.201,2.2419,2.276,2.328,2.3438,2.3151,2.2914,2.235,2.1419,2.0331,1.9323,1.834,1.6648,1.454,1.2054,1.0502,1.0148,1.0821,1.0393,0.0,0.0,0.0,0.0,0.0,0.0,0.0,0.0,0.0,0.0,0.0,0.0,0.0,0.0,0.0,0.0,0.0,0.0,0.0,0.0,0.0,0.0,0.0,0.0,0.0,0.0,0.0,0.0,0.0,0.0,0.0,0.0,0.0,0.0,0.0,0.0,0.0,0.0,0.0,0.0,0.0,0.0,0.0,0.0,0.0,0.0,0.0,0.0,0.0,0.0,0.0,0.0,0.0,0.0,0.0,0.0,0.0,0.0,0.0,0.0,0.0,0.0,0.0,1.3295,1.2821,1.2141,1.1999,1.1617,1.1101,1.1485,1.1404,1.1053,1.1604,0.0,0.0,0.0,0.0,0.0,0.0,0.0,0.0,0.0,0.0,0.0,0.0,0.0,0.0,0.0,0.0,0.0,0.0,0.0,1.9585,1.9518,2.0122,2.0508,2.0442,2.0735,2.1121,2.152,2.2563,2.3301,2.3608,2.3562,2.3483,2.3343,2.199,2.093,2.0162,1.6202,1.325,1.1211,0.9337,0.8217,0.7797,0.8415,0.8748,0.8896,0.0,0.0,0.0,0.0,0.0,0.0,0.0,0.0,0.0,0.0,0.0,0.0,0.0,0.0,0.0,0.0,0.0,0.0,0.0,0.0,0.0,0.0,0.0,0.0,0.0,0.0,0.0,0.0,0.0,0.0,0.0,0.0,0.0,0.0,0.0,0.0,0.0,0.0,0.0,0.0,0.0,1.5521,1.5574,0.0,0.0,0.0,0.0,0.0,0.0,0.0,0.0,0.0,0.0,0.0,0.0,0.0,1.7236,1.464,1.5956,1.6109,1.5095,1.4379,1.3992,1.3844,1.316,1.277,1.2649,1.2027,0.0,0.9978,1.0872,0.0,0.0,0.0,0.0,0.0,0.0,0.0,0.0,0.0,0.0,0.0,0.0,0.0,0.0,0.0,0.0,0.0,0.0,0.0,0.0,0.0,1.8826,1.9093,1.8602,1.9135,1.9938,2.0889,2.1776,2.2681,2.3664,2.3868,2.3878,2.3685,2.2502,2.0713,1.83,1.5679,1.3205,1.0952,0.9507,0.8197,0.7071,0.6779,0.6702,0.6778,0.6886,0.0,0.0,0.0,0.0,0.0,0.0,0.0,0.0,0.0,0.0,0.0,0.0,0.0,0.0,0.0,0.0,0.0,0.0,0.0,0.0,0.0,0.0,0.0,0.0,0.0,0.0,0.0,0.0,0.0,0.0,0.0,0.0,0.0,0.0,0.0,0.0,0.0,0.0,0.0,1.7171,1.613,1.5198,1.561,1.633,0.0,0.0,0.0,0.0,0.0,0.0,0.0,0.0,0.0,1.8265,1.8239,1.7833,1.6897,1.7144,1.6835,1.5958,1.5187,1.4443,1.3776,1.3021,1.2537,1.2253,1.2168,1.1793,1.1209,1.1226,1.1132,1.1174,0.0,0.0,0.0,0.0,1.3991,1.3611,0.0,0.0,0.0,0.0,0.0,0.0,0.0,0.0,0.0,0.0,0.0,0.0,1.7354,1.7801,1.7847,1.7107,1.778,1.8744,1.9878,2.1042,2.2177,2.3354,2.3906,2.4066,2.3827,2.2655,2.0399,1.706,1.5669,1.3763,1.1414,1.0136,0.8751,0.7335,0.6226,0.5532,0.5211,0.4999,0.5528,0.6605,0.0,0.0,0.0,0.0,0.0,0.0,0.0,0.0,0.0,0.0,0.0,0.0,0.0,0.0,0.0,0.0,0.0,0.0,0.0,0.0,0.0,0.0,0.0,0.0,0.0,0.0,0.0,0.0,0.0,0.0,0.0,0.0,0.0,0.0,0.0,0.0,0.0,1.7748,1.6843,1.5334,1.617,1.7,0.0,0.0,0.0,0.0,0.0,0.0,1.8606,1.8606,1.8807,1.9183,1.868,1.849,1.8715,1.8151,1.7478,1.6708,1.6172,1.5362,1.4315,1.3929,1.3399,1.2823,1.3254,1.3356,1.3142,1.2164,1.1594,1.1456,1.2741,1.3186,1.3204,1.4211,1.425,1.3835,0.0,0.0,0.0,0.0,0.0,0.0,0.0,0.0,0.0,0.0,0.0,1.8456,1.7841,1.7237,1.6724,1.6387,1.6987,1.7533,1.793,2.043,2.2077,2.253,2.3605,2.419,2.417,2.2688,2.0737,1.8295,1.6519,1.4733,1.2945,1.1026,0.9536,0.8375,0.7376,0.5994,0.4434,0.4039,0.4245,0.4889,0.5586,0.0,0.0,0.0,0.0,0.0,0.0,0.0,0.0,0.0,0.0,0.0,0.0,0.0,0.0,0.0,0.0,0.0,0.0,0.0,0.0,0.0,0.0,0.0,0.0,0.0,0.0,0.0,0.0,0.0,0.0,0.0,0.0,0.0,0.0,0.0,0.0,0.0,0.0,1.655,1.7423,0.0,0.0,0.0,0.0,1.994,1.9784,1.971,1.971,1.971,1.9736,1.9761,1.9709,1.9399,1.8715,1.8661,1.8286,1.755,1.7501,1.7201,1.6656,1.712,1.6757,1.5793,1.6069,1.5918,1.5321,1.3596,1.2778,1.2593,1.3285,1.3365,1.3323,1.5151,1.5804,1.5693,0.0,0.0,0.0,1.942,1.9464,1.9655,2.0196,2.0052,2.0066,2.0542,1.9549,1.8656,1.8168,1.7396,1.6767,1.6401,1.6828,1.7531,1.8516,2.0093,2.1453,2.2468,2.3568,2.3996,2.3566,2.2745,2.1055,1.8387,1.7455,1.5652,1.3065,1.2383,1.119,0.9556,0.8811,0.7764,0.6512,0.5475,0.5232,0.5601,0.632,0.7429,0.0,0.0,0.0,0.0,0.0,0.0,0.0,0.0,0.0,0.0,0.0,0.0,0.0,0.0,0.0,0.0,0.0,0.0,0.0,0.0,0.0,0.0,0.0,0.0,0.0,0.0,0.0,0.0,0.0,0.0,0.0,0.0,0.0,0.0,0.0,0.0,0.0,1.8936,1.949,0.0,1.9964,2.0335,2.0717,2.108,2.105,2.1013,2.1013,2.1013,2.1013,2.1013,2.1013,2.0915,2.0616,2.0616,2.0492,2.0217,1.9762,1.9081,1.8211,1.8382,1.7424,1.5751,1.6857,1.6834,1.6003,1.5967,1.5607,1.5135,1.5861,1.6085,1.6048,1.6353,1.647,1.6404,1.9305,1.9476,0.0,1.9476,1.9572,1.9956,2.0769,2.0735,2.0789,2.125,2.0216,1.9121,1.8335,1.757,1.6993,1.6603,1.7033,1.7649,1.8547,2.0062,2.1345,2.2221,2.3507,2.3959,2.3483,2.3,2.1516,1.8953,1.834,1.6648,1.3934,1.3493,1.2405,1.0895,1.0155,0.9363,0.852,0.7903,0.7216,0.6631,0.7094,0.7905,0.8954,0.0,0.0,0.0,0.0,0.0,0.0,0.0,0.0,0.0,0.0,0.0,0.0,0.0,0.0,0.0,0.0,0.0,0.0,0.0,0.0,0.0,0.0,0.0,0.0,0.0,0.0,0.0,0.0,0.0,0.0,0.0,0.0,0.0,0.0,2.1336,2.1297,2.0221,2.0929,2.1456,2.1239,2.138,2.166,2.2023,2.1815,2.171,2.171,2.1867,2.1983,2.1983,2.214,2.2163,2.1983,2.1983,2.1983,2.196,2.1295,2.0612,1.991,1.9856,1.8814,1.7138,1.8557,1.8635,1.7849,1.8648,1.8675,1.8177,1.7978,1.7801,1.7592,1.7744,1.7637,1.7423,1.962,1.9809,1.9809,1.9809,1.9815,2.0128,2.1021,2.1172,2.1067,2.0685,2.0586,1.9959,1.8388,1.7761,1.7322,1.6971,1.758,1.7945,1.7889,2.036,2.1841,2.1886,2.3373,2.4135,2.4016,2.3433,2.2095,2.0003,1.9147,1.7652,1.559,1.428,1.319,1.2329,1.1432,1.0709,1.0253,1.1118,1.0144,0.7997,0.7795,0.897,1.0722,0.0,0.0,0.0,0.0,0.0,0.0,0.0,0.0,0.0,0.0,0.0,0.0,0.0,0.0,0.0,0.0,0.0,0.0,0.0,0.0,0.0,0.0,0.0,0.0,0.0,0.0,0.0,0.0,0.0,0.0,0.0,0.0,0.0,2.189,2.172,2.1413,2.0385,2.1769,2.2576,2.2026,2.2482,2.2785,2.2785,2.2179,2.1801,2.1801,2.2295,2.2582,2.2582,2.3096,2.3117,2.2582,2.2582,2.2582,2.2582,2.2076,2.1789,2.1787,2.18,2.1208,2.0221,2.1301,2.1472,2.0995,2.1532,2.1754,2.1564,1.9508,1.8315,1.7936,1.9267,1.9327,1.8828,1.9675,1.9809,1.9809,1.9809,2.0397,2.1195,2.2049,2.2685,2.3226,2.3689,2.2433,2.136,2.089,1.9416,1.8376,1.831,1.8873,1.9345,1.9522,2.1451,2.3005,2.3919,2.4414,2.4447,2.4025,2.3843,2.26,2.0269,1.9861,1.8489,1.6221,1.5429,1.4601,1.3741,1.3668,1.3162,1.2423,1.3422,1.3302,1.227,1.1071,1.0646,1.0822,0.0,0.0,0.0,0.0,0.0,0.0,0.0,0.0,0.0,0.0,0.0,0.0,0.0,0.0,0.0,0.0,0.0,0.0,0.0,0.0,0.0,0.0,0.0,0.0,0.0,0.0,0.0,0.0,0.0,0.0,0.0,2.473,2.4513,2.3581,2.392,2.4138,2.384,2.4211,2.4458,2.4311,2.4416,2.4521,2.4521,2.4348,2.4235,2.4235,2.4378,2.4458,2.4458,2.4598,2.4618,2.4458,2.4458,2.4458,2.4458,2.4317,2.3989,2.3549,2.404,2.3376,2.1887,2.3032,2.2969,2.209,2.2643,2.2856,2.2768,2.1792,2.1313,2.1135,2.0919,2.0162,1.9219,1.985,2.0297,2.053,2.053,2.1282,2.2216,2.3102,2.364,2.4116,2.4492,2.3526,2.2483,2.168,2.0514,1.966,1.9284,1.9934,2.0401,2.0549,2.2208,2.3686,2.4833,2.4847,2.4693,2.4425,2.4373,2.3446,2.1578,2.0993,1.9721,1.7782,1.7056,1.6345,1.5728,1.5923,1.5652,1.5192,1.6014,1.5977,1.5258,1.4535,1.3514,1.2439,1.2536,1.2773,1.311,1.3888,1.4539,1.5172,1.615,0.0,0.0,0.0,0.0,0.0,0.0,0.0,0.0,0.0,0.0,0.0,0.0,0.0,0.0,0.0,0.0,0.0,0.0,0.0,0.0,0.0,0.0,0.0,0.0,2.6265,2.601,2.5798,2.5419,2.5202,2.5202,2.5477,2.567,2.567,2.567,2.567,2.567,2.5362,2.5202,2.5202,2.5411,2.5584,2.5753,2.5951,2.6058,2.5991,2.5991,2.5991,2.5991,2.5778,2.5568,2.543,2.5586,2.5088,2.4124,2.4778,2.4695,2.4105,2.443,2.4569,2.4453,0.0,0.0,0.0,0.0,2.099,2.0447,2.0427,2.1197,2.166,2.166,2.2392,2.3244,2.4015,2.4254,2.4286,2.4103,2.405,2.3415,2.1722,2.1423,2.1024,2.0136,2.0853,2.1423,2.1537,2.2886,2.4094,2.5009,2.491,2.4897,2.5009,2.4891,2.4285,2.3251,2.232,2.1193,1.9864,1.8927,1.8319,1.8059,1.8133,1.813,1.81,1.8648,1.831,1.7428,1.7899,1.6798,1.4812,1.4219,1.4356,1.4881,1.4881,1.5219,1.5708,1.5752,0.0,0.0,0.0,0.0,0.0,0.0,0.0,0.0,0.0,0.0,0.0,0.0,0.0,0.0,0.0,0.0,0.0,0.0,0.0,0.0,0.0,0.0,0.0,0.0,2.8003,2.7897,2.7897,2.6539,2.5533,2.551,2.6062,2.6471,2.6471,2.6471,2.6471,2.6471,2.5951,2.5594,2.551,2.603,0.0,0.0,0.0,2.7311,2.7207,2.7207,2.7207,2.7157,2.6713,2.6726,2.7217,2.6742,2.653,2.6578,2.653,2.653,2.6562,2.653,2.648,2.6281,2.4898,2.3569,2.2311,2.1948,2.1922,2.2065,2.2309,2.2591,2.2707,2.2707,2.3441,2.4061,2.4255,2.4807,2.5216,2.5136,2.4609,2.4099,2.3667,2.2923,2.2112,2.1174,2.2345,2.3437,2.4193,2.453,2.4862,2.5224,2.5208,2.517,2.5086,2.4983,2.448,2.3516,2.3107,2.2427,2.1524,2.0692,2.0262,2.0223,2.0318,2.0135,1.9764,2.0379,2.0271,1.9749,1.9857,1.8338,1.5979,1.5847,1.5868,1.6,1.6,1.6065,1.6236,1.673,1.6818,1.6944,1.8299,1.8937,0.0,0.0,0.0,0.0,0.0,0.0,0.0,0.0,0.0,0.0,0.0,0.0,0.0,0.0,0.0,0.0,0.0,0.0,0.0,2.9166,2.8513,2.7897,2.7897,2.7734,2.755,2.7382,2.7511,2.7581,2.7581,2.7581,2.7581,2.7581,2.8045,2.806,2.7422,2.8087,2.8233,2.7646,2.7718,2.7747,2.7762,2.7762,2.7762,2.7762,2.764,0.0,2.7977,2.7875,2.7972,2.8141,2.7932,2.7972,2.8141,2.7919,2.7538,2.6993,2.5967,2.4872,2.3867,2.3785,2.3412,2.2938,2.4155,2.398,2.3636,2.3636,2.433,2.4912,2.4912,2.5226,2.5489,2.5461,2.5117,2.4726,2.4297,2.3818,2.3194,2.2319,2.3272,2.4276,2.5176,2.5201,2.5258,2.5402,2.5406,2.5367,2.5293,2.5282,2.5026,2.4536,2.3914,2.34,2.2985,2.2323,2.1988,2.2008,2.2293,2.2257,2.2002,2.2329,2.2191,2.1781,2.1781,2.0846,1.9331,1.8631,1.8356,1.8319,1.8163,1.8097,1.8125,1.8238,1.8121,1.8043,1.8879,1.9312,1.9677,0.0,0.0,0.0,0.0,0.0,0.0,0.0,0.0,0.0,0.0,0.0,0.0,0.0,0.0,2.9694,3.1464,0.0,2.9946,3.0772,2.9701,2.8815,2.8815,2.8902,2.8684,2.7974,2.83,2.8542,2.8464,2.8449,2.8449,2.8449,2.8847,2.8912,2.8528,2.9266,2.9669,2.9587,2.9199,2.9099,2.9437,2.901,2.8815,2.8815,2.8815,2.8846,2.8952,2.8952,2.9037,2.9123,2.9016,2.9037,2.9133,2.9058,2.8564,2.7837,2.6975,2.5921,2.4827,2.446,2.4172,2.4016,2.5504,2.5099,2.4557,2.4557,2.5099,2.5524,2.5524,2.5539,2.5506,2.5504,2.5512,2.5286,2.461,2.4563,2.4296,2.3656,2.3969,2.458,2.545,2.5437,2.5431,2.5489,2.5491,2.5503,2.5485,2.5503,2.5503,2.5485,2.4685,2.4296,2.4293,2.3802,2.3574,2.36,2.391,2.4019,2.4019,2.4019,2.384,2.352,2.352,2.3286,2.2849,2.1703,2.1078,2.0762,2.0479,2.0353,2.0289,2.0003,1.9831,1.9762,1.9865,2.0099,2.0553,2.1414,2.1842,0.0,0.0,0.0,0.0,0.0,0.0,0.0,0.0,2.8329,2.9177,2.9804,3.064,3.1636,3.293,3.209,3.1467,3.2108,3.0973,2.9969,2.9972,2.9899,2.9438,2.8397,2.8941,2.9375,2.9377,2.9386,2.9457,2.9615,2.9814,2.9877,2.9697,3.0454,3.1088,3.1464,3.0812,3.0613,3.1004,3.0307,2.9875,2.9686,2.9686,2.9712,2.9754,2.9754,2.9796,2.9847,2.9886,2.984,2.9817,2.9907,2.9448,2.8634,2.8011,2.7024,2.5792,2.4767,2.4573,2.4809,2.5444,2.558,2.5546,2.5546,2.5624,2.5663,2.5663,2.5621,2.5558,2.5518,2.554,2.5545,2.5388,2.5455,2.5467,2.5331,2.4705,2.4632,2.5452,2.5484,2.5484,2.5491,2.5491,2.5497,2.5506,2.5501,2.5499,2.5507,2.5379,2.5328,2.5325,2.5071,2.4973,2.4969,2.4832,2.4798,2.4798,2.4798,2.4749,2.47,2.47,2.4689,2.4591,2.4451,2.352,2.2223,2.2026,2.1931,2.19,2.1701,2.129,2.0987,2.1473,2.1338,2.1241,2.2515,2.3204,2.3756,2.4725,2.5958,2.7417,2.9331,2.9998,3.0352,0.0,3.1522,3.1779,3.1864,3.1996,3.2109,3.2222,3.2138,3.2117,3.2246,3.1524,3.098,3.104,3.0579,3.0078,2.971,2.9645,2.9936,3.0687,3.08,3.1073,3.1806,3.251,3.2596,3.1891,3.2623,3.2766,3.2119,3.2006,3.1647,3.1004,3.0891,3.0458,2.9686,2.9686,2.9788,2.9969,2.9969,3.012,3.0424,3.0486,3.0397,3.0231,3.0424,3.0037,2.9295,2.9198,2.8611,2.7559,2.5483,2.4784,2.4816,2.5517,2.5659,2.5703,2.5703,2.5703,2.5703,2.5703,2.5657,2.5597,2.5542,2.5531,2.5568,2.5577,2.5605,2.5815,2.6326,2.5937,2.5859,2.6245,2.6211,2.5977,2.5506,2.5505,2.55,2.5515,2.5499,2.5499,2.5515,2.6004,2.6244,2.6245,2.6131,2.6322,2.6792,2.5624,2.5405,2.5841,2.5366,2.5444,2.588,2.588,2.6196,2.6667,2.671,2.63,2.552,2.4016,2.3442,0.0,2.3108,2.2776,2.2573,2.2916,2.2764,2.2725,2.3803,2.4242,2.4635,2.6153,2.7607,2.8897,2.9722,2.9981,3.0189,3.0551,3.1225,3.175,3.184,3.275,3.351,3.3504,3.3516,3.3396,3.2903,3.2106,3.139,3.0935,3.0622,3.0439,3.0315,3.0695,3.103,3.1106,3.1123,3.1475,3.23,3.3127,3.3425,3.3088,3.383,3.4182,3.4005,3.3551,3.2974,3.2293,3.1791,3.1091,3.0227,3.0227,3.0258,3.0351,3.0351,3.0445,3.0574,3.061,3.0565,3.0499,3.0619,3.0431,3.0053,2.9652,2.9268,2.8692,2.6695,2.5964,2.5882,2.5594,2.5659,2.5703,2.5703,2.5703,2.5703,2.5703,2.5657,2.5602,2.5602,2.5577,2.5568,2.5599,2.5602,2.5947,2.6788,2.6786,2.6846,2.7148,2.7055,2.6702,2.6112,2.6046,2.6022,2.5994,2.6019,2.6019,2.5994,2.6632,2.695,2.6953,2.6937,2.7232,2.7771,2.6461,2.6245,2.6788,2.6167,2.6245,2.6827,2.6827,2.7215,2.7762,2.7879,2.7929,2.7685,2.5923,2.5115,2.4851,2.4508,2.4174,2.3877,2.4044,2.398,2.4097,2.5198,2.5802,2.6413,2.7847,2.898,2.978,2.9998,3.0135,3.0304,3.0553,3.1293,3.1849,3.1706,3.2771,3.3757,3.3777,3.3952,3.4008,3.3621,3.2839,3.2072,3.1439,3.0936,3.07,3.0975,3.1523,3.1995,3.2132,3.213,3.2439,3.3305,3.3909,3.4251,3.4251,3.4809,3.5195,3.5412,3.4839,3.4218,3.3547,3.2694,3.1834,3.0975,3.0703,3.0583,3.0586,3.0587,3.0603,3.0603,3.0591,3.0601,3.0603,3.066,3.0658,3.0567,3.0077,2.9842,2.9608,2.8078,2.7195,2.6727,2.5594,2.5659,2.5703,2.5703,2.5703,2.5703,2.5703,2.5657,2.5602,2.5602,2.5601,2.5601,2.5602,2.5602,2.5935,2.6729,2.6801,2.7148,2.7995,2.7834,2.7654,2.7649,2.7444,2.7292,2.7259,2.7325,2.7292,2.7259,2.7331,2.7395,2.7395,2.7363,2.7407,2.7407,2.7368,2.7336,2.7374,2.7336,2.7336,2.7374,2.7374,2.7374,2.7429,2.7614,2.7705,2.7681,2.762,2.7064,2.6292,2.6022,2.5424,2.4775,2.4782,2.4782,2.5077,2.6653,2.8265,2.9547,2.9631,2.9723,2.9999,3.0769,3.1239,3.1729,3.2527,3.2934,3.2898,3.2049,3.1873,3.1898,3.1966,3.2625,3.344,3.4386,3.3833,3.3267,3.323,3.1775,3.0993,3.1853,3.197,3.2685,3.4414,3.448,3.4711,3.5525,3.5642,3.5638,3.5638,3.5677,3.568,3.568,3.5642,3.5259,3.4487,3.3586,3.273,3.1837,3.1014,3.0583,3.0589,3.0613,3.0586,3.0586,3.0613,3.0598,3.0598,3.0595,3.0595,3.0598,3.0592,3.0553,3.0478,2.9577,2.8225,2.6886,2.5518,2.5611,2.5703,2.5703,2.5703,2.5703,2.5656,2.5658,2.5661,2.5661,2.6118,0.0,0.0,0.0,0.0,0.0,2.7393,2.7402,2.7676,2.7975,2.7944,2.7404,2.7047,2.6856,2.6826,2.6599,2.647,2.6451,2.7019,2.7326,2.7326,2.782,2.809,2.8185,2.7503,2.7233,2.7289,2.6702,2.7372,2.8802,2.8596,2.9555,3.1042,3.0452,3.0305,3.037,0.0,2.8338,2.6597,2.6436,2.5761,2.4962,2.5103,2.5443,2.6121,2.7787,2.8798,2.9477,2.9908,3.0194,3.0397,3.0659,3.0807,3.094,3.1283,3.1395,3.1328,3.1086,3.1934,3.2747,3.2756,3.3976,3.4879,3.4643,3.4375,3.4022,3.3436,3.2849,3.2614,3.2888,3.3435,3.4022,3.4648,3.4643,3.4986,3.5844,3.5883,3.5883,3.5883,3.5883,3.5883,3.5883,3.5336,3.4633,3.3775,3.2954,3.2095,3.1237,3.0857,3.0664,3.0664,3.0639,3.0611,3.0609,3.0606,3.0583,3.0583,3.0583,3.0583,3.0583,3.0583,3.0583,3.0544,3.0269,2.9452,2.8403,2.5522,2.5611,2.5703,2.5662,2.5661,0.0,0.0,0.0,0.0,0.0,0.0,0.0,0.0,0.0,0.0,0.0,0.0,2.7304,2.7811,2.8026,2.8026,2.7774,2.7332,2.7068,2.7068,2.6813,2.6814,2.7067,2.7645,2.8043,2.8319,2.8799,2.9042,2.9106,2.8471,2.8206,2.827,2.7679,2.8428,2.9958,2.9888,3.099,3.2572,3.2075,3.2,0.0,3.1278,2.9722,2.8001,2.7634,2.6836,2.6046,2.621,2.6754,2.7533,2.8635,2.9308,2.98,3.0233,3.0454,3.0618,3.0596,3.0581,3.0545,3.0483,3.0681,3.087,3.0937,3.2092,3.3202,3.3613,3.4634,3.5363,3.514,3.488,3.4492,3.3904,3.3551,3.3473,3.3786,3.4333,3.4803,3.5117,3.5156,3.539,3.5933,3.5976,3.5976,3.5972,3.5976,3.6016,3.6016,3.5469,3.4883,3.4336,3.3516,3.25,3.1285,3.0867,3.065,3.0648,3.058,3.0577,3.0577,3.0541,3.0521,3.0521,3.0521,3.0521,3.0521,3.0521,3.0521,3.0521,3.0521,3.0168,2.959,2.5602,2.5659,2.5663,0.0,0.0,0.0,0.0,0.0,0.0,0.0,0.0,0.0,0.0,0.0,0.0,0.0,0.0,0.0,2.824,2.787,2.7912,2.8659,2.8183,2.7869,2.7869,2.7855,2.8179,2.887,2.8906,2.9299,2.9973,3.0062,3.0078,3.0074,3.011,3.0125,3.0106,3.0106,3.0436,3.0914,3.1161,3.1644,3.2226,3.2546,3.2745,3.2768,3.2043,3.1255,3.0457,2.9484,2.8626,2.7972,2.7978,2.8536,2.9209,2.926,2.9913,3.0611,3.0591,3.0581,3.0584,3.06,3.0589,3.051,3.0333,3.0907,3.1516,3.1574,3.228,3.3214,3.4352,3.4653,3.5021,3.5937,3.5351,3.4803,3.4747,3.4001,3.3767,3.4587,3.4665,3.5027,3.5898,3.6016,3.5973,3.5901,3.597,3.5972,3.5901,3.597,3.5976,3.5976,3.5937,3.5898,3.5859,3.4961,3.3628,3.1923,3.1008,3.0577,3.0574,3.0521,3.047,3.0505,3.0447,3.0385,3.0385,3.0385,3.0385,3.0385,3.0385,3.0385,3.0385,3.0373,3.0373,3.0292,0.0,0.0,0.0,0.0,0.0,0.0,0.0,0.0,0.0,0.0,0.0,0.0,0.0,0.0,0.0,0.0,0.0,0.0,2.6088,2.6812,2.7308,2.7333,2.7387,2.7472,2.7472,2.7162,2.7106,2.7277,2.7843,2.8203,2.8391,2.9554,2.9954,2.9756,3.0314,3.0442,3.0244,3.0244,3.1061,3.2358,3.2268,3.3202,3.4541,3.3891,3.3747,3.3726,3.2932,3.2483,3.206,3.0556,2.9506,2.8797,2.8864,2.9029,2.9315,2.999,3.0401,3.066,3.0544,3.0558,3.0543,3.0429,3.0324,3.0237,2.9966,3.0688,3.1377,3.1384,3.2739,3.4023,3.4318,3.5479,3.6482,3.685,3.6657,3.6506,3.6599,3.5858,3.5389,3.5623,3.5623,3.5741,3.5976,3.597,3.5862,3.5761,3.5855,3.5861,3.5761,3.5775,3.5785,3.5785,3.5198,3.4574,3.3916,3.2396,3.1412,3.0964,3.0648,3.0521,3.0517,3.0472,3.0442,3.0403,3.0402,3.0385,3.0385,3.0385,3.0385,3.0385,3.0385,3.0385,3.0367,3.0163,3.0115,3.007,0.0,0.0,0.0,0.0,0.0,0.0,0.0,0.0,0.0,0.0,0.0,0.0,0.0,0.0,0.0,0.0,0.0,0.0,0.0,2.673,2.7059,2.7252,2.7107,2.7115,2.7303,2.7443,2.7594,2.7836,2.8622,2.905,2.9156,3.0002,3.0305,3.0142,3.0554,3.0654,3.0542,3.093,3.1792,0.0,0.0,3.4249,3.5454,3.4946,3.484,3.4834,3.3965,3.3615,3.3408,3.2058,3.1289,3.0839,3.0607,3.0577,3.0603,3.0569,3.0585,3.0633,3.0543,3.0503,3.0393,3.0183,3.0062,2.9923,2.9674,3.0684,3.1703,3.1783,3.3358,3.4759,3.4891,3.607,3.7058,3.7108,3.7444,3.7702,3.7763,3.7069,3.6562,3.6562,3.6208,3.597,3.597,3.5861,3.5758,3.5667,3.5746,3.5602,3.5123,3.5468,3.5376,3.4643,3.4559,3.4092,3.3203,3.1799,3.1096,3.0974,3.049,3.0225,3.0158,3.0129,3.008,3.008,3.008,3.008,3.008,3.008,3.008,3.008,3.008,3.008,3.0066,2.9916,2.9869,2.9853,0.0,0.0,0.0,0.0,0.0,0.0,0.0,0.0,0.0,2.5331,2.6164,2.6828,2.6928,2.7698,0.0,0.0,0.0,0.0,0.0,0.0,2.7061,2.7734,2.7184,2.7065,2.7422,2.8152,2.877,2.9202,3.0038,3.0496,3.0699,3.0797,3.0858,3.0931,3.0931,3.0968,3.1041,3.1838,3.2504,3.3126,3.4097,3.488,3.5538,0.0,3.5771,3.5769,3.4937,3.4649,3.4544,3.3779,3.342,3.3161,3.2589,3.2362,3.2108,3.1051,3.0654,3.0531,3.0505,3.0332,3.0056,2.9893,2.9742,2.9626,2.9556,3.0921,3.2295,3.2554,3.4056,3.5421,3.567,3.6476,3.7116,3.7163,3.7831,3.8415,3.8539,3.7912,3.738,3.7263,3.654,3.6007,3.5892,3.5755,3.5667,3.5596,3.5638,3.5336,3.4487,3.5245,3.4952,3.3368,3.3937,3.3813,3.2965,3.2003,3.1416,3.1245,3.0484,2.9983,2.9686,2.9799,2.9799,2.9686,2.9686,2.9686,2.9686,2.9686,2.9686,2.9686,2.9686,2.9686,2.9715,2.9688,2.968,2.9671,0.0,0.0,0.0,0.0,0.0,0.0,0.0,0.0,2.5392,2.5375,2.6783,2.8,2.8599,2.9429,0.0,0.0,0.0,0.0,0.0,0.0,0.0,2.6982,2.7616,2.7973,2.8027,2.8456,2.8724,2.881,2.9617,3.0016,3.0056,3.0689,3.1174,3.1542,3.1542,3.1771,3.2141,3.2294,3.2924,3.3853,3.4148,3.4829,3.5662,3.581,0.0,0.0,3.5538,3.5457,3.5389,3.5304,3.4749,3.3984,3.3275,3.2536,3.1874,3.165,3.0935,3.0166,3.0113,2.9886,2.9586,2.9505,2.9483,2.964,3.0255,3.1326,3.2479,3.351,3.4739,3.5627,3.5684,3.6434,3.7251,3.7976,3.8106,3.8437,3.9268,3.8663,3.7858,3.7124,3.6914,3.6515,3.5785,3.5659,3.5616,3.5591,3.5575,3.5464,3.5316,3.5457,3.5058,3.4062,3.3327,3.2516,3.1628,3.0594,3.0043,3.001,3.0511,3.0391,2.9724,3.0394,3.0318,2.9686,2.9686,2.9686,2.9686,2.9686,2.9686,2.9686,2.9686,2.9686,2.9697,2.9494,2.9454,2.9424,0.0,0.0,0.0,0.0,0.0,0.0,0.0,2.5416,2.5623,2.6089,2.6879,2.7654,2.8434,2.9689,3.0188,0.0,0.0,0.0,0.0,0.0,0.0,2.811,2.8323,2.8566,2.8817,2.9391,2.9603,2.9487,0.0,3.0518,3.022,3.0584,3.0882,3.1119,3.1119,3.1234,3.1492,3.1956,3.2701,3.367,3.4208,3.4973,3.5859,3.5898,0.0,0.0,3.5859,3.5973,3.6273,3.5828,3.5389,3.4915,3.4566,3.4138,3.3386,3.1313,3.0808,3.0724,2.9939,2.9602,2.942,2.9414,2.9318,2.9439,3.0362,3.1411,3.2568,3.3786,3.4919,3.5663,3.5677,3.6378,3.7051,3.7411,3.8181,3.8949,3.9437,3.9216,3.8821,3.8397,3.7532,3.6798,3.6375,3.5831,3.5546,3.5546,3.5509,3.5308,3.4853,3.3848,3.3293,3.3324,3.1881,3.1075,3.1097,3.0153,2.9662,2.9533,2.9945,2.983,2.9363,2.9735,2.9698,2.9326,2.9326,2.9326,2.9326,2.9326,2.9326,2.9326,2.9326,2.9326,2.9306,2.9217,2.92,2.9178,0.0,0.0,0.0,0.0,0.0,0.0,2.5491,2.5503,2.5775,2.6444,2.6719,2.7132,2.7961,2.9358,3.0206,0.0,0.0,0.0,0.0,0.0,0.0,0.0,2.9183,2.9223,2.957,0.0,0.0,3.0539,3.12,0.0,0.0,0.0,0.0,0.0,3.0586,3.0586,3.0625,3.1324,3.2277,0.0,0.0,3.5112,3.6289,0.0,0.0,0.0,0.0,3.6557,3.6884,3.6196,3.577,3.5565,3.559,3.5446,3.4687,3.152,3.1002,3.1217,3.0045,2.9531,2.9291,2.9291,2.9267,2.9543,3.0675,3.1713,3.2822,3.4146,3.5064,3.5621,3.5679,3.6357,3.693,3.6958,3.8331,3.9501,3.9843,3.9857,3.9801,3.9801,3.8202,3.7046,3.6891,3.6048,3.55,3.55,3.55,3.5179,3.4414,3.289,3.2222,3.2661,3.1051,3.0358,3.0829,2.9964,2.9465,2.9339,2.9477,2.9359,2.9023,2.917,2.917,2.8987,2.8987,2.8987,2.8987,2.8987,2.8987,2.8987,2.8987,2.8987,2.8987,2.8987,2.8987,2.8987,0.0,0.0,0.0,0.0,0.0,0.0,2.5491,2.5535,2.5638,2.5683,2.6442,2.7301,2.809,2.8931,2.9703,0.0,0.0,0.0,0.0,0.0,0.0,0.0,0.0,0.0,0.0,0.0,0.0,3.1657,3.1774,0.0,0.0,0.0,0.0,0.0,0.0,3.0585,3.0624,3.0704,0.0,0.0,0.0,0.0,0.0,0.0,0.0,0.0,0.0,3.7553,3.688,3.6807,3.6205,3.5527,3.5509,3.4969,3.4192,3.3609,3.2302,3.0977,3.0615,2.9772,2.9033,2.9033,2.9561,3.0422,3.175,3.2704,3.3717,3.5162,3.5553,3.5591,3.5606,3.6332,3.7123,3.7767,3.8683,3.9846,4.1378,4.09,4.0414,4.0414,3.8929,3.7606,3.6797,3.5975,3.55,3.55,3.55,3.5352,3.5043,3.4623,3.4054,3.3355,3.2194,3.1272,3.0644,2.957,2.9055,2.9069,2.9768,2.9719,2.9023,2.9769,2.9684,2.8987,2.8987,2.8987,2.8987,2.8987,2.8987,2.8987,2.8987,2.8987,2.8987,2.8987,2.8987,2.8987,0.0,0.0,0.0,0.0,0.0,0.0,2.5423,2.5413,2.5465,2.5543,2.5859,2.6445,2.7379,2.8229,2.9219,3.0475,0.0,0.0,0.0,0.0,0.0,0.0,0.0,0.0,0.0,0.0,3.2104,3.2524,3.2563,0.0,0.0,0.0,0.0,0.0,0.0,3.0583,3.0583,3.0583,0.0,0.0,0.0,0.0,0.0,0.0,0.0,0.0,0.0,0.0,3.6723,3.6222,3.5791,3.55,3.55,3.5153,3.4603,3.3785,3.293,3.1933,3.0698,3.0035,2.9721,2.9721,2.9953,3.0681,3.2522,3.3167,3.3983,3.5968,3.5941,3.5867,3.6925,3.6945,3.7051,3.7868,3.8738,3.9515,4.02,4.0854,4.1085,4.0554,3.99,3.8969,3.7623,3.6731,3.5957,3.53,3.5124,3.487,3.4566,3.4165,3.3446,3.2451,3.1407,3.0667,3.0349,2.9448,2.8987,2.8987,2.9317,2.9317,2.9023,2.9831,2.9769,2.9023,2.95,2.9464,2.8987,2.8987,2.8987,2.8987,2.8987,2.8987,2.8987,2.8987,2.8987,2.8987,0.0,0.0,0.0,0.0,0.0,2.5465,2.5465,2.539,2.5501,2.5857,2.5896,2.6405,2.7617,2.832,2.9331,3.0925,3.0841,0.0,0.0,0.0,0.0,0.0,0.0,0.0,0.0,0.0,3.2484,3.324,3.324,3.3263,0.0,0.0,3.2169,3.2167,0.0,0.0,0.0,0.0,0.0,0.0,0.0,0.0,0.0,0.0,0.0,0.0,0.0,0.0,0.0,0.0,0.0,3.5808,3.5577,3.5246,3.484,3.4036,3.3408,3.2678,3.1286,3.0637,3.0379,3.0379,3.0562,3.1152,3.2841,3.3712,3.4641,3.6485,3.6511,3.6619,3.7854,3.7745,3.7661,3.8277,3.9315,4.0123,4.0392,4.1431,4.2047,4.167,4.0977,4.0054,3.8854,3.7417,3.6166,3.517,3.486,3.4551,3.4211,3.3853,3.3232,3.2412,3.1212,3.054,3.054,2.95,2.8987,2.8987,2.8987,2.8987,2.9023,2.9831,2.9904,2.939,2.9941,2.9879,2.9354,2.9354,2.9207,2.9023,2.9244,2.9207,2.8987,2.8987,2.8987,2.8987,0.0,0.0,0.0,0.0,0.0,2.5602,2.5602,2.5529,2.5827,2.677,2.6892,2.7566,2.9375,2.957,3.0273,3.2031,3.1406,0.0,0.0,0.0,0.0,0.0,0.0,0.0,0.0,0.0,3.3008,3.3797,3.3797,3.3945,3.4167,3.3321,3.2897,3.2859,0.0,0.0,0.0,0.0,0.0,0.0,0.0,0.0,3.7187,0.0,0.0,0.0,0.0,0.0,0.0,0.0,0.0,0.0,0.0,3.5149,3.4713,3.4675,3.3875,3.2939,3.2648,3.1697,3.0778,3.0778,3.1405,3.2137,3.2695,3.4395,3.6026,3.6581,3.7392,3.7969,3.8007,3.8707,3.9284,3.9284,4.07,4.2085,4.2931,4.3085,4.3393,4.4162,4.2016,4.0477,4.0477,3.795,3.5971,3.5162,3.486,3.4551,3.4211,3.42,3.4056,3.3784,3.2241,3.1397,3.1397,2.9794,2.8987,2.8987,2.8987,2.8987,2.9023,2.9807,3.0186,3.021,3.021,3.021,3.021,3.021,2.9721,2.9097,2.9879,2.9684,2.8987,2.8987,2.8987,2.8987,0.0,0.0,0.0,0.0,0.0,0.0,2.5524,2.5503,2.5812,2.6693,2.6877,2.7371,2.8594,2.9258,3.0038,3.1077,3.1465,0.0,0.0,0.0,0.0,0.0,0.0,0.0,0.0,3.1454,3.1897,3.2718,3.2901,3.331,3.3922,3.3223,3.3237,3.3744,3.2891,3.2506,0.0,0.0,0.0,0.0,3.755,3.8436,3.8848,0.0,0.0,0.0,0.0,0.0,0.0,0.0,0.0,0.0,0.0,0.0,0.0,3.4972,3.4298,3.3386,3.2768,3.2133,3.1621,3.1621,3.1802,3.2268,3.3351,3.4373,3.5562,3.7233,3.7315,3.7623,3.94,3.9477,3.9662,4.0816,4.147,4.2085,4.297,4.3585,4.3585,4.2701,4.0354,3.8731,3.8555,3.6672,3.522,3.4551,3.4394,3.4249,3.3954,3.3928,3.3631,3.2999,3.1935,3.114,3.0577,2.9537,2.8987,2.8987,2.8987,2.939,3.0099,3.0735,3.1225,3.1593,3.1764,3.1531,3.1029,3.1029,3.087,3.0613,3.032,3.0063,2.9757,2.9207,2.8987,2.8987,0.0,0.0,0.0,0.0,0.0,0.0,2.5529,2.5507,2.594,2.7114,2.7329,2.7812,2.9049,2.9941,3.0789,3.1575,3.2402,0.0,0.0,0.0,0.0,0.0,0.0,0.0,3.131,3.1488,3.1808,3.231,3.2825,3.3356,3.3937,3.3576,3.3853,3.4661,3.3776,3.3391,0.0,0.0,0.0,0.0,3.815,3.859,3.8598,0.0,0.0,0.0,0.0,0.0,0.0,0.0,0.0,0.0,0.0,0.0,0.0,0.0,3.465,3.3981,3.3364,3.2839,3.2444,3.2444,3.2509,3.2853,3.3836,3.4725,3.5908,3.772,3.7936,3.8361,4.0256,4.0165,4.0156,4.1229,4.1902,4.247,4.3008,4.3778,4.3637,4.1813,3.9934,3.8431,3.7509,3.6093,3.4946,3.426,3.4117,3.3992,3.382,3.3807,3.3587,3.306,3.2265,3.1458,3.065,2.9829,2.9315,2.8987,2.9318,2.9807,3.0479,3.1433,3.2034,3.2353,3.2535,3.2339,0.0,3.1683,3.1435,3.1131,3.0767,3.0358,2.9891,2.9417,2.9125,2.8987,0.0,0.0,0.0,0.0,0.0,0.0,0.0,2.5538,2.6133,2.7851,2.8084,2.8733,3.0403,3.1397,3.225,3.3106,3.3861,0.0,0.0,0.0,0.0,0.0,0.0,0.0,3.1401,3.2118,3.2491,3.2491,3.3239,3.3777,3.407,3.4045,3.4507,3.5385,3.4545,3.4244,0.0,0.0,0.0,0.0,3.8623,3.8375,0.0,0.0,0.0,0.0,0.0,0.0,0.0,0.0,0.0,0.0,0.0,0.0,0.0,0.0,0.0,0.0,0.0,3.3781,3.3277,3.3277,3.3465,3.3722,3.4041,3.5299,0.0,3.8035,3.896,3.9809,4.0704,4.0806,4.0748,4.0858,4.2068,4.3025,4.3085,4.3624,4.3316,4.1427,4.0377,3.9089,3.7187,3.6016,3.5043,3.4239,3.3954,3.3807,3.3807,3.3807,3.3807,3.3807,3.3073,3.2302,3.1507,3.0624,2.9851,2.917,2.9856,3.0271,3.0418,3.1905,3.2614,3.2693,3.2693,3.2693,3.2667,3.2262,3.1657,3.0988,3.1209,3.0665,2.9714,2.962,2.9326,2.899,0.0,0.0,0.0,0.0,0.0,0.0,0.0,0.0,0.0,0.0,2.8081,2.8749,3.0431,3.1397,3.222,0.0,0.0,0.0,0.0,0.0,0.0,0.0,0.0,0.0,3.2279,3.2277,3.2266,3.2266,3.201,3.2264,3.2974,3.2487,3.3083,3.4507,3.4282,3.4584,0.0,0.0,0.0,0.0,3.8854,3.8652,0.0,0.0,0.0,0.0,3.5629,3.5776,0.0,0.0,0.0,0.0,0.0,0.0,0.0,0.0,3.5339,3.5088,3.4979,0.0,3.3889,3.3889,3.3951,3.4068,0.0,3.4921,3.5964,3.7825,3.8376,3.9215,4.1381,4.1228,4.1175,4.2393,4.2409,4.2444,4.3033,4.2124,4.1135,4.0444,3.8507,3.6844,3.5979,3.5053,3.4327,3.3915,3.386,3.3807,3.3807,3.3807,3.3807,3.3807,3.3623,3.3146,3.2326,3.0918,3.0427,3.0833,3.0406,3.0856,3.2052,3.2428,3.2943,3.3513,3.3513,3.3513,3.3486,3.3074,3.2805,3.2544,3.1651,3.1135,3.0752,2.9594,2.9084,2.8919,0.0,0.0,0.0,0.0,0.0,0.0,0.0,0.0,0.0,0.0,2.8022,2.8678,3.0337,3.1511,3.2397,0.0,0.0,0.0,0.0,0.0,0.0,0.0,0.0,3.2757,3.2757,3.2974,3.292,3.253,3.2591,3.268,3.2725,3.2814,3.3314,3.4205,3.4622,3.5045,0.0,0.0,3.7584,3.8084,3.8938,0.0,0.0,0.0,0.0,0.0,3.4952,3.4737,0.0,3.488,3.4994,3.5081,0.0,0.0,0.0,0.0,3.5485,3.5352,3.5352,3.5137,3.4923,3.4923,3.5035,3.517,3.5377,3.5372,3.5898,3.789,3.828,3.898,4.1252,4.1259,4.1179,4.2062,4.2066,4.2105,4.2456,4.1354,4.0211,3.9411,3.7413,3.5903,3.533,3.45,3.3979,3.382,3.3807,3.3807,3.3807,3.3807,3.3807,3.3807,3.3807,3.3403,3.2619,3.1752,3.1336,3.1409,3.1323,3.1748,3.2627,3.2993,3.3386,3.3807,3.3807,3.3807,3.378,3.3379,3.3075,3.2807,3.1891,3.1093,3.0358,2.9553,2.8906,2.8478,0.0,0.0,0.0,0.0,0.0,0.0,0.0,0.0,0.0,0.0,0.0,0.0,0.0,0.0,0.0,0.0,0.0,0.0,0.0,0.0,0.0,0.0,3.3634,3.3211,3.3083,3.393,3.3968,3.3083,3.3699,3.3622,3.2891,3.3391,3.3744,3.4052,3.5038,3.55,3.5615,3.7276,3.8007,3.8084,3.9092,0.0,0.0,0.0,0.0,0.0,0.0,0.0,0.0,3.3974,3.4328,3.4623,3.5359,0.0,0.0,0.0,0.0,0.0,3.5695,3.5975,3.6181,3.6079,3.6229,3.6445,3.667,3.6249,3.6297,3.8194,3.8588,3.9151,4.1054,4.128,4.122,4.1213,4.1535,4.1757,4.1609,4.0854,3.9785,3.8396,3.6858,3.5601,3.489,3.4197,3.3807,3.3807,3.3807,3.3807,3.3807,3.3807,3.3807,3.3807,3.3807,3.3476,3.2803,3.2656,3.2339,3.1764,3.2339,3.2656,3.2803,3.3476,3.3807,3.3807,3.3807,3.3807,3.378,3.3379,3.2968,3.2549,3.2092,3.1133,2.9918,2.9831,2.9203,2.845,0.0,0.0,0.0,0.0,0.0,0.0,0.0,0.0,0.0,0.0,0.0,0.0,0.0,0.0,0.0,0.0,0.0,0.0,0.0,0.0,0.0,3.5308,3.4963,3.4527,3.4007,3.4853,3.4853,3.4013,3.3391,3.3045,3.2852,3.1577,3.1737,3.316,3.4769,3.55,3.5615,3.7276,3.8007,3.8123,3.9708,0.0,0.0,0.0,0.0,0.0,0.0,0.0,0.0,3.4265,3.4786,3.5436,3.5553,0.0,0.0,0.0,0.0,0.0,3.6487,3.7166,3.7536,3.691,3.6788,3.701,3.7686,3.7152,3.7091,3.9031,3.9413,4.0006,4.1873,4.2187,4.2183,4.2116,4.1423,4.0836,4.0731,4.0015,3.895,3.7558,3.6529,3.5413,3.4094,3.388,3.3807,3.3807,3.3807,3.3807,3.3807,3.3807,3.3807,3.3807,3.3807,3.3733,3.3623,3.2949,3.2876,3.3403,3.2889,3.2949,3.3623,3.3733,3.3807,3.3807,3.3807,3.3807,3.378,3.3379,3.3151,3.3045,3.2601,3.2242,3.196,3.1338,3.0997,3.0716,0.0,0.0,0.0,0.0,0.0,0.0,0.0,0.0,0.0,0.0,0.0,0.0,0.0,0.0,0.0,0.0,0.0,0.0,0.0,0.0,3.527,3.527,3.5174,3.4802,3.4199,3.4622,3.4195,3.2916,3.2527,3.2101,3.1609,3.169,3.2654,3.4346,3.5154,3.5731,3.6231,3.7469,3.8277,3.8738,0.0,0.0,0.0,0.0,0.0,0.0,0.0,0.0,0.0,0.0,3.3563,3.3795,3.5106,0.0,0.0,0.0,0.0,0.0,3.6155,3.7201,3.8088,3.7732,3.7919,3.8286,3.8665,3.8106,3.7926,3.9322,3.9627,4.0073,4.1483,4.2109,4.2339,4.2192,4.1344,4.0642,4.05,3.9276,3.8085,3.7282,3.5899,3.4657,3.3897,3.3807,3.3807,3.3807,3.3807,3.3807,3.3807,3.3807,3.3807,3.3807,3.3807,3.3807,3.3807,3.344,3.344,3.3807,3.344,3.344,3.3807,3.3807,3.3807,3.3807,3.3807,3.3807,3.3793,3.3592,3.3408,3.3166,3.2968,3.2462,3.1824,3.1075,3.093,3.098,0.0,0.0,0.0,0.0,0.0,0.0,0.0,0.0,0.0,0.0,0.0,0.0,0.0,0.0,0.0,0.0,0.0,0.0,0.0,3.5351,3.539,3.5198,3.5399,3.5038,3.3942,3.3964,3.3171,3.1529,3.136,3.0974,3.0436,3.1994,3.3568,3.5017,3.5299,3.5859,3.6672,3.7601,3.8507,3.9246,0.0,0.0,0.0,0.0,0.0,0.0,0.0,0.0,0.0,0.0,0.0,0.0,0.0,0.0,0.0,3.4894,3.5231,3.545,3.5645,3.6809,3.805,3.8249,3.8673,3.9157,3.9543,3.8884,3.851,3.9638,3.9962,4.0255,4.1015,4.1636,4.2041,4.2066,4.1285,4.0642,4.05,3.9001,3.7738,3.7261,3.5589,3.4303,3.3847,3.3807,3.3807,3.3807,3.3807,3.3807,3.3807,3.3807,3.3807,3.3807,3.3807,3.3807,3.3807,3.3807,3.3807,3.3807,3.3807,3.3807,3.3807,3.3807,3.3807,3.3807,3.3807,3.3807,3.3807,3.3807,3.3606,3.335,3.335,3.279,3.1888,3.1345,3.1196,3.1189,0.0,0.0,0.0,0.0,0.0,0.0,0.0,0.0,0.0,0.0,0.0,0.0,0.0,0.0,0.0,0.0,0.0,0.0,0.0,3.6171,3.6248,3.5518,3.6291,3.5593,3.3156,3.3073,3.2313,3.0672,2.9819,2.9599,3.0075,3.1572,3.2723,3.362,3.4665,3.5569,3.6396,3.751,3.8507,3.9376,4.0198,0.0,0.0,0.0,0.0,0.0,0.0,0.0,0.0,0.0,0.0,0.0,0.0,0.0,3.4344,3.3598,3.3955,3.4743,3.5514,3.637,3.7304,3.8117,3.8273,3.8684,4.026,3.9348,3.8665,4.0373,4.0814,4.0923,4.0996,4.0972,4.1155,4.1884,4.1257,4.0642,4.05,3.95,3.8404,3.7337,3.6137,3.4971,3.3884,3.3807,3.3807,3.3807,3.3807,3.3807,3.3807,3.3807,3.3807,3.3807,3.3807,3.3807,3.3807,3.3807,3.3807,3.3807,3.3807,3.3807,3.3807,3.3807,3.3807,3.3807,3.3807,3.3807,3.3807,3.3807,3.3793,3.3766,3.3766,3.368,3.3629,3.3556,3.3093,3.2483,0.0,0.0,0.0,0.0,0.0,0.0,0.0,0.0,0.0,0.0,0.0,0.0,0.0,0.0,0.0,0.0,0.0,0.0,0.0,3.5527,3.589,3.5581,3.595,3.5447,3.3979,3.3429,3.1857,2.9117,2.9051,2.9666,3.0908,3.2284,3.341,3.4212,3.4661,3.541,3.6323,3.6752,3.7862,3.9299,3.9173,3.8728,0.0,0.0,0.0,0.0,0.0,0.0,0.0,0.0,3.2542,3.25,3.4227,3.3924,3.3104,3.3838,3.4334,3.4707,3.5018,3.6501,3.7947,3.7749,3.8419,3.9292,3.9872,3.9564,3.9465,4.0663,4.1026,4.125,4.1731,4.1229,4.1003,4.185,4.121,4.0367,3.9831,3.8658,3.7495,3.6512,3.5228,3.4273,3.382,3.3807,3.3807,3.3807,3.3807,3.3807,3.3807,3.3807,3.3807,3.3807,3.3807,3.3807,3.3807,3.3807,3.3807,3.3807,3.3807,3.3807,3.3807,3.3807,3.3807,3.3807,3.3807,3.3807,3.3807,3.3807,3.3807,3.3807,3.3807,3.3807,3.3807,3.3807,3.3623,3.3256,0.0,0.0,0.0,0.0,0.0,0.0,0.0,0.0,0.0,0.0,0.0,0.0,0.0,0.0,0.0,0.0,0.0,0.0,3.4167,3.509,3.5591,3.5591,3.5931,3.5648,3.4566,3.3738,3.1898,2.8973,2.8826,2.959,3.1156,3.2239,3.335,3.4409,3.4245,3.4904,3.6178,3.5983,3.7064,3.8883,3.8435,3.804,0.0,0.0,0.0,0.0,0.0,0.0,0.0,0.0,3.2093,3.1858,3.362,3.3362,3.2643,3.3577,3.4253,3.4766,3.5039,3.6601,3.8125,3.7773,3.8316,3.9079,3.9585,3.9711,3.9962,4.082,4.1054,4.1226,4.1737,4.1179,4.0823,4.1416,4.0959,4.0323,3.9746,3.8335,3.7078,3.65,3.4953,3.3928,3.3928,3.3837,3.3807,3.3807,3.3807,3.3807,3.3807,3.3807,3.3807,3.3807,3.3807,3.3807,3.3807,3.3807,3.3807,3.3807,3.3807,3.3807,3.3807,3.3807,3.3807,3.3807,3.3807,3.3807,3.3807,3.3807,3.3807,3.3807,3.3807,3.3807,3.3807,3.3807,3.3807,3.3733,0.0,0.0,0.0,0.0,0.0,0.0,0.0,0.0,0.0,0.0,0.0,0.0,0.0,0.0,0.0,0.0,0.0,0.0,3.4052,3.5052,3.5591,3.5591,3.6531,3.6286,3.4651,3.3824,3.25,3.0624,2.9202,2.923,3.0538,3.115,3.2278,3.376,3.3239,3.4056,3.5821,3.5283,3.6234,3.807,3.8205,3.7789,3.7111,0.0,0.0,0.0,0.0,0.0,0.0,0.0,3.2031,3.3125,3.1445,3.207,3.3242,3.2461,3.3398,3.4883,3.5742,3.6641,3.75,3.8359,3.7969,3.7773,3.9492,3.9796,3.9967,4.0822,4.0883,4.0817,4.0817,4.0641,4.0516,4.0516,4.0516,4.0516,4.0477,3.881,3.7591,3.7591,3.5604,3.42,3.42,3.3943,3.382,3.382,3.382,3.382,3.3807,3.3807,3.3807,3.3807,3.3807,3.3807,3.3807,3.3807,3.3807,3.3807,3.3807,3.3807,3.3807,3.3807,3.3807,3.3807,3.3807,3.3807,3.3807,3.3807,3.3807,3.3807,3.3807,3.3807,3.3807,3.3807,3.3807,3.3807,0.0,0.0,0.0,0.0,0.0,0.0,0.0,0.0,0.0,0.0,0.0,0.0,0.0,0.0,0.0,0.0,0.0,0.0,3.2501,3.333,3.4091,3.4662,3.504,3.5278,3.5314,3.4402,3.3141,3.1499,3.068,3.0734,3.1711,3.2662,3.2821,3.24,3.2827,3.3173,3.3489,3.3337,3.4452,3.6337,3.6472,3.6788,3.7111,0.0,0.0,0.0,0.0,0.0,0.0,0.0,0.0,0.0,3.3555,3.3906,3.4141,3.3281,3.4258,3.5547,3.5195,3.6172,3.7344,3.7617,3.8398,3.9258,3.9766,3.9882,4.0077,4.0855,4.0874,4.0796,4.0742,4.0604,4.0516,4.0516,4.0516,4.0285,3.9746,3.8457,3.7362,3.6743,3.5428,3.4551,3.4551,3.4475,3.442,3.442,3.442,3.433,3.4105,3.4093,3.3981,3.382,3.3807,3.3807,3.3807,3.3807,3.3807,3.3807,3.3807,3.3807,3.3807,3.3807,3.3807,3.3807,3.3807,3.3807,3.3807,3.3807,3.3807,3.3807,3.3807,3.3807,3.3807,3.3807,3.3807,3.3807,0.0,0.0,0.0,0.0,0.0,0.0,0.0,0.0,0.0,0.0,3.2699,3.3468,0.0,0.0,0.0,0.0,0.0,0.0,3.2248,3.2788,3.3475,3.4279,3.4742,3.5051,3.5166,3.4552,3.3798,3.285,3.1693,3.1493,3.2223,3.2493,3.2378,3.1917,3.2083,3.2288,3.2476,3.2172,3.3026,3.4663,3.4736,3.5325,3.6158,0.0,0.0,0.0,0.0,0.0,0.0,0.0,0.0,0.0,3.4141,3.4414,3.4648,3.4492,3.543,3.6562,3.6719,3.7539,3.8437,3.875,3.9375,3.9961,4.0269,4.0345,4.0455,4.0835,4.0828,4.0762,4.0715,4.0602,4.0516,4.0516,4.0516,4.0323,3.9823,3.8607,3.7568,3.7023,3.571,3.487,3.487,3.4773,3.4713,3.4713,3.4713,3.4603,3.4431,3.4258,3.4141,3.3943,3.385,3.3807,3.3807,3.3807,3.3807,3.3807,3.3807,3.3807,3.3807,3.3807,3.385,3.3979,3.408,3.4179,3.4179,3.4179,3.4179,3.4129,3.3993,3.3979,3.3967,3.3823,3.3807,3.3807,0.0,0.0,3.0538,3.0538,0.0,0.0,0.0,0.0,0.0,3.1698,3.3083,3.3782,0.0,0.0,0.0,3.4045,3.2609,3.2026,0.0,3.2921,3.3379,3.426,3.5172,3.5294,3.4587,3.44,3.4328,3.4345,3.2433,3.1787,3.2231,3.1383,3.1289,3.1751,3.1119,3.1336,3.2157,3.1508,3.1929,3.308,3.3086,3.367,3.4609,3.4687,0.0,0.0,0.0,0.0,0.0,0.0,0.0,0.0,3.3789,3.418,3.5078,3.5781,3.668,3.7773,3.9336,3.9766,4.0,4.0859,4.0507,4.0151,4.0816,4.0923,4.0827,4.0785,4.0752,4.0692,4.068,4.0518,4.04,4.04,4.04,4.0362,4.0285,3.8969,3.7969,3.7892,3.6273,3.5149,3.5149,3.4917,3.4783,3.4783,3.4783,3.4773,3.4753,3.4405,3.4223,3.42,3.3954,3.3807,3.3807,3.3807,3.382,3.386,3.386,3.386,3.386,3.386,3.4005,3.4258,3.4561,3.4713,3.4713,3.4713,3.4713,3.4682,3.4315,3.42,3.4152,3.3902,3.3807,3.3807,0.0,0.0,3.1429,3.1429,0.0,0.0,0.0,0.0,3.2429,3.1775,3.2545,3.3122,3.2929,3.2311,0.0,3.2884,3.199,3.174,3.2622,3.2261,3.2682,3.4141,3.4889,3.5131,3.497,3.4734,3.4612,3.4603,3.3709,3.301,3.2521,3.2061,3.1002,2.9513,2.9984,3.0066,2.9882,3.043,3.1241,3.2194,3.2246,3.2837,3.375,3.4453,3.4805,0.0,0.0,0.0,0.0,0.0,0.0,0.0,3.4687,3.5508,3.6641,3.6133,3.7109,3.8398,3.8789,3.8867,3.9062,3.9826,4.0335,4.062,4.0743,4.0257,3.9942,4.0599,4.0721,4.0661,4.0566,4.0007,3.9554,3.9554,3.9554,3.9323,3.8623,3.8238,3.7738,3.7038,3.6041,3.5398,3.5398,3.5361,3.5339,3.5339,3.5339,3.5231,3.5016,3.4735,3.4486,3.42,3.3954,3.3807,3.3807,3.3807,3.3915,3.4092,3.4092,3.4092,3.4092,3.4092,3.4307,3.4593,3.4682,3.4713,3.4713,3.4713,3.4713,3.4682,3.4315,3.42,3.4152,3.3902,3.3807,3.3807,0.0,0.0,0.0,0.0,0.0,0.0,0.0,0.0,3.3853,3.3006,3.3276,3.3353,3.2968,3.239,0.0,0.0,3.179,3.1615,3.2362,3.2111,3.2737,3.4557,3.5048,3.527,3.527,3.5025,3.4898,3.4898,3.4452,3.3626,3.2391,3.1807,3.0763,2.9396,2.9801,2.9907,2.9742,3.0243,3.0768,3.1293,3.1332,3.1931,3.2891,3.332,3.3984,3.4766,3.5195,0.0,0.0,0.0,0.0,0.0,0.0,0.0,3.668,3.6641,3.7537,3.8584,3.9014,3.9393,3.9761,4.0118,4.0505,4.064,4.0178,3.9682,3.9354,3.9387,3.9425,3.9398,3.9338,3.8969,3.8661,3.8661,3.8661,3.8507,3.8046,3.7623,3.7199,3.6731,3.6,3.55,3.55,3.55,3.55,3.55,3.55,3.5458,3.5316,3.5025,3.4745,3.4464,3.4153,3.3941,3.3807,3.3807,3.3863,3.4006,3.4006,3.408,3.42,3.4386,3.454,3.4723,3.4972,3.5008,3.4908,3.5025,3.4999,3.487,3.4561,3.4327,3.4152,3.3902,3.3807,3.3807,0.0,0.0,0.0,0.0,0.0,0.0,0.0,0.0,0.0,3.4282,3.4205,3.3859,3.3006,3.2712,3.2548,0.0,0.0,0.0,3.2072,3.2364,3.3258,3.5039,3.5331,3.5412,3.5412,3.5174,3.5025,3.5025,3.4735,3.3812,3.2316,3.1356,3.049,2.9726,2.9726,2.9872,3.0118,3.0296,3.0463,3.0565,3.0595,3.1133,3.1952,3.2148,3.3047,3.4297,3.4609,3.5156,3.5781,3.5937,0.0,0.0,0.0,0.0,3.6132,3.703,3.7718,3.8346,3.9206,4.001,4.0598,4.0749,4.0731,4.0468,3.9739,3.9321,3.8854,3.8161,3.8007,3.8007,3.8007,3.7892,3.7777,3.7777,3.7777,3.7738,3.7584,3.7084,3.6654,3.65,3.5923,3.55,3.55,3.55,3.55,3.55,3.55,3.55,3.55,3.5239,3.499,3.4783,3.4383,3.4105,3.3863,3.3797,3.3797,3.3863,3.3863,3.4006,3.4281,3.4518,3.4672,3.4733,3.5174,3.5231,3.5034,3.5254,3.5223,3.4999,3.4705,3.4453,3.4152,3.3902,3.3807,3.3807,0.0,0.0,0.0,0.0,0.0,0.0,0.0,0.0,0.0,0.0,3.4205,3.3859,3.3006,3.2067,3.1424,3.1145,3.0371,3.0471,3.1773,0.0,0.0,3.5047,3.5149,3.5166,3.5166,3.4898,3.4763,3.4763,3.4442,3.381,3.2851,3.1523,3.0063,2.8625,2.8625,2.8753,2.907,2.9876,3.0335,3.0521,3.0631,3.0752,3.0998,3.1874,3.2344,3.2734,3.418,3.4766,3.5,3.5742,3.6016,0.0,0.0,0.0,3.6067,3.6967,3.7206,3.7384,3.8248,3.9026,3.9774,4.0538,4.061,4.0515,4.0361,3.9222,3.8123,3.8007,3.8007,3.8007,3.8007,3.7392,3.6885,3.6885,3.6885,3.6615,3.5923,3.6346,3.6423,3.5731,3.5577,3.55,3.55,3.55,3.55,3.55,3.55,3.55,3.55,3.5239,3.5069,3.5034,3.4492,3.4176,3.4128,3.3928,3.3928,3.4128,3.4128,3.4341,3.4614,3.436,3.4442,3.4713,3.4783,3.4803,3.4773,3.4803,3.4793,3.4743,3.4371,3.4235,3.4152,3.3902,3.3807,3.3807,0.0,0.0,0.0,0.0,0.0,0.0,0.0,0.0,0.0,0.0,0.0,3.3698,3.2994,3.2096,3.12,3.0446,3.0059,3.0263,3.1231,3.2395,0.0,3.4323,3.4512,3.4802,3.53,3.5051,3.4926,3.4926,3.4124,3.3575,3.3193,3.1969,3.0992,3.028,2.9841,2.9828,3.0189,3.0129,3.0248,3.0531,3.0542,3.0909,3.1371,3.1322,3.1915,3.2773,3.3049,3.3456,3.3976,3.4368,3.4841,3.5273,3.5273,0.0,0.0,0.0,3.669,3.7215,3.8501,3.9431,4.01,4.0486,4.0537,4.0362,3.9938,3.9246,3.843,3.7469,3.7276,3.7123,3.6692,3.6269,3.6038,3.6038,3.6038,3.5885,3.5538,3.5808,3.5885,3.5538,3.55,3.55,3.55,3.55,3.55,3.55,3.55,3.55,3.55,3.5383,3.5246,3.5086,3.4841,3.4534,3.42,3.4093,3.4006,3.3968,3.4141,3.4213,3.4215,3.4213,3.4269,3.4442,3.4603,3.4582,3.4442,3.4614,3.4582,3.442,3.4246,3.4129,3.3943,3.3823,3.3807,3.3733,0.0,0.0,0.0,0.0,0.0,0.0,0.0,0.0,0.0,0.0,0.0,3.356,3.3189,0.0,0.0,0.0,3.0121,3.025,3.0846,0.0,0.0,0.0,3.4064,3.4622,3.5462,3.5285,3.5108,3.4887,3.4185,3.3734,3.3513,3.2838,3.2548,3.2473,3.1091,3.0769,3.117,3.0304,3.0266,3.082,3.0814,3.1262,3.1831,3.1621,3.2253,3.3151,3.273,3.2896,3.3292,3.3295,3.3781,3.4375,3.4335,3.4904,0.0,0.0,0.0,3.6901,3.8544,3.94,3.9977,4.04,4.0516,4.0323,3.9746,3.9438,3.8931,3.7623,3.7,3.65,3.5923,3.5654,3.55,3.55,3.55,3.55,3.55,3.55,3.55,3.55,3.55,3.55,3.55,3.55,3.55,3.55,3.55,3.55,3.55,3.55,3.5398,3.5207,3.5149,3.487,3.4427,3.4281,3.4117,3.3902,3.4031,3.3981,3.382,3.4006,3.4117,3.4129,3.4364,3.433,3.4129,3.4364,3.433,3.4117,3.4117,3.3992,3.3807,3.3807,3.366,3.3403,0.0,0.0,0.0,0.0,0.0,0.0,0.0,0.0,0.0,0.0,0.0,3.3496,3.3743,3.2996,3.2149,3.1318,3.0471,3.025,3.0846,0.0,0.0,0.0,3.4064,0.0,3.5462,3.5493,3.5098,3.4345,3.4795,3.4617,3.3894,3.4338,3.4542,3.4408,3.151,3.0511,3.0938,3.0089,3.0457,3.1646,3.1705,3.1757,3.1969,3.3608,3.3796,3.3294,3.4079,3.3896,3.3284,3.3292,3.3351,3.3476,3.3384,3.3923,3.4538,0.0,0.0,0.0,3.7623,3.8084,3.8507,4.0092,4.0516,4.0477,4.0439,3.9861,3.9284,3.9169,3.7853,3.6692,3.6654,3.6,3.55,3.55,3.55,3.55,3.55,3.55,3.55,3.55,3.55,3.55,3.55,3.55,3.55,3.55,3.55,3.55,3.55,3.55,3.5493,3.5486,3.5231,3.5069,3.5043,3.4481,3.4188,3.4164,3.3954,3.382,3.3807,3.382,3.3834,3.3834,3.386,3.386,3.3834,3.386,3.386,3.3834,3.3834,3.382,3.3807,3.3807,3.333,3.2656,0.0,0.0,0.0,0.0,0.0,0.0,0.0,0.0,0.0,0.0,0.0,0.0,0.0,3.3422,3.2789,3.1409,3.0647,0.0,0.0,0.0,0.0,0.0,3.332,3.4045,3.5462,3.55,3.5393,3.5116,3.4786,3.4494,3.4269,3.3698,3.3135,3.2554,3.1808,3.1967,3.2653,3.0736,3.0784,3.217,3.1698,3.2108,3.3081,3.3173,3.3459,3.3821,3.3555,3.3325,3.3114,3.322,3.3275,3.3311,3.3311,3.3451,3.3747,3.413,3.5207,3.6385,3.7,3.7969,3.8977,3.9592,4.0131,4.0516,4.0516,4.0285,3.9938,3.94,3.8629,3.7717,3.6654,3.6343,3.6269,3.6269,3.6731,3.693,3.6346,3.6731,3.6892,3.6346,3.6769,3.7084,3.7084,3.6615,3.6269,3.6269,3.5808,3.55,3.55,3.55,3.55,3.55,3.5398,3.5262,3.5086,3.4715,3.4529,3.4518,3.4213,3.4056,3.4056,3.3876,3.3807,3.3807,3.3807,3.3807,3.3807,3.3807,3.3807,3.3807,3.3807,3.3807,3.3807,3.3807,3.3293,3.2509,0.0,0.0,0.0,3.9094,0.0,3.6907,3.577,3.4495,3.3745,3.3953,0.0,0.0,0.0,0.0,3.3189,3.195,3.1469,3.1231,3.1231,3.1,0.0,0.0,3.3045,3.3737,3.5462,3.55,3.5393,3.5155,3.4842,3.4643,3.4468,3.362,3.2931,3.2353,3.2154,3.2569,3.3301,3.1585,3.1729,3.3004,3.2507,3.2928,3.3938,3.393,3.4203,3.4545,3.3968,3.383,3.3839,3.3658,3.3643,3.3682,3.3359,3.3031,3.292,3.3895,3.5007,3.5968,3.6538,3.7546,3.8584,3.9169,3.9708,4.0169,4.0439,4.0516,4.03,3.969,3.9153,3.8433,3.7214,3.7136,3.6999,3.6282,3.7095,3.7579,3.6801,3.7469,3.7777,3.7199,3.7661,3.8007,3.8007,3.7364,3.6888,3.6731,3.6128,3.5698,3.5493,3.55,3.55,3.55,3.55,3.5405,3.5231,3.4972,3.4841,3.4841,3.4394,3.42,3.4188,3.3928,3.3807,3.3807,3.3807,3.3807,3.3807,3.3807,3.366,3.344,3.3697,3.3623,3.3403,3.3403,3.2889,3.2082,3.9429,3.958,3.9354,3.849,3.744,3.6149,3.4535,3.334,3.2632,3.2632,0.0,0.0,0.0,0.0,0.0,3.2974,3.2891,3.2891,3.2891,3.216,3.2468,3.4129,3.3391,3.3737,3.5462,3.55,3.5117,3.4327,3.5117,3.5168,3.4506,3.4356,3.426,3.4158,3.2527,3.2104,3.2562,3.2562,3.3164,3.4199,3.416,3.4199,3.4385,3.6031,3.6185,3.55,3.55,3.556,3.5482,3.4636,3.4478,3.4413,3.3509,3.2571,3.2203,3.3756,3.4212,3.4597,0.0,0.0,0.0,3.8815,3.9246,3.9508,4.0277,4.0469,4.0406,4.012,3.9404,3.8697,3.8346,3.8316,3.7613,3.5473,3.6508,3.7351,3.6848,3.7493,3.8077,3.8046,3.8046,3.8084,3.8084,3.7772,3.73,3.6786,3.6446,3.6061,3.5511,3.5486,3.5486,3.5486,3.5486,3.5486,3.5486,3.5215,3.5069,3.5069,3.4481,3.42,3.42,3.3928,3.382,3.382,3.3807,3.3807,3.3807,3.3807,3.333,3.2693,3.3513,3.333,3.2619,3.2619,3.2082,3.1286,3.9542,3.958,3.9505,3.9267,3.7827,3.6522,3.6075,3.4723,3.3771,0.0,0.0,0.0,3.4655,3.4112,3.3729,3.3833,3.3276,3.2891,3.2891,3.2699,3.3045,3.4167,3.3975,3.4353,3.5462,3.55,3.5393,3.5232,3.5472,3.519,3.4468,3.3753,3.3117,3.2488,3.1967,3.1794,3.1898,3.1284,3.2112,3.3876,3.3219,3.3716,3.4909,3.5368,3.553,3.55,3.55,3.5527,3.5586,3.6046,3.5448,3.4374,3.3555,3.3499,3.3806,3.4187,3.4721,3.5317,3.5726,0.0,0.0,0.0,0.0,0.0,3.9265,3.9765,4.012,3.9808,3.9333,3.8802,3.8153,3.8329,3.8062,3.6494,3.7811,3.8843,3.8297,3.8991,3.9367,3.8992,3.9438,3.9823,3.9823,3.8997,3.8155,3.7403,3.6521,3.5702,3.4955,3.4926,3.4926,3.4926,3.4926,3.4926,3.4926,3.486,3.4822,3.4822,3.4383,3.4315,3.454,3.4043,3.3915,3.408,3.3876,3.3807,3.3807,3.3807,3.366,3.3476,3.3697,3.366,3.3403,3.2803,3.2082,3.1286,3.9173,3.921,3.921,3.921,3.7748,3.6525,3.6525,3.5231,3.4311,0.0,0.0,0.0,3.5363,3.5132,3.4925,3.4769,3.4276,3.3968,3.3968,3.3622,3.3814,3.4699,3.4391,3.4622,3.5462,3.55,3.5515,3.5575,3.5575,3.5338,3.4951,3.4037,3.3156,3.2343,3.2254,3.2061,3.173,3.1576,3.248,3.396,3.38,3.4388,3.5304,3.5304,3.5419,3.5593,3.5593,3.5825,3.6223,3.6765,3.6122,3.4937,3.4098,3.4176,3.4522,3.4392,3.5021,3.5663,3.562,3.589,3.6344,3.6691,0.0,0.0,3.8707,3.9185,3.9543,3.9399,3.9225,3.8928,3.8331,3.8472,3.8419,3.7678,3.8505,3.9114,3.8851,3.9538,4.0023,3.9831,4.0129,4.0339,4.0339,3.9614,3.8798,3.7935,3.6959,3.591,3.4751,3.4713,3.4713,3.4713,3.4713,3.4713,3.4713,3.4713,3.4713,3.4713,3.4349,3.4398,3.4693,3.4093,3.3967,3.4176,3.3928,3.3807,3.3807,3.3807,3.3587,3.3293,3.3293,3.3293,3.3146,3.2008,3.1751,3.1751,0.0,3.8795,3.881,3.8765,3.7507,3.6527,3.6485,3.5404,3.485,0.0,3.5953,3.6236,3.6447,3.6635,3.6462,3.5846,3.5615,3.5538,3.5615,3.4814,3.4699,3.5462,3.4776,3.4699,3.5462,3.55,3.5538,3.5615,3.5538,3.5579,3.5681,3.4742,3.3896,3.3224,3.3045,3.2595,3.2012,3.286,3.3604,3.4301,3.5066,3.5498,3.5611,3.5611,3.5642,3.5687,3.5687,3.619,3.6848,3.6858,3.6515,3.5869,3.5035,3.4825,3.4856,3.472,3.5323,3.6063,3.5889,3.5853,3.6076,3.6714,3.696,0.0,3.826,3.8613,3.8805,3.8911,3.8914,3.8892,3.8713,3.8689,3.8689,3.8579,3.8726,3.8836,3.8833,3.9488,4.0091,4.0381,4.0176,4.0032,4.0032,3.9775,3.9229,3.8388,3.7434,3.6244,3.4695,3.4582,3.4582,3.4582,3.4582,3.4582,3.4582,3.4582,3.4582,3.462,3.4318,3.4364,3.4693,3.4117,3.3981,3.4235,3.3979,3.3847,3.3807,3.3807,3.3366,3.2729,3.2729,3.2729,3.2546,3.1017,3.1372,3.2362,3.8985,3.9249,3.9352,3.9063,3.844,3.7902,3.7625,3.7224,3.6996,3.7186,3.7424,3.7602,3.764,3.7101,3.6923,3.7469,3.6269,3.5769,3.6423,3.5692,3.5308,3.55,3.5346,3.5346,3.55,3.55,3.5808,3.6462,3.5808,3.5828,3.644,3.4937,3.4135,3.3948,3.3249,3.2899,3.2899,3.3703,3.421,3.447,3.4622,3.51,3.5698,3.5698,3.5709,3.5687,3.5687,3.5801,3.5966,3.6065,3.6436,3.6724,3.5976,3.621,3.6637,3.5866,3.6711,3.7719,3.6959,3.724,3.7638,3.707,3.7904,0.0,3.6834,3.7516,3.8342,3.7914,3.7794,3.7985,3.8594,3.8689,3.8505,3.786,3.8799,3.9512,3.91,3.9177,3.9414,3.9727,3.9742,3.9709,3.9709,3.9652,3.9241,3.8459,3.6787,3.5255,3.4029,3.3979,3.3979,3.3979,3.3979,3.3979,3.3979,3.3979,3.3979,3.3967,3.3902,3.4153,3.4703,3.4318,3.4318,3.4582,3.4272,3.3993,3.3807,3.3807,3.3697,3.3587,3.3587,3.3587,3.344,3.2472,3.2326,3.2472,3.9339,3.9474,3.9534,3.9377,3.8809,3.8339,3.8188,3.7826,3.7744,3.8173,3.8712,3.8878,3.8457,3.7847,3.7499,3.7537,3.6927,3.6495,3.6495,3.625,3.5923,3.5538,3.55,3.55,3.55,3.55,3.5885,3.6692,3.5885,3.5923,3.6654,3.543,3.4853,3.4814,3.4391,3.4262,3.4416,3.4835,3.5078,3.524,3.514,3.5362,3.5783,3.5783,3.5802,3.5864,3.5864,3.5864,3.5868,3.5924,3.6201,3.6476,3.6132,3.6914,3.7695,3.6323,3.7179,3.8192,3.6887,3.7097,3.7603,3.7074,3.7545,0.0,0.0,3.7445,3.7838,3.8044,3.7786,3.7639,3.8028,3.7771,3.7514,3.7492,3.819,3.8728,3.8884,3.9737,4.047,4.0765,4.029,3.9964,3.9964,3.9602,3.9076,3.8459,3.6953,3.5653,3.4697,3.4097,3.385,3.3981,3.3993,3.4068,3.4237,3.4068,3.4068,3.4237,3.4068,3.433,3.4898,3.4593,3.454,3.4693,3.4327,3.4056,3.3807,3.3807,3.3807,3.377,3.3366,3.344,3.366,3.2449,3.2522,3.3036,3.972,3.9867,4.0003,3.9947,3.9424,3.9039,3.8985,3.849,3.8371,3.906,3.9633,3.9802,3.9259,3.8785,3.8403,3.8079,3.7778,3.7481,3.7032,3.6916,3.6572,3.6,3.5808,3.5731,3.5731,3.5577,3.5982,3.6986,3.6016,3.6036,3.6993,3.5997,3.5515,3.5515,3.5514,3.5554,3.5698,3.5677,3.5802,3.5974,3.5808,3.5802,3.5914,3.5914,3.5969,3.6016,3.6016,3.6016,3.6016,3.6016,3.6016,3.6016,3.6016,3.707,3.8047,3.6445,3.7344,3.8516,3.6914,3.7221,3.7858,3.74,3.735,3.7472,0.0,0.0,0.0,3.7993,3.7602,3.7153,3.7337,3.6765,3.645,3.6942,3.7419,3.7896,3.8395,4.0215,4.151,4.1576,4.091,4.0428,4.0428,3.977,3.9075,3.8448,3.7563,3.6595,3.5647,3.4649,3.4153,3.4188,3.42,3.4315,3.4593,3.442,3.4442,3.4713,3.4442,3.4566,3.5077,3.4879,3.4763,3.4665,3.4394,3.4105,3.3807,3.3807,3.3807,3.3733,3.3073,3.322,3.3623,3.2351,3.2669,3.3623,4.0081,4.0872,4.1451,4.1159,4.1264,4.1288,4.0997,4.0525,4.0104,3.9967,3.9802,3.9891,4.0498,3.9859,3.9936,4.133,3.9458,3.8612,3.9517,3.8213,3.7496,3.7692,3.6969,3.6577,3.6577,3.5846,3.6318,3.802,3.6383,3.6445,3.8066,3.6363,3.5604,3.5599,3.5534,3.5534,3.5621,3.5687,3.5775,3.5911,3.5932,3.5975,3.5976,3.5976,3.5976,3.6016,3.6016,3.6016,3.6016,3.6016,3.6016,3.6016,3.6016,3.668,3.7266,3.6289,3.7773,3.9531,3.8555,3.9492,4.0349,3.8642,3.8778,3.8659,3.6118,0.0,3.6378,3.6244,0.0,3.5963,3.6643,0.0,0.0,3.5371,3.7132,3.8358,3.7713,3.969,4.0898,4.0225,4.0657,4.1013,4.1013,4.0489,3.9661,3.8486,3.8286,3.7521,3.5937,3.5521,3.4982,3.4237,3.42,3.4211,3.4246,3.4518,3.4645,3.4713,3.4645,3.4784,3.5115,3.5051,3.4926,3.4713,3.4645,3.4318,3.3807,3.3807,3.3807,3.3807,3.3697,3.3733,3.377,3.3587,3.3623,3.377,4.1114,4.1481,4.1937,4.2274,4.245,4.2321,4.169,4.1215,4.1103,4.1454,4.0623,4.0325,4.1172,4.036,4.0183,4.1371,4.07,4.0052,3.9731,3.9229,3.8676,3.8038,3.7661,3.7238,3.6692,3.6447,3.6924,3.8202,3.6483,3.6542,3.8256,3.6499,3.6163,3.7013,3.6526,3.688,3.7755,3.6837,3.6504,3.6567,3.6169,3.6016,3.6016,3.6016,3.6016,3.6016,3.6016,3.6016,3.6016,3.6016,3.6016,3.6016,3.6016,3.6601,3.7148,3.625,3.7148,3.832,3.7969,3.8398,3.8826,3.8456,3.8212,3.7804,3.6757,3.6396,3.6293,3.6374,0.0,0.0,0.0,0.0,0.0,0.0,3.5885,3.6619,3.678,3.8469,3.9921,4.0524,4.0487,4.023,3.9753,4.0067,3.996,3.9154,3.8659,3.8169,3.7671,3.6896,3.6169,3.5426,3.5436,3.5268,3.4952,3.4954,3.5008,3.5174,3.4999,3.506,3.5339,3.5339,3.519,3.4926,3.4783,3.4442,3.4018,3.385,3.3807,3.3807,3.3807,3.3807,3.3807,3.3807,3.3807,3.3733,4.2431,4.2508,4.2701,4.3316,4.3431,4.3124,4.2277,4.1772,4.177,4.2436,4.1456,4.1008,4.1978,4.1318,4.1141,4.1992,4.206,4.1678,4.0745,4.0473,4.0052,3.9423,3.8738,3.8161,3.7738,3.7409,3.7709,3.8569,3.712,3.7097,3.8363,3.6821,3.6618,3.7467,3.7094,3.7618,3.866,3.7774,3.742,3.7386,3.6637,3.6211,3.5974,3.5976,3.6016,3.6016,3.5975,3.5974,3.5973,3.593,3.5927,3.5927,3.5927,3.6361,3.6794,3.6169,3.6601,3.7305,3.7305,3.7616,3.7959,3.8007,3.7676,3.7259,3.7033,3.6493,3.6176,3.6543,3.6082,0.0,0.0,0.0,3.4614,3.4931,0.0,3.5597,3.6016,3.7477,3.8979,4.0304,4.0304,3.99,3.9129,3.9719,4.0039,3.9632,3.9063,3.8822,3.9018,3.8166,3.7261,3.6315,3.6315,3.6009,3.5383,3.5254,3.5324,3.55,3.5285,3.5324,3.55,3.55,3.5361,3.5069,3.4898,3.4582,3.4176,3.3981,3.3863,3.3807,3.3807,3.3807,3.3807,3.3807,3.3807,3.3733,4.4085,4.4201,4.4239,4.4239,4.4239,4.397,4.3162,4.2508,4.2203,4.255,4.1983,4.2006,4.3139,4.3202,4.3529,4.4421,4.3731,4.3376,4.3651,4.2131,4.1772,4.2885,4.0585,3.9631,4.0362,3.8929,3.8612,3.9575,3.8724,3.8421,3.8554,3.76,3.6719,3.6011,3.6696,3.7014,3.7134,3.799,3.8364,3.8291,3.7575,3.6713,3.5908,3.5974,3.6016,3.5976,3.5918,3.5903,3.5898,3.5761,3.5694,3.5694,3.5694,3.5821,3.5944,3.5903,3.6554,3.7305,3.7305,3.8428,3.9259,3.7658,3.7711,3.7737,3.6046,3.5572,3.5698,3.6192,3.6101,3.6054,3.6559,3.6417,3.5936,3.5151,3.5917,0.0,0.0,3.6918,3.8146,3.8719,4.012,4.0744,3.9937,3.9879,3.9845,3.9609,3.958,3.9492,3.9292,3.9014,3.8049,3.6353,3.6315,3.5933,3.5132,3.5361,3.5493,3.55,3.5493,3.5493,3.55,3.55,3.5361,3.5077,3.5077,3.4755,3.42,3.4188,3.4031,3.3807,3.3807,3.3807,3.3807,3.3807,3.3807,3.3807,4.4239,4.4739,4.5171,4.5171,4.5171,4.5056,4.4786,4.3874,4.3471,4.4162,4.3376,4.31,4.4083,4.3643,4.3643,4.4536,4.431,4.407,4.3825,4.3274,4.3015,4.3115,4.2277,4.1393,4.0516,4.0134,3.9812,3.9586,3.8879,3.8866,3.9414,3.7967,3.737,3.7576,3.7832,3.8227,3.8723,3.9117,3.9259,3.9181,3.8375,3.7515,3.6682,3.6042,3.5802,3.5797,3.5775,3.5766,3.5761,3.5736,3.5687,3.5687,3.5687,3.5746,3.5775,3.5853,3.6108,3.6512,3.7148,3.7264,3.7258,3.7199,3.6928,3.6472,3.5747,3.5588,3.5669,3.597,3.5962,3.601,3.6374,3.6352,3.6241,3.6118,3.6446,3.6671,0.0,3.738,3.8113,3.8661,3.9643,3.9861,3.8707,3.9537,4.0011,3.9621,3.9808,3.9986,4.0077,3.9991,3.9183,3.7486,3.741,3.6757,3.5369,3.5472,3.55,3.55,3.55,3.55,3.55,3.55,3.5465,3.5361,3.5182,3.499,3.4774,3.436,3.4128,3.4056,3.3863,3.3807,3.3807,3.3807,3.3807,3.3807,4.4739,4.521,4.5594,4.5594,4.5594,4.5594,4.5594,4.4834,4.4499,4.5176,4.4494,4.4192,4.4867,4.4433,4.4319,4.4916,4.4954,4.4805,4.4449,4.4143,4.3992,4.4,4.3431,4.2741,4.1938,4.18,4.1338,4.0571,4.0146,3.9922,3.9883,3.8437,3.7849,3.8029,3.8341,3.8756,3.927,3.9933,4.021,4.0073,3.9129,3.8248,3.7423,3.6427,3.5892,3.568,3.5687,3.5671,3.5667,3.5624,3.5645,3.5645,3.5645,3.5638,3.5683,3.5781,3.5816,3.5964,3.6631,3.6562,3.6405,3.6654,3.6512,3.6279,3.6125,3.6091,3.6149,3.6458,3.6767,3.6928,3.7017,3.7259,3.7465,3.7396,3.7431,3.7502,0.0,3.7836,3.8186,3.8566,3.9178,3.9289,3.8387,3.936,3.999,3.9791,3.9982,4.0233,4.05,4.0516,3.9861,3.8507,3.8161,3.7315,3.5923,3.5654,3.55,3.55,3.55,3.55,3.55,3.55,3.55,3.5493,3.5331,3.519,3.506,3.4695,3.4394,3.4176,3.4006,3.3876,3.3807,3.3807,3.3807,3.3807,4.5594,4.5633,4.5671,4.5689,4.5642,4.5594,4.5594,4.5351,4.5243,4.5577,4.5313,4.5253,4.5565,4.562,4.5612,4.5612,4.5612,4.5603,4.5594,4.4816,4.4739,4.5556,4.4085,4.3613,4.4466,4.3831,4.3088,4.2305,4.2378,4.1562,3.9961,3.9062,3.8203,3.7461,3.8281,3.8672,3.8789,4.0469,4.1126,4.0927,3.9893,3.8922,3.8081,3.7192,3.6394,3.5737,3.5626,3.562,3.5599,3.5522,3.55,3.55,3.55,3.554,3.562,3.5586,3.5638,3.5736,3.5845,3.6397,3.6757,3.6076,3.6419,3.6914,3.692,3.6876,3.7008,3.7539,3.8243,3.8642,3.8364,3.9022,3.9407,3.8775,3.8802,3.8766,3.8428,3.8384,3.8414,3.8457,3.8878,3.9133,3.9093,3.9414,3.9765,4.0062,4.0167,4.028,4.0508,4.0554,4.0169,3.9323,3.843,3.7584,3.6692,3.5885,3.55,3.55,3.55,3.55,3.55,3.55,3.55,3.55,3.55,3.5361,3.5132,3.5124,3.4774,3.4235,3.4211,3.4043,3.3807,3.3807,3.3807,3.3807,4.5594,4.6124,4.6609,4.6706,4.6097,4.5594,4.5594,4.5541,4.5547,4.5725,4.5607,4.5577,4.5792,4.579,4.5747,4.5747,4.5747,4.5727,4.5603,4.5402,4.5364,4.5594,4.521,4.4808,4.4505,4.4414,4.3708,4.2305,4.2378,4.1875,4.0859,3.9961,3.9453,3.9258,3.9453,3.957,3.9648,4.0742,4.1126,4.0966,4.0548,3.9851,3.9027,3.874,3.7718,3.6362,3.574,3.5528,3.5522,3.5514,3.55,3.55,3.55,3.5495,3.5554,3.5599,3.5616,3.5629,3.5733,3.5892,3.5987,3.5806,3.5898,3.6033,3.5972,3.5973,3.6163,3.663,3.745,3.8141,3.8465,3.9184,3.9781,3.992,4.0144,4.0158,3.978,3.9721,3.9614,3.9339,3.9615,3.9588,3.8947,3.9539,4.0002,4.0072,4.0861,4.1105,4.0508,4.1123,4.0816,3.9361,3.843,3.7584,3.6692,3.5885,3.55,3.55,3.55,3.55,3.55,3.55,3.55,3.55,3.55,3.5472,3.5376,3.519,3.5008,3.4823,3.4371,3.4043,3.3807,3.3807,3.3807,3.3807,4.6163,4.6904,4.7542,4.7705,4.723,4.6731,4.6376,4.5982,4.5745,4.5836,4.577,4.5783,4.5905,4.5857,4.5819,4.579,4.5783,4.574,4.5612,4.5594,4.5541,4.539,4.5532,4.5346,4.4839,4.5082,4.4603,4.3396,4.3121,4.2539,4.1719,4.0469,3.9883,3.9883,3.9883,3.9883,3.9961,4.0688,4.0968,4.088,4.0688,4.0327,0.0,3.9444,3.87,3.7738,3.6892,3.6115,3.55,3.55,3.55,3.55,3.55,3.55,3.552,3.554,3.557,3.5566,3.5624,3.5659,3.5671,3.5677,3.5687,3.5778,3.6133,3.6223,3.6288,3.6549,3.7318,3.787,3.7769,3.8747,3.9767,4.0357,4.063,4.0643,4.025,4.0262,4.0207,3.9962,4.0068,4.0023,3.966,4.0034,4.0286,4.0286,4.0866,4.1008,4.0516,4.0969,4.0816,3.9861,3.8623,3.7777,3.7276,3.6077,3.55,3.55,3.55,3.55,3.55,3.55,3.55,3.55,3.55,3.55,3.5493,3.5346,3.5216,3.5054,3.4443,3.4117,3.3979,3.3823,3.3807,3.3807,4.7237,4.8013,4.8669,4.8704,4.8682,4.8452,4.7724,4.6722,4.6083,4.6095,4.597,4.5892,4.5959,4.5952,4.5896,4.5828,4.5815,4.5768,4.5612,4.5559,4.541,4.5126,4.5361,4.5408,4.5316,4.566,4.5468,4.4787,4.4131,4.3358,4.2343,4.0898,4.0156,4.0078,4.0078,4.0117,4.0234,4.0671,4.0878,4.098,4.0649,4.0552,4.0475,3.9743,3.942,3.9206,3.8474,3.7182,3.5846,3.5846,3.5846,3.5808,3.5692,3.5654,3.5654,3.5538,3.55,3.5495,3.5566,3.5599,3.5591,3.5663,3.5687,3.5881,3.6627,3.6782,3.6713,3.6744,3.7331,3.7656,3.6874,3.8085,3.9412,4.023,4.0506,4.0543,4.0178,4.0338,4.0488,4.0466,4.0352,0.0,4.0686,4.0588,4.0516,4.0516,4.0593,4.0631,4.0516,4.0593,4.0631,4.0516,3.8854,3.8007,3.8007,3.6346,3.55,3.55,3.55,3.55,3.55,3.55,3.55,3.55,3.55,3.55,3.55,3.55,3.5325,3.5054,3.4531,3.4292,3.4223,3.3981,3.3876,3.3837,4.9104,4.9924,5.0421,4.9853,4.9745,4.972,4.968,4.8134,4.7011,4.7123,4.6406,4.5985,4.6201,4.614,4.6005,4.59,4.5886,4.5819,4.562,4.5361,4.5169,4.5115,4.4896,4.4946,4.5308,4.5354,4.5176,4.4733,4.4629,4.3835,4.2313,4.2067,4.1601,4.0976,4.0976,4.1328,4.1914,4.1261,4.1391,4.1971,4.1089,4.0761,4.0722,4.0606,4.0077,3.9358,3.9203,3.8453,3.7546,3.7546,3.7546,3.743,3.6731,3.65,3.6346,3.5692,3.55,3.5507,3.5502,3.5509,3.5515,3.5547,3.5554,3.5592,3.5714,3.5803,3.5818,3.5814,3.6533,3.7144,3.6985,3.7768,3.8721,3.9483,3.9761,3.9835,3.9722,4.0393,4.0844,4.0723,4.0676,4.0629,4.0697,4.0588,4.0516,4.0516,4.1162,4.1277,4.0554,4.1162,4.1239,4.0516,3.8854,3.8007,3.8007,3.6346,3.55,3.55,3.55,3.55,3.55,3.55,3.55,3.55,3.55,3.55,3.55,3.55,3.533,3.5089,3.4969,3.4794,3.4593,3.4551,3.4375,3.4117,5.1677,5.1784,5.1726,5.143,5.1045,5.0735,5.082,4.9637,4.8603,4.8231,4.7749,4.7517,4.7617,4.7184,4.6802,4.6601,4.6156,4.5809,4.562,4.5438,4.5211,4.4861,4.4861,4.4773,4.4623,4.5073,4.5224,4.5021,4.482,4.4348,4.3526,4.2632,4.2077,4.1785,4.1796,4.2305,4.3047,4.2558,4.2579,4.2887,4.1877,4.1486,4.1408,4.0976,4.0516,4.0121,4.0121,3.9844,3.9298,3.8348,3.8007,3.793,3.7507,3.7353,3.7199,3.6385,3.6115,3.6038,3.5615,3.55,3.55,3.55,3.55,3.55,3.55,3.5528,3.5552,3.5552,3.5544,3.5699,3.6185,3.7368,3.8378,3.8787,3.9312,3.9698,3.9677,4.0117,4.0572,4.0943,4.0878,4.0733,4.0733,4.0604,4.0516,4.0516,4.0893,4.0931,4.0516,4.0893,4.0931,4.0516,3.8854,3.8007,3.8007,3.6346,3.55,3.55,3.55,3.55,3.55,3.55,3.55,3.55,3.55,3.55,3.55,3.55,3.5405,3.5278,3.5166,3.5016,3.4898,3.4763,3.4593,3.4453,5.3928,5.3401,5.2794,5.2695,5.1992,5.1406,5.1406,5.0859,5.0156,4.9297,4.9023,4.8906,4.8906,4.8241,4.7751,4.7501,4.6635,4.6078,4.589,4.5656,4.5253,4.4739,4.4896,4.4738,4.4247,4.4914,4.5302,4.5355,4.5085,4.4822,4.4628,4.329,4.2617,4.2572,4.2652,4.3164,4.3945,4.3738,4.3726,4.3803,4.2822,4.2445,4.2367,4.1662,4.1416,4.136,4.1204,4.1112,4.0835,3.9146,3.8595,3.8556,3.8402,3.8325,3.8164,3.7276,3.6877,3.6594,3.5937,3.5615,3.55,3.55,3.55,3.5462,3.5269,3.5231,3.5154,3.5,3.4571,3.4569,3.5687,3.6861,3.7802,3.8222,3.8784,3.9297,3.9648,3.9837,4.0234,4.1094,4.097,4.085,4.085,4.0654,4.0542,4.0537,4.0539,4.0516,4.0516,4.0516,4.0516,4.0516,3.8854,3.8007,3.8007,3.6346,3.55,3.55,3.55,3.55,3.55,3.55,3.55,3.55,3.55,3.55,3.55,3.55,3.55,3.5486,3.5254,3.519,3.5166,3.4954,3.4841,3.4803,5.4945,5.4361,5.3593,5.2851,5.1992,5.1406,5.1406,5.1328,5.1016,5.0195,4.9375,4.8906,4.8906,4.8736,4.8524,4.8383,4.7472,4.6868,4.6787,4.5753,4.5137,4.5082,4.48,4.4763,4.4988,4.5077,4.5283,4.5556,4.567,4.5293,4.4511,4.4492,4.4097,4.3472,4.355,4.4062,4.4844,4.4023,4.414,4.4804,4.3905,4.3553,4.3553,4.3475,4.3387,4.3236,4.2453,4.2064,4.1836,4.0874,4.0555,4.0403,3.9673,3.9439,3.9263,3.8334,3.7484,3.6837,3.6632,3.6077,3.55,3.55,3.55,3.5269,3.4507,3.4321,3.4083,3.3314,3.3743,3.4801,3.6477,3.6302,3.6452,3.805,3.7815,3.7973,3.9497,3.9838,4.0234,4.1094,4.1077,4.0968,4.0968,4.0854,4.0743,4.0686,4.0574,4.0516,4.0516,4.0516,4.0516,4.0516,3.8854,3.8007,3.8007,3.6346,3.55,3.55,3.55,3.55,3.55,3.55,3.55,3.55,3.55,3.55,3.55,3.55,3.55,3.55,3.5479,3.5472,3.5472,3.542,3.5254,3.5115,5.6007,5.5349,5.4492,5.3633,5.2773,5.1992,5.1484,5.1406,5.1289,5.0976,5.0625,5.0391,5.0391,4.9866,4.9416,4.9283,4.8353,4.7735,4.7634,4.6724,4.6059,4.5813,4.5232,4.4872,4.4812,4.4988,4.5169,4.5283,4.5573,4.5488,4.514,4.475,4.4513,4.4376,4.4449,4.4961,4.5742,4.5391,4.5469,4.5703,4.4844,4.4492,4.4414,4.3906,4.3671,4.3627,4.3275,4.2761,4.2319,4.2476,4.1766,4.0743,4.0435,4.0318,4.0155,3.9302,3.8734,3.8186,3.7118,3.6518,3.6115,3.5615,3.55,3.5423,3.5045,3.4584,3.4116,3.3809,3.41,3.4629,3.5392,3.6128,3.6664,3.6886,3.7566,3.8276,3.894,3.953,4.0234,4.1094,4.108,4.1016,4.1016,4.0874,4.08,4.0752,4.1162,4.1366,4.1285,4.1277,4.1277,4.1277,3.9161,3.8007,3.8007,3.6346,3.55,3.55,3.55,3.55,3.55,3.55,3.55,3.55,3.55,3.55,3.55,3.55,3.55,3.55,3.55,3.55,3.55,3.55,3.5412,3.5339,5.6601,5.5898,5.5117,5.4492,5.3437,5.25,5.1875,5.1562,5.1406,5.1406,5.1406,5.1406,5.1406,5.0752,5.0286,5.0174,4.9239,4.8599,4.848,4.7702,4.7127,4.6832,4.6046,4.553,4.5288,4.5519,4.551,4.5243,4.5735,4.586,4.5657,4.5207,4.5083,4.5275,4.5348,4.5703,4.6289,4.6289,4.6289,4.625,4.5625,4.5391,4.5312,4.4687,4.4453,4.4414,4.418,4.3672,4.3203,4.3594,4.2602,4.129,4.129,4.1092,4.0817,4.0175,3.9754,3.9185,3.798,3.7192,3.6577,3.6,3.5654,3.5423,3.5192,3.4462,3.3886,3.3979,3.4058,3.4335,3.4889,3.5994,3.6747,3.6445,3.7422,3.8398,3.8906,3.9491,4.0153,4.1051,4.1015,4.0975,4.1009,4.0909,4.0872,4.0864,4.1573,4.1859,4.1485,4.1424,4.1316,4.1085,3.9084,3.7892,3.7623,3.6192,3.55,3.55,3.55,3.55,3.55,3.55,3.55,3.55,3.55,3.55,3.55,3.55,3.55,3.55,3.55,3.55,3.55,3.55,3.55,3.5479,5.6601,5.5898,5.5312,5.5273,5.3867,5.2695,5.2695,5.1953,5.1406,5.1406,5.1406,5.1406,5.1406,5.1219,5.1094,5.1094,5.0055,4.9404,4.9394,4.8586,4.8086,4.8077,4.7308,4.6885,4.6885,4.6885,4.6462,4.5586,4.6471,4.6505,4.5783,4.5974,4.6089,4.6091,4.6207,4.6289,4.6289,4.6289,4.6289,4.6289,4.6289,4.6289,4.6289,4.6289,4.6289,4.6172,4.5273,4.4961,4.4844,4.3984,4.3125,4.2383,4.2383,4.1836,4.1171,4.1028,4.0312,3.9564,3.9402,3.808,3.6692,3.6692,3.6077,3.5269,3.4391,3.3577,3.3054,3.317,3.3256,3.384,3.5552,3.5969,3.6289,3.7148,3.7305,3.793,3.9648,3.9791,4.0038,4.0898,4.088,4.086,4.0972,4.1017,4.1008,4.0982,4.1685,4.1694,4.0742,4.0581,4.0169,3.9361,3.8469,3.7584,3.6731,3.5923,3.55,3.55,3.55,3.55,3.55,3.55,3.55,3.55,3.55,3.55,3.55,3.55,3.55,3.55,3.55,3.55,3.55,3.55,3.55,3.55,5.6601,5.6367,5.6015,5.539,5.4844,5.4258,5.3672,5.3359,5.2969,5.2344,5.2305,5.207,5.1445,5.1219,5.1089,5.1089,5.0589,5.0289,5.0289,4.9471,4.8971,4.8971,4.8163,4.774,4.774,4.774,4.7628,4.7441,4.7117,4.6648,4.6017,4.6069,4.6147,4.6246,4.6289,4.6289,4.6289,4.6289,4.6289,4.6289,4.6289,4.6289,4.6289,4.6289,4.6289,4.625,4.5976,4.5508,4.5039,4.5351,4.4492,4.3398,4.3984,4.2812,4.1171,4.103,4.0736,4.0256,3.9591,3.8968,3.82,3.7,3.65,3.6115,3.5269,3.4549,3.4068,3.4157,3.4202,3.4607,3.5778,3.5976,3.6094,3.6367,3.7422,3.8358,3.8812,3.9852,4.065,4.0831,4.0839,4.0857,4.097,4.1016,4.1039,4.113,4.1176,4.131,4.1555,4.0889,4.0362,4.0131,3.8161,3.6962,3.6692,3.5885,3.55,3.55,3.55,3.55,3.55,3.55,3.55,3.55,3.55,3.55,3.55,3.55,3.55,3.55,3.55,3.55,3.55,3.55,3.55,3.55,5.6601,5.6601,5.6445,5.5898,5.5508,5.5117,5.457,5.4219,5.3789,5.3242,5.3203,5.2969,5.2422,5.2221,5.1849,5.1172,5.0859,5.0712,5.0712,5.0202,4.9903,4.9954,4.9144,4.8684,4.8732,4.8732,4.8604,4.8365,4.7872,4.7271,4.6598,4.6656,4.6516,4.6289,4.6289,4.6289,4.6289,4.6289,4.6289,4.6289,4.6289,4.6289,4.6289,4.6289,4.6289,4.6289,4.6289,4.5937,4.5586,4.6133,4.5351,4.4297,4.4844,4.3672,4.2031,4.1615,4.1165,4.068,4.0051,3.958,3.9053,3.7969,3.7199,3.6419,3.5382,3.4801,3.4544,3.463,3.4685,3.4961,3.5859,3.6289,3.6484,3.6484,3.7969,3.9021,3.8912,4.0057,4.0874,4.0766,4.0713,4.0733,4.0886,4.0925,4.0968,4.1126,4.0929,4.1021,4.1518,4.0615,3.99,3.9592,3.77,3.6538,3.6231,3.5731,3.55,3.55,3.55,3.55,3.55,3.55,3.55,3.55,3.55,3.55,3.55,3.55,3.55,3.55,3.55,3.55,3.55,3.55,3.55,3.55,5.6601,5.6601,5.6601,5.6601,5.5937,5.539,5.539,5.4687,5.4141,5.4101,5.4101,5.4062,5.4023,5.3891,5.313,5.1429,5.1014,5.0798,5.0798,5.076,5.0782,5.0903,5.0136,4.9756,4.9897,4.9901,4.9478,4.8595,4.8725,4.8363,4.7504,4.7575,4.7187,4.6406,4.6328,4.6289,4.6289,4.6289,4.6289,4.6289,4.6289,4.6289,4.6289,4.6289,4.6289,4.6289,4.6289,4.6289,4.6289,4.6289,4.5742,4.5078,4.5078,4.4492,4.3593,4.2671,4.1674,4.0874,4.0821,4.012,3.9361,3.9323,3.8046,3.6434,3.4998,3.4659,3.4673,3.4761,3.4844,3.5117,3.5937,3.6797,3.7383,3.7383,3.8867,3.9918,3.9726,4.04,4.0839,4.0703,4.0581,4.0552,4.0686,4.0747,4.086,4.0972,4.0869,4.0817,4.0817,3.9869,3.8892,3.8046,3.7161,3.6308,3.55,3.55,3.55,3.55,3.55,3.55,3.55,3.55,3.55,3.55,3.55,3.55,3.55,3.55,3.55,3.55,3.55,3.55,3.55,3.55,3.55,3.55,5.6601,5.6601,5.6601,5.6601,5.6445,5.6289,5.6289,5.6133,5.5742,5.5078,5.5,5.4726,5.4062,5.3891,5.3621,5.3211,5.2388,5.1934,5.1934,5.134,5.1008,5.1042,5.0848,5.0752,5.0782,5.0782,5.0399,4.9658,4.979,4.9412,4.8513,4.789,4.75,4.7266,4.6601,4.6289,4.6289,4.6289,4.6289,4.6289,4.6289,4.6289,4.6289,4.6289,4.6289,4.6289,4.6289,4.6289,4.6289,4.6289,4.6172,4.5976,4.5976,4.5391,4.4491,4.357,4.2574,4.1773,4.1723,4.0977,4.0054,3.9438,3.8469,3.7448,3.6521,3.6358,3.6249,3.5749,3.6207,3.6758,3.6953,3.7695,3.8281,3.8281,3.9678,4.0463,3.9728,4.083,4.1433,4.0644,4.0508,4.0552,4.0686,4.0747,4.086,4.0972,4.0869,4.0817,4.0817,3.9869,3.8892,3.8046,3.7161,3.6308,3.55,3.55,3.55,3.55,3.55,3.55,3.55,3.55,3.55,3.55,3.55,3.55,3.55,3.55,3.55,3.55,3.55,3.55,3.55,3.55,3.55,3.5577,5.7773,5.7461,5.7187,5.7187,5.6875,5.6601,5.6601,5.6601,5.6445,5.5976,5.5898,5.5703,5.5234,5.5112,5.5065,5.5065,5.3731,5.2738,5.2344,5.1877,5.1511,5.1172,5.1133,5.1154,5.123,5.123,5.1054,5.0649,5.0702,5.0312,4.9492,4.9023,4.8594,4.8164,4.7266,4.6875,4.6875,4.6484,4.6289,4.6289,4.6289,4.6289,4.6289,4.6289,4.6289,4.6289,4.6289,4.6289,4.6289,4.6289,4.6289,4.6289,4.6289,4.5976,4.5507,4.4993,4.3868,4.2744,4.2679,4.1967,4.0924,3.9724,3.9051,3.8453,3.7705,3.7501,3.742,3.7085,3.7405,3.7783,3.7802,3.8506,3.9252,3.9726,4.0455,4.095,4.0754,4.114,4.1177,4.0577,4.0516,4.0552,4.0686,4.0747,4.086,4.0972,4.0869,4.0817,4.0817,4.0217,3.9477,3.8623,3.7738,3.6885,3.6077,3.5692,3.55,3.55,3.55,3.55,3.55,3.55,3.55,3.55,3.55,3.55,3.55,3.55,3.55,3.55,3.55,3.55,3.55,3.55,3.55,3.5615,5.9219,5.8594,5.8086,5.8086,5.7461,5.6953,5.6836,5.6797,5.6758,5.6601,5.6601,5.6601,5.6601,5.6601,5.6601,5.6601,5.5028,5.3693,5.2792,5.2637,5.2203,5.1449,5.1412,5.1429,5.1406,5.1406,5.1406,5.1406,5.1406,5.1055,5.0391,5.0273,4.9805,4.9062,4.8203,4.7734,4.7539,4.6797,4.6406,4.6289,4.6289,4.6289,4.6289,4.6289,4.6289,4.6289,4.6289,4.6289,4.6289,4.6289,4.6289,4.6289,4.6289,4.6289,4.6289,4.6289,4.5228,4.3948,4.3686,4.2868,4.1758,4.0299,3.9791,3.9381,3.8615,3.837,3.828,3.8266,3.8377,3.8493,3.8566,3.9397,4.0352,4.1205,4.1452,4.1668,4.2043,4.1494,4.0965,4.0581,4.0566,4.0584,4.0682,4.0779,4.0874,4.0972,4.0869,4.0817,4.0817,4.0597,4.0208,3.9515,3.8661,3.7777,3.6885,3.6231,3.5885,3.5885,3.5731,3.5692,3.5692,3.5577,3.55,3.55,3.55,3.55,3.55,3.55,3.55,3.55,3.55,3.55,3.55,3.55,3.55,3.5615,5.9219,5.9101,5.8984,5.8984,5.8906,5.8555,5.7812,5.7695,5.7422,5.6719,5.6601,5.6601,5.6601,5.6601,5.6601,5.6601,5.6326,5.5777,5.4878,5.4136,5.3356,5.2499,5.246,5.2148,5.1406,5.1406,5.1406,5.1406,5.1406,5.1328,5.1211,5.0508,5.0117,4.9961,4.9101,4.8281,4.7578,4.7461,4.6953,4.6289,4.6289,4.6289,4.6289,4.6289,4.6289,4.6289,4.6289,4.6289,4.6289,4.6289,4.6289,4.6289,4.6289,4.6289,4.6289,4.6289,4.6093,4.57,4.4887,4.3422,4.201,4.1712,4.1075,4.0248,3.936,3.9181,3.8982,3.8274,3.8796,3.9412,3.9427,4.0676,4.1774,4.1944,4.3093,4.3507,4.2278,4.2493,4.2282,4.0912,4.0766,4.0775,4.0792,4.0883,4.0966,4.1014,4.0869,4.0817,4.0817,4.0597,4.0439,4.0323,3.9515,3.8661,3.7815,3.7661,3.7623,3.7584,3.6885,3.65,3.65,3.5808,3.55,3.55,3.55,3.55,3.55,3.55,3.55,3.55,3.55,3.55,3.55,3.55,3.55,3.5731,6.0547,6.0039,5.9687,5.9805,5.9726,5.9414,5.8711,5.8594,5.8281,5.7422,5.7305,5.7109,5.664,5.6601,5.6601,5.6601,5.6601,5.6445,5.6015,5.5195,5.4297,5.3437,5.3398,5.3008,5.2109,5.2109,5.1875,5.1406,5.1406,5.1406,5.1406,5.1016,5.0859,5.082,4.9961,4.9375,4.8984,4.8516,4.8086,4.7695,4.7695,4.7422,4.6992,4.6992,4.6719,4.6289,4.6289,4.6289,4.6289,4.6289,4.6289,4.6289,4.6289,4.6289,4.6289,4.6289,4.6289,4.6094,4.519,4.4318,4.3556,4.3022,4.251,4.1932,4.102,4.0759,4.0433,3.9553,3.9773,4.0239,4.0775,4.1528,4.2369,4.3333,4.3724,4.3666,4.2909,4.2679,4.2155,4.0929,4.0817,4.0839,4.0889,4.0959,4.0996,4.1016,4.0874,4.0792,4.0762,4.059,4.0516,4.0516,3.9708,3.913,3.87,3.8238,3.8007,3.8007,3.7584,3.7392,3.7392,3.7007,3.6853,3.6853,3.6853,3.6853,3.6853,3.6853,3.6853,3.6853,3.6853,3.6853,3.6853,3.6853,3.6853,3.7007,6.1719,6.1015,6.0469,6.0664,6.0547,6.0195,5.957,5.9492,5.918,5.832,5.8203,5.7969,5.7265,5.7031,5.6914,5.6914,5.6719,5.6601,5.6601,5.5976,5.5195,5.4336,5.4101,5.3672,5.3008,5.2812,5.2383,5.1719,5.1484,5.1406,5.1406,5.1406,5.1406,5.1367,5.0742,5.0391,5.0156,4.9492,4.9101,4.8906,4.8906,4.8516,4.7891,4.7891,4.75,4.6875,4.668,4.6601,4.6562,4.6367,4.6289,4.6289,4.6289,4.6289,4.6289,4.6289,4.6289,4.6133,4.5469,4.5156,4.4844,4.4139,4.3708,4.3265,4.2549,4.2276,4.1894,4.1015,4.097,4.1293,4.1853,4.226,4.3015,4.4409,4.4278,4.3834,4.3494,4.2882,4.2071,4.1039,4.0883,4.0944,4.1028,4.1031,4.105,4.1035,4.0883,4.0779,4.0721,4.0563,4.0516,4.0516,3.99,3.9592,3.9592,3.8931,3.8584,3.8584,3.8392,3.8315,3.8315,3.8084,3.8007,3.8007,3.8007,3.8007,3.8007,3.8007,3.8007,3.8007,3.8007,3.8007,3.8007,3.8007,3.8007,3.8123,6.1719,6.164,6.1562,6.1601,6.1601,6.1289,6.043,6.0312,6.0039,5.9219,5.9101,5.9062,5.9023,5.8281,5.7812,5.7812,5.707,5.6601,5.6601,5.6523,5.6133,5.5234,5.4414,5.3984,5.3906,5.3125,5.2656,5.2617,5.1797,5.1406,5.1406,5.1406,5.1406,5.1406,5.1328,5.0898,5.0195,5.0117,4.9648,4.8906,4.8906,4.8867,4.8789,4.8789,4.875,4.8594,4.7773,4.75,4.7383,4.6562,4.6289,4.6289,4.6289,4.6289,4.6289,4.6289,4.6289,4.6289,4.6211,4.5625,4.496,4.4823,4.4181,4.3536,4.3346,4.3184,4.2866,4.2059,4.2416,4.2662,4.1947,4.3071,4.4222,4.4454,4.5144,4.5154,4.3797,4.3541,4.2898,4.1365,4.1171,4.1171,4.1172,4.1172,4.1172,4.1172,4.0952,4.0813,4.0805,4.0591,4.0516,4.0516,4.0439,4.04,4.04,4.0362,4.0323,4.0323,3.9554,3.9207,3.9169,3.8354,3.8007,3.8007,3.8007,3.8007,3.8007,3.8007,3.8007,3.8007,3.8007,3.8007,3.8007,3.8007,3.8007,3.8123,6.1719,6.1719,6.1719,6.1719,6.1719,6.1601,6.125,6.1211,6.0898,6.0039,5.9922,5.9765,5.9258,5.8906,5.8711,5.8711,5.789,5.7422,5.7422,5.6914,5.6445,5.6133,5.5781,5.5351,5.4805,5.4492,5.4062,5.3516,5.3164,5.3008,5.3008,5.2461,5.2226,5.2187,5.1641,5.1211,5.0937,5.0937,5.0742,5.0469,5.0469,5.0156,4.9726,4.9726,4.9375,4.8867,4.8516,4.8398,4.8359,4.8008,4.7539,4.7109,4.7109,4.6758,4.6289,4.6289,4.6289,4.6289,4.6289,4.6055,4.5781,4.5778,4.545,4.4994,4.4468,4.4234,4.3875,4.3025,4.3102,4.3369,4.3563,4.41,4.4544,4.4632,4.4937,4.4614,4.3032,4.2833,4.2457,4.1328,4.1211,4.1211,4.1211,4.1211,4.1171,4.108,4.0889,4.0788,4.0747,4.0577,4.0516,4.0516,4.0516,4.0516,4.0516,4.0516,4.0516,4.0516,4.0208,4.0054,4.0015,3.9708,3.9554,3.9554,3.9554,3.9554,3.9554,3.9554,3.9554,3.9554,3.9554,3.9554,3.9554,3.9554,3.9554,3.9592,6.1719,6.1719,6.1719,6.1719,6.1719,6.1719,6.1719,6.1719,6.1484,6.0898,6.082,6.0586,6.0039,5.9726,5.957,5.957,5.8789,5.832,5.832,5.75,5.6875,5.6601,5.6601,5.6328,5.5703,5.543,5.5,5.4414,5.4141,5.3984,5.3984,5.3398,5.3125,5.3086,5.2187,5.1797,5.1797,5.1523,5.1406,5.1406,5.1406,5.1055,5.0586,5.0586,5.0195,4.9648,4.9414,4.9297,4.9258,4.8984,4.8516,4.8008,4.8008,4.7422,4.6641,4.6367,4.6289,4.6289,4.6289,4.6289,4.6289,4.6289,4.6245,4.6035,4.5452,4.5255,4.4887,4.4033,4.4047,4.4296,4.4642,4.4915,4.5079,4.5145,4.5198,4.4727,4.3336,4.2965,4.2617,4.2031,4.1523,4.1289,4.1562,4.1367,4.117,4.1077,4.0947,4.0809,4.0709,4.0581,4.0516,4.0516,4.0516,4.0516,4.0516,4.0516,4.0516,4.0516,4.0516,4.0516,4.0516,4.0516,4.0516,4.0516,4.0516,4.0516,4.0516,4.0516,4.0516,4.0516,4.0516,4.0516,4.0516,4.0516,4.0516,4.0516,6.1719,6.1719,6.1719,6.1719,6.1719,6.1719,6.1719,6.1719,6.1719,6.1719,6.1719,6.1719,6.1719,6.0937,6.039,6.039,5.9687,5.9219,5.9219,5.8398,5.7539,5.664,5.6601,5.6601,5.6601,5.5742,5.5312,5.5312,5.4453,5.4023,5.4023,5.4023,5.4023,5.3984,5.3086,5.2695,5.2656,5.1797,5.1406,5.1406,5.1406,5.1406,5.1406,5.1406,5.1406,5.1289,5.0508,5.0195,5.0078,4.9219,4.8906,4.8906,4.8906,4.832,4.7422,4.6562,4.6328,4.6328,4.6289,4.6289,4.6289,4.6289,4.6289,4.6289,4.6289,4.62,4.5896,4.508,4.5452,4.565,4.488,4.5343,4.5959,4.608,4.6091,4.5835,4.5078,4.4258,4.3711,4.3711,4.2226,4.1523,4.2344,4.168,4.1211,4.1211,4.1078,4.0916,4.0715,4.0581,4.0516,4.0516,4.0516,4.0516,4.0516,4.0516,4.0516,4.0516,4.0516,4.0516,4.0516,4.0516,4.0516,4.0516,4.0516,4.0516,4.0516,4.0516,4.0516,4.0516,4.0516,4.0516,4.0516,4.0516,4.0516,4.0516,6.1719,6.1719,6.1719,6.1719,6.1719,6.1719,6.1719,6.1719,6.1719,6.1719,6.1719,6.1719,6.1719,6.1484,6.1328,6.1328,6.0547,5.9805,5.9258,5.8945,5.8437,5.7539,5.6914,5.6601,5.6601,5.6367,5.6211,5.6211,5.5937,5.582,5.582,5.5195,5.4922,5.4883,5.3984,5.3594,5.3594,5.332,5.2851,5.2305,5.2305,5.1953,5.1406,5.1406,5.1406,5.1367,5.1133,5.1055,5.1016,5.0742,5.0273,4.9726,4.9101,4.8711,4.8359,4.7461,4.7226,4.707,4.6484,4.6289,4.6289,4.6289,4.6289,4.6289,4.6289,4.6288,4.6168,4.5934,4.6046,4.6118,4.5884,4.6001,4.6003,4.5425,4.5348,4.5037,4.4219,4.3867,4.3711,4.3711,4.3242,4.3047,4.3281,4.3086,4.2969,4.2969,4.2329,4.1566,4.0814,4.132,4.1607,4.1558,4.1564,4.151,4.1393,4.0823,4.0516,4.0516,4.0516,4.0516,4.0516,4.0516,4.0516,4.0516,4.0516,4.0516,4.0516,4.0516,4.0516,4.0516,4.0516,4.0516,4.0516,4.0516,4.0516,4.0516,6.1719,6.1719,6.1719,6.1719,6.1719,6.1719,6.1719,6.1719,6.1719,6.1719,6.1719,6.1719,6.1719,6.1719,6.1719,6.1719,6.1211,6.0547,5.9726,5.9687,5.9297,5.8437,5.789,5.7305,5.6601,5.6601,5.6601,5.6601,5.6601,5.6601,5.6601,5.6055,5.582,5.5781,5.4883,5.4492,5.4492,5.4141,5.3711,5.3164,5.2851,5.2383,5.1875,5.1523,5.1406,5.1406,5.1406,5.1406,5.1406,5.1406,5.1094,5.0547,4.9687,4.9414,4.9258,4.8359,4.7851,4.75,4.6953,4.6562,4.6289,4.6289,4.6289,4.6289,4.6289,4.6289,4.6289,4.6289,4.6289,4.6289,4.6289,4.6289,4.6133,4.5586,4.5508,4.5312,4.4805,4.4414,4.4336,4.4687,4.4101,4.3828,4.418,4.3906,4.3711,4.3711,4.3149,4.2563,4.1935,4.2369,4.2567,4.2491,4.2452,4.226,4.1816,4.1623,4.1354,4.1008,4.1008,4.12,4.1516,4.1162,4.1008,4.1008,4.1008,4.0823,4.0554,4.1247,4.1316,4.1008,4.1008,4.1008,4.0969,4.0631,4.0516,4.0516,6.1719,6.1719,6.1719,6.1719,6.1719,6.1719,6.1719,6.1719,6.1719,6.1719,6.1719,6.1719,6.1719,6.1719,6.1719,6.1719,6.1719,6.1367,6.0586,6.0508,6.0156,5.9336,5.9297,5.8515,5.6875,5.6758,5.6719,5.6719,5.664,5.6601,5.6601,5.6601,5.6601,5.6562,5.5781,5.543,5.5351,5.457,5.418,5.4062,5.3242,5.2891,5.2734,5.1836,5.1523,5.1523,5.1445,5.1406,5.1367,5.1367,5.1406,5.1289,5.0547,5.0312,5.0156,4.9258,4.8437,4.7812,4.7656,4.7031,4.6406,4.6328,4.6289,4.6289,4.6289,4.6289,4.6289,4.6289,4.6289,4.6289,4.6289,4.6289,4.6289,4.6289,4.6289,4.6289,4.6289,4.5625,4.5391,4.6211,4.4883,4.4258,4.5039,4.4414,4.3906,4.3828,4.3777,4.3681,4.3603,4.359,4.3497,4.3358,4.3352,4.2918,4.204,4.2749,4.2664,4.1808,4.1885,4.2316,4.3085,4.2277,4.1923,4.1923,4.1923,4.147,4.0862,4.2431,4.2624,4.1923,4.1923,4.1939,4.184,4.1039,4.0708,4.0646,6.1719,6.1719,6.1719,6.1719,6.1719,6.1719,6.1719,6.1719,6.1719,6.1719,6.1719,6.1719,6.1719,6.1719,6.1719,6.1719,6.1719,6.1601,6.1445,6.1406,6.1055,6.0195,6.0156,5.9687,5.8672,5.7969,5.7617,5.7617,5.6914,5.6601,5.6601,5.6601,5.6601,5.6601,5.6406,5.6328,5.6328,5.6133,5.5625,5.5,5.4805,5.4336,5.3633,5.2734,5.2422,5.2344,5.1641,5.1323,5.1221,5.1221,5.1319,5.1367,5.1172,5.1133,5.0976,5.0156,4.9766,4.9336,4.7969,4.7461,4.7148,4.6484,4.6289,4.6289,4.6289,4.6289,4.6289,4.6289,4.6289,4.6289,4.6289,4.6289,4.6289,4.6289,4.6289,4.6289,4.6289,4.6133,4.6094,4.6289,4.5976,4.582,4.6016,4.5859,4.5469,4.4766,4.4687,4.4412,4.3709,4.4292,4.4587,4.4448,4.449,4.4331,4.3911,4.3541,4.2819,4.1808,4.2508,4.2931,4.3085,4.2893,4.2816,4.2816,4.2816,4.2701,4.2585,4.2931,4.3008,4.2816,4.2816,4.2842,4.2866,4.2673,4.2249,4.1631,6.1719,6.1719,6.1719,6.1719,6.1719,6.1719,6.1719,6.1719,6.1719,6.1719,6.1719,6.1719,6.1719,6.1719,6.1719,6.1719,6.1719,6.1719,6.1719,6.1719,6.1484,6.1055,6.1015,6.082,6.039,5.9531,5.8906,5.8515,5.8047,5.7851,5.7812,5.7422,5.7226,5.7187,5.6797,5.6601,5.6601,5.6601,5.6328,5.5898,5.5469,5.5039,5.4531,5.3633,5.332,5.3242,5.2726,5.2455,5.2267,5.1842,5.1756,5.1755,5.1429,5.1317,5.1242,5.0898,5.0508,5.0,4.9101,4.8555,4.8008,4.7148,4.6914,4.6797,4.6406,4.6289,4.6289,4.6289,4.6289,4.6289,4.6289,4.6289,4.6289,4.6289,4.6289,4.6289,4.6289,4.6289,4.6289,4.6289,4.6247,4.6201,4.6201,4.6249,4.6094,4.5664,4.5625,4.543,4.4961,4.5309,4.5441,4.5336,4.5378,4.5049,4.4414,4.4515,4.405,4.3086,4.355,4.396,4.4278,4.3855,4.3662,4.3662,4.3662,4.3431,4.3162,4.397,4.4047,4.3662,4.3662,4.3697,4.368,4.3294,4.2943,4.2558,6.1719,6.1719,6.1719,6.1719,6.1719,6.1719,6.1719,6.1719,6.1719,6.1719,6.1719,6.1719,6.1719,6.1719,6.1719,6.1719,6.1719,6.1719,6.1719,6.1719,6.1719,6.1719,6.1719,6.1719,6.1719,6.0976,6.0234,5.9414,5.9258,5.9219,5.918,5.8476,5.8125,5.8086,5.7383,5.6953,5.6836,5.6836,5.6758,5.6523,5.582,5.5508,5.543,5.4531,5.4218,5.4137,5.3908,5.3713,5.3485,5.2725,5.2502,5.2427,5.1782,5.1503,5.1445,5.1556,5.1015,5.0391,5.0234,4.9687,4.8906,4.8047,4.7812,4.7578,4.6719,4.6406,4.6289,4.6289,4.6289,4.6289,4.6289,4.6289,4.6289,4.6289,4.6289,4.6289,4.6288,4.6288,4.6248,4.6245,4.6142,4.6072,4.6072,4.6152,4.6245,4.6245,4.6248,4.6288,4.6288,4.615,4.6064,4.5952,4.5892,4.5454,4.4575,4.5422,4.5452,4.4737,4.473,4.504,4.5607,4.488,4.4509,4.4509,4.4509,4.4124,4.3624,4.5017,4.5171,4.4509,4.4509,4.4534,4.446,4.3682,4.3399,4.3388,6.1719,6.1719,6.1719,6.1719,6.1719,6.1719,6.1719,6.1719,6.1719,6.1719,6.1719,6.1719,6.1719,6.1719,6.1719,6.1719,6.1719,6.1719,6.1719,6.1719,6.1719,6.1719,6.1719,6.1719,6.1719,6.1562,6.1094,6.0234,5.9531,5.9219,5.9219,5.9062,5.9023,5.9023,5.8906,5.8437,5.7734,5.7734,5.7305,5.6601,5.6484,5.6406,5.6328,5.5469,5.5032,5.4838,5.4086,5.3713,5.3547,5.3332,5.3346,5.3413,5.3317,5.2848,5.2328,5.2335,5.1823,5.1094,5.0391,5.0117,4.9805,4.8945,4.8711,4.8516,4.7617,4.6836,4.6289,4.6289,4.6289,4.6289,4.6289,4.6289,4.6289,4.6289,4.6289,4.6248,4.6145,4.614,4.6082,4.5974,4.5952,4.5944,4.5944,4.5955,4.5963,4.5963,4.6072,4.614,4.614,4.6093,4.6087,4.6077,4.5967,4.5813,4.5595,4.5901,4.5905,4.5628,4.5686,4.5747,4.5775,4.5525,4.5441,4.5441,4.5441,4.5364,4.5287,4.5518,4.5518,4.5441,4.5441,4.5518,4.5492,4.4771,4.4406,4.4214,6.1719,6.1719,6.1719,6.1719,6.1719,6.1719,6.1719,6.1719,6.1719,6.1719,6.1719,6.1719,6.1719,6.1719,6.1719,6.1719,6.1719,6.1719,6.1719,6.1719,6.1719,6.1719,6.1719,6.1719,6.1719,6.1719,6.1523,6.1133,6.0781,6.0586,6.0586,6.0117,5.9841,5.9747,5.9239,5.8792,5.8361,5.8361,5.7877,5.7166,5.7094,5.6829,5.6426,5.5965,5.5769,5.5641,5.5136,5.4879,5.4688,5.4176,5.4048,5.4033,5.3603,5.3319,5.3042,5.2623,5.2327,5.1953,5.1094,5.0859,5.0664,4.9844,4.9648,4.9414,4.8516,4.8047,4.7461,4.6484,4.6289,4.6289,4.6289,4.6289,4.6289,4.6289,4.6246,4.6153,4.6093,4.6056,4.5952,4.5864,4.5877,4.5891,4.5859,4.5881,4.5879,4.5879,4.6011,4.6089,4.6089,4.6089,4.6072,4.5988,4.5944,4.582,4.5704,4.5836,4.588,4.5822,4.5757,4.5757,4.5815,4.5657,4.5594,4.5594,4.5594,4.5594,4.5594,4.5594,4.5594,4.5594,4.5594,4.5654,4.5657,4.5453,4.5292,4.5201]}]]